[[{"header":{"parameterUnit":"m.s-1","parameterCategory":1,"la1":30.6,"la2":28.766,"lo1":-90.7593,"lo2":-88.6598,"dy":0.0162,"dx":0.0183,"nx":116,"ny":114,"refTime":"2023-08-09T12:00:00:Z","depth":0,"parameterNumber":2,"parameterNumberName":"U-component_of_WINDS"},"data":[0.0,0.0,0.0,0.0,0.0,0.0,0.0,0.0,0.0,0.0,0.0,0.0,0.0,0.0,0.0,0.0,0.0,0.0,0.0,0.0,0.0,0.0,0.0,0.0,0.0,0.0,0.0,0.0,0.0,0.0,0.0,0.0,0.0,0.0,0.0,0.0,0.0,0.0,0.0,0.0,0.0,0.0,0.0,0.0,0.0,0.0,0.0,0.0,0.0,0.0,0.0,0.0,0.0,0.0,0.0,0.0,0.0,0.0,0.0,0.0,0.0,0.0,0.0,0.0,0.0,0.0,0.0,0.0,0.0,0.0,0.0,0.0,0.0,0.0,0.0,0.0,0.0,0.0,0.0,0.0,0.0,0.0,0.0,0.0,0.0,0.0,0.0,0.0,0.0,0.0,0.0,0.0,0.0,0.0,0.0,0.0,0.0,0.0,0.0,0.0,0.0,0.0,0.0,0.0,0.0,0.0,0.0,0.0,0.0,0.0,0.0,0.0,0.0,0.0,0.0,0.0,0.0,0.0,0.0,0.0,0.0,0.0,0.0,0.0,0.0,0.0,0.0,0.0,0.0,0.0,0.0,0.0,0.0,0.0,0.0,0.0,0.0,0.0,0.0,0.0,0.0,0.0,0.0,0.0,0.0,0.0,0.0,0.0,0.0,0.0,0.0,0.0,0.0,0.0,0.0,0.0,0.0,0.0,0.0,0.0,0.0,0.0,0.0,0.0,0.0,0.0,0.0,0.0,0.0,0.0,0.0,0.0,0.0,0.0,0.0,0.0,0.0,0.0,0.0,0.0,0.0,0.0,0.0,0.0,0.0,0.0,0.0,0.0,0.0,0.0,0.0,0.0,0.0,0.0,0.0,0.0,0.0,0.0,0.0,0.0,0.0,0.0,0.0,0.0,0.0,0.0,0.0,0.0,0.0,0.0,0.0,0.0,0.0,0.0,0.0,0.0,0.0,0.0,0.0,0.0,0.0,0.0,0.0,0.0,0.0,0.0,0.0,0.0,0.0,0.0,0.0,0.0,0.0,0.0,0.0,0.0,0.0,0.0,0.0,0.0,0.0,0.0,0.0,0.0,0.0,0.0,0.0,0.0,0.0,0.0,0.0,0.0,0.0,0.0,0.0,0.0,0.0,0.0,0.0,0.0,0.0,0.0,0.0,0.0,0.0,0.0,0.0,0.0,0.0,0.0,0.0,0.0,0.0,0.0,0.0,0.0,0.0,0.0,0.0,0.0,0.0,0.0,0.0,0.0,0.0,0.0,0.0,0.0,0.0,0.0,0.0,0.0,0.0,0.0,0.0,0.0,0.0,0.0,0.0,0.0,0.0,0.0,0.0,0.0,0.0,0.0,0.0,0.0,0.0,0.0,0.0,0.0,0.0,0.0,0.0,0.0,0.0,0.0,0.0,0.0,0.0,0.0,0.0,0.0,0.0,0.0,0.0,0.0,0.0,0.0,0.0,0.0,0.0,0.0,0.0,0.0,0.0,0.0,0.0,0.0,0.0,0.0,0.0,0.0,0.0,0.0,0.0,0.0,0.0,0.0,0.0,0.0,0.0,0.0,0.0,0.0,0.0,0.0,0.0,0.0,0.0,0.0,0.0,0.0,0.0,0.0,0.0,0.0,0.0,0.0,0.0,0.0,0.0,0.0,0.0,0.0,0.0,0.0,0.0,0.0,0.0,0.0,0.0,0.0,0.0,0.0,0.0,0.0,0.0,0.0,0.0,0.0,0.0,0.0,0.0,0.0,0.0,0.0,0.0,0.0,0.0,0.0,0.0,0.0,0.0,0.0,0.0,0.0,0.0,0.0,0.0,0.0,0.0,0.0,0.0,0.0,0.0,0.0,0.0,0.0,0.0,0.0,0.0,0.0,0.0,0.0,0.0,0.0,0.0,0.0,0.0,0.0,0.0,0.0,0.0,0.0,0.0,0.0,0.0,0.0,0.0,0.0,0.0,0.0,0.0,0.0,0.0,0.0,0.0,0.0,0.0,0.0,0.0,0.0,0.0,0.0,0.0,0.0,0.0,0.0,0.0,0.0,0.0,0.0,0.0,0.0,0.0,0.0,0.0,0.0,0.0,0.0,0.0,0.0,0.0,0.0,0.0,0.0,0.0,0.0,0.0,0.0,0.0,0.0,0.0,0.0,0.0,0.0,0.0,0.0,0.0,0.0,0.0,0.0,0.0,0.0,0.0,0.0,0.0,0.0,0.0,0.0,0.0,0.0,0.0,0.0,0.0,0.0,0.0,0.0,0.0,0.0,0.0,0.0,0.0,0.0,0.0,0.0,0.0,0.0,0.0,0.0,0.0,0.0,0.0,0.0,0.0,0.0,0.0,0.0,0.0,0.0,0.0,0.0,0.0,0.0,0.0,0.0,0.0,0.0,0.0,0.0,0.0,0.0,0.0,0.0,0.0,0.0,0.0,0.0,0.0,0.0,0.0,0.0,0.0,0.0,0.0,0.0,0.0,0.0,0.0,0.0,0.0,0.0,0.0,0.0,0.0,0.0,0.0,0.0,0.0,0.0,0.0,0.0,0.0,0.0,0.0,0.0,0.0,0.0,0.0,0.0,0.0,0.0,0.0,0.0,0.0,0.0,0.0,0.0,0.0,0.0,0.0,0.0,0.0,0.0,0.0,0.0,0.0,0.0,0.0,0.0,0.0,0.0,0.0,0.0,0.0,0.0,0.0,0.0,0.0,0.0,0.0,0.0,0.0,0.0,0.0,0.0,0.0,0.0,0.0,0.0,0.0,0.0,0.0,0.0,0.0,0.0,0.0,0.0,0.0,0.0,0.0,0.0,0.0,0.0,0.0,0.0,0.0,0.0,0.0,0.0,0.0,0.0,0.0,0.0,0.0,0.0,0.0,0.0,0.0,0.0,0.0,0.0,0.0,0.0,0.0,0.0,0.0,0.0,0.0,0.0,0.0,0.0,0.0,0.0,0.0,0.0,0.0,0.0,0.0,0.0,0.0,0.0,0.0,0.0,0.0,0.0,0.0,0.0,0.0,0.0,0.0,0.0,0.0,0.0,0.0,0.0,0.0,0.0,0.0,0.0,0.0,0.0,0.0,0.0,0.0,0.0,0.0,0.0,0.0,0.0,0.0,0.0,0.0,0.0,0.0,0.0,0.0,0.0,0.0,0.0,0.0,0.0,0.0,0.0,0.0,0.0,0.0,0.0,0.0,0.0,0.0,0.0,0.0,0.0,0.0,0.0,0.0,0.0,0.0,0.0,0.0,0.0,0.0,0.0,0.0,0.0,0.0,0.0,0.0,0.0,0.0,0.0,0.0,0.0,0.0,0.0,0.0,0.0,0.0,0.0,0.0,0.0,0.0,0.0,0.0,0.0,0.0,0.0,0.0,0.0,0.0,0.0,0.0,0.0,0.0,0.0,0.0,0.0,0.0,0.0,0.0,0.0,0.0,0.0,0.0,0.0,0.0,0.0,0.0,0.0,0.0,0.0,0.0,0.0,0.0,0.0,0.0,0.0,0.0,0.0,0.0,0.0,0.0,0.0,0.0,0.0,0.0,0.0,0.0,0.0,0.0,0.0,0.0,0.0,0.0,0.0,0.0,0.0,0.0,0.0,0.0,0.0,0.0,0.0,0.0,0.0,0.0,0.0,0.0,0.0,0.0,0.0,0.0,0.0,0.0,0.0,0.0,0.0,0.0,0.0,0.0,0.0,0.0,0.0,0.0,0.0,0.0,0.0,0.0,0.0,0.0,0.0,0.0,0.0,0.0,0.0,0.0,0.0,0.0,0.0,0.0,0.0,0.0,0.0,0.0,0.0,0.0,0.0,0.0,0.0,0.0,0.0,0.0,0.0,0.0,0.0,0.0,0.0,0.0,0.0,0.0,0.0,0.0,0.0,0.0,0.0,0.0,0.0,0.0,0.0,0.0,0.0,0.0,0.0,0.0,0.0,0.0,0.0,0.0,0.0,0.0,0.0,0.0,0.0,0.0,0.0,0.0,0.0,0.0,0.0,0.0,0.0,0.0,0.0,0.0,0.0,0.0,0.0,0.0,0.0,0.0,0.0,0.0,0.0,0.0,0.0,0.0,0.0,0.0,0.0,0.0,0.0,0.0,0.0,0.0,0.0,0.0,0.0,0.0,0.0,0.0,0.0,0.0,0.0,0.0,0.0,0.0,0.0,0.0,0.0,0.0,0.0,0.0,0.0,0.0,0.0,0.0,0.0,0.0,0.0,0.0,0.0,0.0,0.0,0.0,0.0,0.0,0.0,0.0,0.0,0.0,0.0,0.0,0.0,0.0,0.0,0.0,0.0,0.0,0.0,0.0,0.0,0.0,0.0,0.0,0.0,0.0,0.0,0.0,0.0,0.0,0.0,0.0,0.0,0.0,0.0,0.0,0.0,0.0,0.0,0.0,0.0,0.0,0.0,0.0,0.0,0.0,0.0,0.0,0.0,0.0,0.0,0.0,0.0,0.0,0.0,0.0,0.0,0.0,0.0,0.0,0.0,0.0,0.0,0.0,0.0,0.0,0.0,0.0,0.0,0.0,0.0,0.0,0.0,0.0,0.0,0.0,0.0,0.0,0.0,0.0,0.0,0.0,0.0,0.0,0.0,0.0,0.0,0.0,0.0,0.0,0.0,0.0,0.0,0.0,0.0,0.0,0.0,0.0,0.0,0.0,0.0,0.0,0.0,0.0,0.0,0.0,0.0,0.0,0.0,0.0,0.0,0.0,0.0,0.0,0.0,0.0,0.0,0.0,0.0,0.0,0.0,0.0,0.0,0.0,0.0,0.0,0.0,0.0,0.0,0.0,0.0,0.0,0.0,0.0,0.0,0.0,0.0,0.0,0.0,0.0,0.0,0.0,0.0,0.0,0.0,0.0,0.0,0.0,0.0,0.0,0.0,0.0,0.0,0.0,0.0,0.0,0.0,0.0,0.0,0.0,0.0,0.0,0.0,0.0,0.0,0.0,0.0,0.0,0.0,0.0,0.0,0.0,0.0,0.0,0.0,0.0,0.0,0.0,0.0,0.0,0.0,0.0,0.0,0.0,0.0,0.0,0.0,0.0,0.0,0.0,0.0,0.0,0.0,0.0,0.0,0.0,0.0,0.0,0.0,0.0,0.0,0.0,0.0,0.0,0.0,0.0,0.0,0.0,0.0,0.0,0.0,0.0,0.0,0.0,0.0,0.0,0.0,0.0,0.0,0.0,0.0,0.0,0.0,0.0,0.0,0.0,0.0,0.0,0.0,0.0,0.0,0.0,0.0,0.0,0.0,0.0,0.0,0.0,0.0,0.0,0.0,0.0,0.0,0.0,0.0,0.0,0.0,0.0,0.0,0.0,0.0,0.0,0.0,0.0,0.0,0.0,0.0,0.0,0.0,0.0,0.0,0.0,0.0,0.0,0.0,0.0,0.0,0.0,0.0,0.0,0.0,0.0,0.0,0.0,0.0,0.0,0.0,0.0,0.0,0.0,0.0,0.0,0.0,0.0,0.0,0.0,0.0,0.0,0.0,0.0,0.0,0.0,0.0,0.0,0.0,0.0,0.0,0.0,0.0,0.0,0.0,0.0,0.0,0.0,0.0,0.0,0.0,0.0,0.0,0.0,0.0,0.0,0.0,0.0,0.0,0.0,0.0,0.0,0.0,0.0,0.0,0.0,0.0,0.0,0.0,0.0,0.0,0.0,0.0,0.0,0.0,0.0,0.0,0.0,0.0,0.0,0.0,0.0,0.0,0.0,0.0,0.0,0.0,0.0,0.0,0.0,0.0,0.0,0.0,0.0,0.0,0.0,0.0,0.0,0.0,0.0,0.0,0.0,0.0,0.0,0.0,0.0,0.0,0.0,0.0,0.0,0.0,0.0,0.0,0.0,0.0,0.0,0.0,0.0,0.0,0.0,0.0,0.0,0.0,0.0,0.0,0.0,0.0,0.0,0.0,0.0,0.0,0.0,0.0,0.0,0.0,0.0,0.0,0.0,0.0,0.0,0.0,0.0,0.0,0.0,0.0,0.0,0.0,0.0,0.0,0.0,0.0,0.0,0.0,0.0,0.0,0.0,0.0,0.0,0.0,0.0,0.0,0.0,0.0,0.0,0.0,0.0,0.0,0.0,0.0,0.0,0.0,-4.106,0.0,0.0,0.0,0.0,0.0,0.0,0.0,0.0,0.0,0.0,0.0,0.0,0.0,0.0,0.0,0.0,0.0,0.0,0.0,0.0,0.0,0.0,0.0,0.0,0.0,0.0,0.0,0.0,0.0,0.0,0.0,0.0,0.0,0.0,0.0,0.0,0.0,0.0,0.0,0.0,0.0,0.0,0.0,0.0,0.0,0.0,0.0,0.0,0.0,0.0,0.0,0.0,0.0,0.0,0.0,0.0,0.0,0.0,0.0,0.0,0.0,0.0,0.0,0.0,0.0,0.0,0.0,0.0,0.0,0.0,0.0,0.0,0.0,0.0,0.0,0.0,0.0,0.0,0.0,0.0,0.0,0.0,0.0,0.0,0.0,0.0,0.0,0.0,0.0,0.0,0.0,0.0,0.0,0.0,0.0,0.0,0.0,0.0,0.0,0.0,0.0,0.0,0.0,0.0,0.0,0.0,0.0,0.0,0.0,0.0,0.0,0.0,0.0,0.0,0.0,0.0,-4.2794,0.0,0.0,0.0,0.0,0.0,0.0,0.0,0.0,0.0,0.0,0.0,0.0,0.0,0.0,0.0,0.0,0.0,0.0,0.0,0.0,0.0,0.0,0.0,0.0,0.0,0.0,0.0,0.0,0.0,0.0,0.0,0.0,0.0,0.0,0.0,0.0,0.0,0.0,0.0,0.0,0.0,0.0,0.0,0.0,0.0,0.0,0.0,0.0,0.0,0.0,0.0,0.0,0.0,0.0,0.0,0.0,0.0,0.0,0.0,0.0,0.0,0.0,0.0,0.0,0.0,0.0,0.0,0.0,0.0,0.0,0.0,0.0,0.0,0.0,0.0,0.0,0.0,0.0,0.0,0.0,0.0,0.0,0.0,0.0,0.0,0.0,0.0,0.0,0.0,0.0,0.0,0.0,0.0,0.0,0.0,0.0,0.0,0.0,0.0,0.0,0.0,0.0,0.0,0.0,0.0,0.0,0.0,0.0,-5.2266,-5.301,-5.2773,-5.3416,-5.3687,-5.345,-4.9661,-4.7022,-4.5292,0.0,0.0,0.0,0.0,0.0,0.0,0.0,0.0,0.0,0.0,0.0,0.0,0.0,0.0,0.0,0.0,0.0,0.0,0.0,0.0,0.0,0.0,0.0,0.0,0.0,0.0,0.0,0.0,0.0,0.0,0.0,0.0,0.0,0.0,0.0,0.0,0.0,0.0,0.0,-4.3139,-4.4485,-4.5399,-4.5771,0.0,0.0,0.0,0.0,0.0,0.0,0.0,0.0,0.0,0.0,0.0,0.0,0.0,0.0,0.0,0.0,0.0,0.0,0.0,0.0,0.0,0.0,0.0,0.0,0.0,0.0,0.0,0.0,0.0,0.0,0.0,0.0,0.0,0.0,0.0,0.0,0.0,0.0,0.0,0.0,0.0,0.0,0.0,0.0,-3.9815,-4.0034,0.0,0.0,0.0,0.0,0.0,0.0,0.0,0.0,0.0,0.0,0.0,0.0,0.0,-4.9864,-5.1285,-5.4803,-5.6292,-5.5818,-5.9268,-6.0216,-5.893,-5.9032,-5.9066,-5.8998,-5.778,0.0,-4.8206,-4.5534,0.0,0.0,0.0,0.0,0.0,0.0,0.0,0.0,0.0,0.0,0.0,0.0,0.0,0.0,0.0,0.0,0.0,0.0,0.0,0.0,0.0,0.0,0.0,0.0,0.0,0.0,0.0,0.0,0.0,0.0,0.0,0.0,0.0,0.0,0.0,0.0,-4.2388,-4.3741,-4.5331,-4.6447,-4.7564,-4.8578,-4.6921,-4.5602,-4.4479,-4.2692,0.0,0.0,0.0,0.0,0.0,0.0,0.0,0.0,0.0,0.0,0.0,0.0,0.0,0.0,0.0,0.0,0.0,0.0,0.0,0.0,0.0,0.0,0.0,0.0,0.0,0.0,0.0,0.0,0.0,0.0,0.0,0.0,0.0,0.0,0.0,0.0,0.0,0.0,0.0,-4.0442,-4.1508,-4.0248,-4.1474,-4.1813,0.0,0.0,0.0,0.0,0.0,0.0,0.0,0.0,0.0,-5.1082,-5.3315,-5.5175,-5.6664,-5.9607,-6.1095,-6.1197,-6.326,-6.4106,-6.3869,-6.3869,-6.3632,-6.3193,-6.2482,-5.9776,-5.5581,-5.1352,-4.8206,-4.5906,0.0,0.0,0.0,0.0,-4.2477,-4.1805,0.0,0.0,0.0,0.0,0.0,0.0,0.0,0.0,0.0,0.0,0.0,0.0,0.0,0.0,0.0,0.0,0.0,0.0,0.0,0.0,0.0,0.0,0.0,0.0,0.0,0.0,0.0,0.0,-4.3882,-4.5737,-4.7936,-4.8917,-5.0236,-5.1826,-5.1995,-5.0135,-4.6781,-4.5229,-4.3916,0.0,0.0,0.0,0.0,0.0,0.0,0.0,0.0,0.0,0.0,0.0,0.0,0.0,0.0,0.0,0.0,0.0,0.0,0.0,0.0,0.0,0.0,0.0,0.0,0.0,0.0,0.0,0.0,0.0,0.0,0.0,0.0,0.0,0.0,0.0,0.0,0.0,0.0,-4.2185,-4.3301,-4.0688,-4.3166,-4.4012,0.0,0.0,0.0,0.0,0.0,0.0,-4.9731,-5.1285,-5.3484,-5.6494,-5.8727,-6.0588,-6.2076,-6.4174,-6.5493,-6.6034,-6.6779,-6.7421,-6.7963,-6.776,-6.7387,-6.6812,-6.6068,-6.458,-6.2279,-5.6664,-5.2807,-5.0238,-4.8236,-4.7035,-4.6374,-4.5766,-4.5015,-4.4165,0.0,0.0,0.0,0.0,0.0,0.0,0.0,0.0,0.0,0.0,0.0,0.0,0.0,0.0,0.0,0.0,0.0,0.0,0.0,0.0,0.0,0.0,0.0,0.0,0.0,0.0,0.0,0.0,0.0,-4.8785,-5.0982,-5.2536,-5.4397,-5.6494,-5.7205,-5.5852,-5.2807,-4.9221,-4.7601,-4.7229,0.0,0.0,0.0,0.0,0.0,0.0,0.0,0.0,0.0,0.0,0.0,0.0,0.0,0.0,0.0,0.0,0.0,0.0,0.0,0.0,0.0,0.0,0.0,0.0,0.0,0.0,0.0,0.0,0.0,0.0,0.0,0.0,0.0,0.0,0.0,0.0,0.0,0.0,0.0,-4.1576,-4.6244,0.0,0.0,0.0,0.0,-4.9593,-5.0405,-5.2098,-5.5175,-5.6697,-5.8863,-6.1907,-6.414,-6.6,-6.7489,-6.9079,-6.9857,-6.9925,-7.0669,-7.1041,-7.1075,-7.0331,-6.9992,-6.9925,-6.918,-6.7996,-6.6034,-5.937,-5.5716,-5.3956,-5.0582,-4.8882,-4.8225,-4.7065,-4.5708,-4.4476,0.0,0.0,0.0,0.0,0.0,0.0,0.0,0.0,0.0,0.0,0.0,0.0,0.0,0.0,0.0,0.0,0.0,0.0,0.0,0.0,0.0,0.0,0.0,0.0,0.0,0.0,0.0,0.0,0.0,0.0,-5.4092,-5.5141,-5.6799,-5.8964,-5.9742,-5.9505,-5.8254,-5.4025,-5.1082,-4.8984,-4.5263,-4.3166,0.0,0.0,0.0,0.0,0.0,0.0,0.0,0.0,0.0,0.0,0.0,0.0,0.0,0.0,0.0,0.0,0.0,0.0,0.0,0.0,0.0,0.0,0.0,0.0,0.0,0.0,0.0,0.0,0.0,0.0,0.0,0.0,0.0,0.0,0.0,0.0,0.0,-4.7767,-5.2063,0.0,0.0,-5.2267,-5.3551,-5.5006,-5.5818,-5.7543,-6.0588,-6.211,-6.4072,-6.6609,-6.8402,-6.9553,-7.0094,-7.1109,-7.1379,-7.0906,-7.1176,-7.1312,-7.1312,-7.1041,-7.0635,-7.0161,-6.9925,-6.9214,-6.8064,-6.5155,-6.1975,-5.8616,-5.5582,-5.371,-5.2539,-5.1123,-4.9998,-4.9035,0.0,0.0,0.0,0.0,0.0,0.0,0.0,0.0,0.0,0.0,0.0,0.0,0.0,0.0,0.0,0.0,0.0,0.0,0.0,0.0,0.0,0.0,0.0,0.0,0.0,0.0,0.0,0.0,0.0,0.0,0.0,-5.7205,-5.8727,-6.0926,-6.1941,-6.2415,-6.2212,-5.8964,-5.5412,-5.1725,-4.8477,-4.6583,-4.5196,0.0,0.0,0.0,0.0,0.0,0.0,0.0,0.0,0.0,0.0,0.0,0.0,0.0,0.0,0.0,0.0,0.0,0.0,0.0,0.0,0.0,0.0,0.0,0.0,0.0,0.0,0.0,0.0,0.0,0.0,0.0,0.0,0.0,0.0,0.0,-5.2435,-5.2672,-5.7137,-5.9268,-5.7036,-5.7983,-5.9302,-6.0791,-6.1839,-6.3632,-6.6373,-6.7421,-6.8876,-7.0906,-7.1684,-7.2157,-7.2428,-7.2665,-7.2529,-7.2056,-7.1785,-7.1684,-7.1684,-7.1413,-7.1041,-7.0567,-7.0052,-6.9568,-6.902,-6.7811,-6.5393,-6.2245,-5.9778,-5.7696,-5.5804,-5.4202,-5.3147,-5.2337,0.0,0.0,0.0,0.0,0.0,0.0,0.0,0.0,0.0,0.0,0.0,0.0,0.0,0.0,0.0,0.0,0.0,0.0,0.0,0.0,0.0,0.0,0.0,0.0,0.0,0.0,0.0,0.0,0.0,0.0,0.0,0.0,-6.0317,-6.255,-6.4005,-6.4647,-6.458,-6.3903,-6.0655,-5.5749,-5.3382,-5.1522,-4.9729,0.0,0.0,0.0,0.0,0.0,0.0,0.0,0.0,0.0,0.0,0.0,0.0,0.0,0.0,0.0,0.0,0.0,0.0,0.0,0.0,0.0,0.0,0.0,0.0,0.0,0.0,0.0,0.0,0.0,0.0,0.0,0.0,0.0,-4.8142,-5.3247,-5.6765,-5.6122,-6.1231,-6.3396,-5.981,-6.2753,-6.5493,-6.6948,-6.847,-7.0229,-7.236,-7.2462,-7.3138,-7.4593,-7.395,-7.3916,-7.4627,-7.3916,-7.3544,-7.351,-7.2766,-7.2394,-7.236,-7.1605,-7.1222,-7.1176,-6.9727,-6.9169,-6.9007,-6.6964,-6.5655,-6.4711,-6.2732,-6.036,-5.7806,-5.5922,-5.479,-5.3922,0.0,0.0,0.0,0.0,0.0,0.0,0.0,0.0,0.0,0.0,0.0,0.0,0.0,0.0,0.0,0.0,0.0,0.0,0.0,0.0,0.0,0.0,0.0,0.0,0.0,0.0,0.0,0.0,0.0,0.0,0.0,0.0,0.0,-6.4783,-6.5222,-6.5392,-6.5425,-6.5764,-6.4444,-6.1738,-5.6765,-5.389,-5.2131,0.0,0.0,0.0,0.0,0.0,0.0,0.0,0.0,0.0,0.0,0.0,0.0,0.0,0.0,0.0,0.0,0.0,0.0,0.0,0.0,0.0,0.0,0.0,0.0,0.0,0.0,0.0,0.0,0.0,0.0,0.0,0.0,-5.2942,-5.3484,-5.778,-6.1569,-6.3531,-6.7151,-6.9485,-6.9519,-7.0939,-7.2022,-7.2428,-7.3341,-7.3916,-7.3984,-7.4018,-7.4424,-7.5371,-7.5202,-7.5202,-7.5405,-7.5202,-7.483,-7.4289,-7.3003,-7.2394,-7.2315,-7.0597,-6.9775,-6.968,-6.8355,-6.7723,-6.7723,-6.7125,-6.5897,-6.4142,-6.2078,-6.0204,-5.8468,-5.6587,-5.5179,-5.4072,0.0,0.0,0.0,0.0,0.0,0.0,0.0,0.0,0.0,0.0,0.0,0.0,0.0,0.0,0.0,0.0,0.0,0.0,0.0,0.0,0.0,0.0,0.0,0.0,0.0,0.0,0.0,0.0,0.0,0.0,0.0,0.0,0.0,0.0,-6.6474,-6.6812,-6.7117,-6.7218,-6.6779,-6.5662,-6.1873,-5.9302,-5.7171,-5.2503,-5.0371,-4.9593,-4.709,-4.685,-4.7654,-4.7317,0.0,0.0,0.0,0.0,0.0,0.0,0.0,0.0,0.0,0.0,0.0,0.0,0.0,0.0,0.0,0.0,0.0,0.0,0.0,0.0,0.0,0.0,0.0,0.0,-5.5852,-5.9471,-6.1501,-6.3463,-6.5797,-6.8808,-7.1244,-7.3138,-7.4289,-7.51,-7.5574,-7.5574,-7.6251,-7.6487,-7.6048,-7.6014,-7.6352,-7.7096,-7.6826,-7.6657,-7.6657,-7.6352,-7.5811,-7.5033,-7.3578,-7.2557,-7.1941,-7.0048,-6.8894,0.0,-6.6906,-6.6312,-6.6312,-6.5705,-6.4785,0.0,0.0,0.0,0.0,0.0,-5.5388,-5.3713,0.0,0.0,0.0,0.0,0.0,0.0,0.0,0.0,0.0,0.0,0.0,0.0,0.0,0.0,0.0,0.0,0.0,0.0,0.0,0.0,0.0,0.0,0.0,0.0,0.0,0.0,0.0,0.0,0.0,0.0,0.0,0.0,0.0,0.0,0.0,-6.8436,-6.9045,-6.8335,-6.803,-6.7963,-6.7218,-6.5561,-6.2922,-5.7442,-5.5547,-5.5378,-5.1758,-4.9763,-4.8941,-5.0047,0.0,0.0,0.0,0.0,0.0,0.0,0.0,0.0,0.0,0.0,0.0,0.0,0.0,0.0,0.0,0.0,0.0,0.0,0.0,0.0,0.0,0.0,0.0,0.0,-6.2279,-6.6406,-7.0161,-6.9654,-6.9925,-7.2597,-7.4086,-7.5202,-7.6014,-7.6792,-7.7266,-7.7266,-7.801,-7.8416,-7.8247,0.0,0.0,0.0,0.0,-7.8111,-7.8111,-7.7401,-7.6623,-7.5811,-7.4221,-7.2882,-7.1688,-6.9973,-6.8454,-6.7113,-6.5674,-6.5001,-6.4758,-6.3592,-6.2989,-6.2892,-6.2802,-6.1584,-5.9638,-5.7693,-5.5508,-5.3503,0.0,0.0,0.0,0.0,0.0,0.0,0.0,0.0,0.0,0.0,0.0,0.0,0.0,0.0,0.0,0.0,0.0,0.0,0.0,0.0,0.0,0.0,0.0,0.0,0.0,0.0,0.0,0.0,0.0,0.0,0.0,0.0,0.0,0.0,0.0,0.0,-6.9079,-6.8944,-6.8876,-6.8808,-6.7996,-6.6034,-6.326,-6.0892,-5.8592,-5.6258,-5.3754,-5.3416,-5.4127,-5.3748,-5.3629,-5.3418,-5.1983,0.0,0.0,0.0,0.0,0.0,0.0,0.0,0.0,0.0,0.0,0.0,0.0,0.0,0.0,0.0,0.0,0.0,0.0,0.0,0.0,-6.2448,-6.6068,-6.9519,-7.324,-7.4559,-7.5371,-7.5946,-7.6284,-7.6995,-7.8314,-7.9126,-7.9566,-7.9566,-8.0818,-8.1021,-7.9837,-7.9769,0.0,-7.9972,-7.9261,-7.8889,-7.8889,-7.8145,-7.7401,-7.6657,0.0,0.0,-7.3003,-7.0391,-6.8454,-6.7113,-6.5674,-6.4512,-6.3508,-6.3222,-6.245,-6.1403,-6.0897,-5.9789,-5.8321,-5.6885,-5.6017,-5.5499,0.0,0.0,0.0,0.0,0.0,0.0,0.0,0.0,0.0,0.0,0.0,0.0,0.0,0.0,0.0,0.0,0.0,0.0,0.0,0.0,0.0,0.0,0.0,0.0,0.0,0.0,0.0,0.0,0.0,0.0,0.0,0.0,0.0,0.0,0.0,0.0,0.0,-7.0195,-6.9789,-6.9113,-6.9045,-6.7489,-6.5019,-6.3531,-6.1569,-5.9404,-5.7915,-5.69,-5.6362,-5.7054,-5.6782,-5.5962,-5.5191,-5.2904,-4.978,0.0,0.0,0.0,0.0,0.0,0.0,0.0,0.0,0.0,0.0,0.0,0.0,0.0,0.0,-5.4566,0.0,0.0,-6.4174,-6.7895,-7.1041,-7.3781,-7.598,-7.7604,-7.828,-7.7536,-7.7773,-7.8585,-8.0073,-8.0513,-8.075,-8.075,-8.1765,-8.1934,-8.0818,-8.075,-8.075,-8.075,-8.004,-7.9295,-7.8551,-7.8179,-7.7073,-7.5255,-7.3703,-7.2217,-7.0753,-6.866,-6.6923,-6.5521,-6.4554,-6.3732,-6.3049,-6.272,-6.2002,-6.1044,-6.0356,-5.9279,-5.7992,-5.7004,-5.6226,-5.5478,0.0,0.0,0.0,0.0,0.0,0.0,0.0,0.0,0.0,0.0,0.0,0.0,0.0,0.0,0.0,0.0,0.0,0.0,0.0,0.0,0.0,0.0,0.0,0.0,0.0,0.0,0.0,0.0,0.0,0.0,0.0,0.0,0.0,0.0,0.0,0.0,0.0,0.0,-7.0635,-6.9553,-6.9857,-6.8876,-6.7083,-6.5425,-6.3802,-6.2245,-6.1061,-5.8727,-5.6494,-5.8727,-5.8287,-5.6867,-5.7137,-5.548,-5.2705,-4.8781,-4.6718,0.0,0.0,0.0,0.0,0.0,0.0,0.0,0.0,0.0,-5.2942,-5.4668,-5.778,-6.1061,-6.3632,-6.732,-7.0669,-7.2902,-7.5439,-7.7367,-7.8111,-7.9363,-7.9701,-7.8348,-7.9126,-8.0141,-8.119,-8.1426,-8.1426,-8.1291,-8.1968,-8.2069,-8.1325,-8.1291,-8.1224,-8.1088,-8.0513,-7.9432,-7.7748,-7.7664,-7.6174,-7.337,-7.2433,-7.0715,-6.8383,-6.708,-6.5682,-6.4144,-6.3462,-6.3079,-6.3019,-6.2241,-6.1583,-6.1044,-6.0206,-5.9159,-5.8052,-5.7363,-5.6436,-5.5359,0.0,0.0,0.0,0.0,0.0,0.0,0.0,0.0,0.0,0.0,0.0,0.0,0.0,0.0,0.0,0.0,0.0,0.0,0.0,0.0,0.0,0.0,0.0,0.0,0.0,0.0,0.0,0.0,0.0,0.0,0.0,0.0,0.0,0.0,0.0,0.0,0.0,0.0,0.0,0.0,-6.9722,-6.9079,-6.8605,-6.6406,-6.4241,-6.2042,-5.9268,-5.6359,-5.4228,-5.6427,-5.7002,-5.7036,-5.8355,-5.8084,-5.6393,-5.1995,0.0,-4.5602,-4.5196,-4.5872,0.0,-5.0744,-5.1251,-5.2808,0.0,0.0,-6.1603,-6.3768,-6.6643,-6.9113,-7.0128,-7.1785,-7.3747,-7.6014,-7.7232,-7.8111,-7.8889,-7.9667,-7.9904,-7.9092,-8.0784,-8.1832,-8.1325,-8.19,-8.2002,-8.1325,-8.1968,-8.2069,-8.1325,-8.1291,-8.0987,-8.0344,-8.0242,-7.9177,-7.6941,-7.6333,-7.4858,-7.2536,-7.1188,-7.0065,-6.9159,-6.8341,-6.6878,-6.4936,-6.3622,-6.3079,-6.2989,-6.1732,-6.1194,-6.0984,-5.9727,-5.877,-5.8052,-5.7363,-5.7004,-5.6615,0.0,0.0,0.0,0.0,0.0,0.0,0.0,0.0,0.0,0.0,0.0,0.0,0.0,0.0,0.0,0.0,0.0,0.0,0.0,0.0,0.0,0.0,0.0,0.0,0.0,0.0,0.0,0.0,0.0,0.0,0.0,0.0,0.0,0.0,0.0,0.0,0.0,0.0,0.0,0.0,0.0,-6.8808,-6.8064,-6.4952,-6.211,-5.9539,-5.7881,-5.5344,0.0,0.0,-5.5175,-5.5852,-5.7746,-5.6968,-5.4634,-5.098,-4.8849,0.0,-4.9187,0.0,0.0,0.0,-5.8254,-6.1197,-6.4647,-6.6203,-6.7421,-6.9214,-7.1616,-7.3646,-7.4424,-7.5405,-7.6555,0.0,-7.845,-7.8889,-7.9634,-7.9634,-7.9126,-7.7976,-7.9025,-8.004,-8.0615,-8.0953,-8.1156,-8.1291,-8.1968,-8.2069,-8.1325,-8.1291,-8.1156,-8.0851,-7.9541,-7.8626,-7.8165,-7.5698,-7.3779,-7.2412,-7.0568,-6.8851,-6.7346,-6.6699,-6.5468,-6.3902,-6.3337,-6.3079,-6.2989,-6.1642,-6.0864,-6.0386,-5.9039,-5.8112,-5.7483,-5.7184,-5.6855,-5.6286,0.0,0.0,0.0,0.0,0.0,0.0,0.0,0.0,0.0,0.0,0.0,0.0,0.0,0.0,0.0,0.0,0.0,0.0,0.0,0.0,0.0,0.0,0.0,0.0,0.0,0.0,0.0,0.0,0.0,0.0,0.0,0.0,0.0,0.0,0.0,0.0,0.0,0.0,0.0,0.0,0.0,0.0,-6.688,-6.2956,-5.9607,-5.6799,-5.5446,-5.2739,0.0,0.0,-5.1691,-5.257,-5.4972,-5.4431,-5.2435,-5.027,-4.9458,-4.9661,-5.1251,0.0,0.0,-6.008,-6.4647,-6.8504,-6.9147,-7.1176,-7.3138,-7.3815,-7.5371,-7.669,-7.686,-7.7164,0.0,-7.8653,-7.8822,-7.9058,-7.9803,-7.9092,-7.7942,-7.6454,-7.6386,-7.6927,-7.8213,-7.9092,-7.9904,-8.0648,-8.119,-8.1359,-8.0987,-8.056,-8.0353,-8.0353,-7.875,-7.766,-7.7232,-7.4798,-7.2779,-7.1263,-6.9267,-6.7419,-6.5712,-6.4874,-6.3977,-6.3079,-6.3079,-6.2989,-6.272,-6.1583,-6.0715,-5.9967,-5.865,-5.7693,-5.7064,-5.6885,-5.6436,-5.5628,0.0,0.0,0.0,0.0,0.0,0.0,0.0,0.0,0.0,0.0,0.0,0.0,0.0,0.0,0.0,0.0,0.0,0.0,0.0,0.0,0.0,0.0,0.0,0.0,0.0,0.0,0.0,0.0,0.0,0.0,0.0,0.0,0.0,0.0,0.0,0.0,0.0,0.0,0.0,0.0,0.0,0.0,-6.5256,-6.0791,-5.7273,-5.4296,-5.1352,0.0,0.0,0.0,-4.594,-4.6481,-4.939,-5.0777,0.0,-5.1151,-5.0642,0.0,0.0,0.0,-5.9066,-6.4208,-6.8876,-7.28,-7.4931,-7.7739,-7.9498,-7.8111,-7.845,-7.8585,-7.7164,-7.6284,-7.6251,-7.7773,-7.801,-7.828,-7.9025,-7.7874,-7.642,-7.4864,-7.3443,-7.2868,0.0,-7.6352,-7.8348,-7.9126,-7.9194,-7.9498,-8.0209,-7.8836,-7.7969,-7.7969,-7.7969,-7.6168,-7.2571,-7.3226,-7.1782,-6.8113,-6.6762,-6.5742,-6.5024,-6.3707,-6.3109,-6.3079,-6.3079,-6.272,-6.2061,-6.1403,-6.0715,-5.9967,-5.865,-5.7693,-5.7034,-5.6406,-5.5777,-5.494,0.0,0.0,0.0,0.0,0.0,0.0,0.0,0.0,0.0,0.0,0.0,0.0,0.0,0.0,0.0,0.0,0.0,0.0,0.0,0.0,0.0,0.0,0.0,0.0,0.0,0.0,0.0,0.0,0.0,0.0,0.0,0.0,0.0,0.0,0.0,0.0,0.0,0.0,0.0,0.0,0.0,0.0,-6.3599,-5.7645,-5.3484,-5.0304,0.0,0.0,0.0,0.0,0.0,0.0,-4.5196,0.0,0.0,-4.7834,-4.9492,-5.1691,0.0,0.0,-6.6339,-7.0567,-7.4627,-7.8044,-7.9769,-8.0547,-8.0513,-7.9025,-7.6961,-7.4762,-7.28,-7.1819,-7.1819,-7.3308,-7.5642,-7.7536,-7.828,-7.8348,-7.7063,-7.3578,-7.3138,0.0,0.0,0.0,0.0,-7.7502,-7.8077,-7.8253,-7.7965,-7.8916,-7.8485,-7.6435,-7.6379,-7.5771,-7.4473,-7.1865,-7.0218,-6.9513,-6.622,-6.4545,-6.4306,-6.3468,-6.3079,-6.3079,-6.3079,-6.2959,-6.266,-6.1553,-6.0715,-5.9907,-5.8141,-5.7034,-5.6346,-5.5269,-5.4431,-5.3773,0.0,0.0,0.0,0.0,0.0,0.0,0.0,0.0,0.0,0.0,0.0,0.0,0.0,0.0,0.0,0.0,0.0,0.0,0.0,0.0,0.0,0.0,0.0,0.0,0.0,0.0,0.0,0.0,0.0,0.0,0.0,0.0,0.0,0.0,0.0,0.0,0.0,0.0,0.0,0.0,0.0,0.0,-5.8524,-5.3145,-4.939,0.0,0.0,0.0,0.0,0.0,0.0,0.0,0.0,-4.3882,-4.5805,-4.78,-5.0845,-5.4972,0.0,-6.6508,-7.1345,-7.5879,-7.9194,-8.1629,-8.2577,-8.2002,-8.0479,-7.7671,-7.4119,-7.0635,-6.7895,-6.6136,-6.6,-6.8842,-7.1312,-7.3815,-7.642,-7.6521,-7.5248,-7.2398,-7.2186,0.0,0.0,0.0,0.0,-7.5912,-7.7029,-7.7246,-7.6452,-7.7994,-7.7751,-7.517,-7.5142,-7.4719,-7.3959,-7.1169,-6.9367,-6.838,-6.5406,-6.3887,-6.3647,-6.3258,-6.3079,-6.3079,-6.3079,-6.281,-6.2301,-6.1463,-6.0565,-5.9548,-5.7782,-5.6855,-5.6316,-5.479,-5.3773,-5.3144,0.0,0.0,0.0,0.0,0.0,0.0,0.0,0.0,0.0,0.0,0.0,0.0,0.0,0.0,0.0,0.0,0.0,0.0,0.0,0.0,0.0,0.0,0.0,0.0,0.0,0.0,0.0,0.0,0.0,0.0,0.0,0.0,0.0,0.0,0.0,0.0,0.0,0.0,0.0,0.0,0.0,0.0,-5.0678,-4.7699,0.0,0.0,0.0,0.0,0.0,0.0,0.0,0.0,0.0,0.0,-4.9492,-5.1183,-5.4837,-5.981,-6.644,-7.05,-7.4221,-7.9972,-8.2475,-8.3524,-8.3422,-8.2137,-7.9498,-7.4289,-7.006,-6.6203,0.0,0.0,-5.9505,-6.4613,-6.5865,-6.8199,-7.3984,-7.3138,-7.1913,0.0,0.0,0.0,0.0,0.0,0.0,-7.4525,0.0,-7.6441,-7.5688,-7.6258,-7.5867,-7.4128,-7.4129,-7.3131,-7.0949,-7.1077,-6.9025,-6.5024,-6.4306,-6.3647,-6.3079,-6.3079,-6.3079,-6.3079,-6.3049,-6.2331,-6.1164,-6.1104,-6.0296,-5.8979,-5.7633,-5.7064,-5.6825,-5.494,-5.3803,-5.3084,0.0,0.0,0.0,0.0,0.0,0.0,0.0,0.0,0.0,0.0,0.0,0.0,0.0,0.0,0.0,0.0,0.0,0.0,0.0,0.0,0.0,0.0,0.0,0.0,0.0,0.0,0.0,0.0,0.0,0.0,0.0,0.0,0.0,0.0,0.0,0.0,0.0,0.0,0.0,0.0,0.0,0.0,-4.8345,0.0,0.0,0.0,0.0,0.0,0.0,0.0,0.0,0.0,0.0,0.0,-5.23,-5.6596,0.0,-6.5764,-7.1379,-7.5912,-7.9634,-8.2272,-8.3625,-8.3896,-8.2238,-7.9397,-7.5642,-7.0398,-6.4174,-5.866,0.0,0.0,0.0,-6.1839,-6.847,0.0,-7.6758,-7.8991,0.0,0.0,0.0,-7.4606,-7.3365,-7.3023,0.0,0.0,-7.5156,-7.4971,-7.4798,-7.5945,-7.5326,-7.2599,-7.3197,-7.2916,-7.1637,-6.9293,-6.7035,-6.5024,-6.3857,-6.3228,-6.3079,-6.3079,-6.3079,-6.3049,-6.257,-6.2151,-6.1762,-6.0775,-5.9847,-5.8979,-5.7633,-5.6825,-5.6286,-5.5299,-5.4192,-5.3144,0.0,0.0,0.0,0.0,0.0,0.0,0.0,0.0,0.0,0.0,0.0,0.0,0.0,0.0,0.0,0.0,0.0,0.0,0.0,0.0,0.0,0.0,0.0,0.0,0.0,0.0,0.0,0.0,0.0,0.0,0.0,0.0,0.0,0.0,0.0,0.0,0.0,0.0,0.0,0.0,0.0,0.0,0.0,0.0,0.0,0.0,0.0,0.0,0.0,0.0,0.0,-4.7496,-5.0405,-5.4059,-5.8186,-6.3091,0.0,-7.1312,-7.6217,-7.9837,-8.2543,-8.3693,-8.3558,-8.2238,-7.8653,-7.4728,-6.9958,-6.3396,-5.7442,0.0,0.0,0.0,0.0,0.0,0.0,0.0,-7.5912,-7.8551,-7.9398,0.0,-7.6741,0.0,-7.3854,-7.3214,-7.3364,0.0,-7.4884,-7.4701,-7.4011,-7.4975,-7.4439,-7.2008,-7.2156,-7.1549,-7.0171,-6.7777,-6.6041,-6.4964,-6.3707,-6.3079,-6.3079,-6.3079,-6.3079,-6.3049,0.0,-6.1942,-6.1553,-6.0206,-5.9279,-5.853,-5.7214,-5.6286,-5.5628,-5.467,-5.3653,-5.2725,0.0,0.0,0.0,0.0,0.0,0.0,0.0,0.0,0.0,0.0,0.0,0.0,0.0,0.0,0.0,0.0,0.0,0.0,0.0,0.0,0.0,0.0,0.0,0.0,0.0,0.0,0.0,0.0,0.0,0.0,0.0,0.0,0.0,0.0,0.0,0.0,0.0,0.0,0.0,0.0,0.0,0.0,0.0,0.0,0.0,0.0,0.0,0.0,0.0,0.0,-4.8984,-5.1657,-5.5649,-6.0283,-6.5189,-6.9857,-7.3105,-7.6149,-8.0412,-8.2678,-8.393,-8.4471,-8.2881,-7.9735,-7.4424,-6.9417,-6.3666,-5.5649,0.0,0.0,-4.6583,0.0,-5.0033,-5.6122,0.0,-6.6576,-7.4153,-7.572,-7.6709,-7.8304,-7.6822,-7.5006,-7.3297,-7.2572,-7.2652,-7.3692,-7.469,-7.4658,-7.3384,-7.3686,-7.3247,-7.1822,-7.1188,-6.9961,-6.7986,-6.6759,-6.5712,-6.4874,-6.3737,-6.3169,-6.3079,-6.3079,-6.3019,-6.2899,0.0,0.0,-6.0894,-5.9638,-5.865,-5.7872,-5.6735,-5.5837,-5.5029,-5.3773,-5.2905,-5.2247,0.0,0.0,0.0,0.0,0.0,0.0,0.0,0.0,0.0,0.0,-3.1899,0.0,0.0,0.0,0.0,0.0,0.0,0.0,0.0,0.0,0.0,0.0,0.0,0.0,0.0,0.0,0.0,0.0,0.0,0.0,0.0,0.0,0.0,0.0,0.0,0.0,0.0,0.0,0.0,0.0,0.0,0.0,0.0,0.0,0.0,0.0,0.0,0.0,0.0,0.0,-5.2739,-5.6528,-6.1501,-6.5392,-6.9248,-7.4965,-7.7435,-7.9025,-8.2238,-8.4234,-8.5249,-8.4742,-8.2475,-7.8855,-7.3003,-6.6271,0.0,0.0,0.0,-4.506,-4.4181,-4.665,0.0,-5.7577,0.0,0.0,0.0,0.0,-7.889,0.0,0.0,0.0,0.0,0.0,0.0,0.0,0.0,0.0,-7.3283,-7.2629,-7.1934,-7.1098,-7.0949,-6.9961,-6.7986,-6.7208,-6.5922,-6.4186,-6.3947,-6.3558,-6.3079,-6.3079,-6.278,-6.2241,-6.1553,0.0,-6.0206,-5.9428,-5.8381,-5.7244,-5.7034,-5.6226,-5.5089,-5.4311,-5.3593,-5.2905,0.0,0.0,0.0,0.0,0.0,0.0,0.0,0.0,0.0,-3.2946,-3.2736,-3.2407,0.0,0.0,0.0,0.0,0.0,0.0,0.0,0.0,0.0,0.0,0.0,0.0,0.0,0.0,0.0,0.0,0.0,0.0,0.0,0.0,0.0,0.0,0.0,0.0,0.0,0.0,0.0,0.0,0.0,0.0,0.0,0.0,0.0,0.0,0.0,0.0,0.0,0.0,-5.1589,-5.69,-6.4072,-6.8639,-7.2259,-7.669,-7.8788,-8.0242,-8.2813,-8.4302,-8.4979,-8.4234,-8.0648,-7.5439,-6.8301,0.0,0.0,0.0,0.0,-4.2828,-4.2828,0.0,0.0,0.0,0.0,0.0,0.0,0.0,0.0,0.0,0.0,0.0,0.0,0.0,0.0,0.0,0.0,0.0,-7.3261,-7.1792,-7.059,-6.9931,-6.9243,-6.8256,-6.6969,-6.5951,-6.4964,-6.4006,-6.3677,-6.3378,-6.3079,-6.272,-6.2391,-6.2032,-6.1014,0.0,-5.9997,-5.9009,-5.7992,-5.7064,-5.6735,-5.5807,-5.461,-5.3922,-5.3264,-5.2576,0.0,0.0,0.0,0.0,0.0,0.0,0.0,-3.1839,-3.2587,-3.3395,-3.3365,-3.3095,-3.2587,-3.2019,-3.166,0.0,0.0,0.0,0.0,0.0,0.0,0.0,0.0,0.0,0.0,0.0,0.0,0.0,0.0,0.0,0.0,0.0,0.0,0.0,0.0,0.0,0.0,0.0,0.0,0.0,0.0,0.0,0.0,0.0,0.0,0.0,0.0,0.0,0.0,0.0,-4.8815,-5.4126,-6.2448,-6.8368,-7.2834,-7.554,-7.8044,-8.0412,-8.2475,-8.393,-8.4606,-8.3524,-7.8653,-7.2022,-6.3971,-5.6664,0.0,0.0,0.0,-4.161,-4.2185,0.0,0.0,0.0,0.0,0.0,0.0,0.0,0.0,0.0,0.0,0.0,0.0,0.0,0.0,0.0,0.0,0.0,0.0,-7.0905,-6.9542,-6.9004,-6.7567,-6.646,-6.5802,-6.4755,-6.4066,-6.3797,-6.3438,-6.3199,-6.3049,-6.2391,-6.2032,-6.1822,-6.0595,0.0,0.0,-5.859,-5.7723,-5.7034,-5.6406,-5.5448,-5.4311,-5.3473,-5.2845,-5.2306,0.0,0.0,0.0,0.0,0.0,0.0,0.0,-3.1152,-3.2049,-3.3335,-3.2976,-3.2587,-3.2497,-3.2437,-3.2138,0.0,0.0,0.0,0.0,0.0,0.0,0.0,0.0,0.0,0.0,0.0,0.0,0.0,0.0,0.0,0.0,0.0,0.0,0.0,0.0,0.0,0.0,0.0,0.0,0.0,0.0,0.0,0.0,0.0,0.0,0.0,0.0,0.0,0.0,0.0,0.0,-4.7597,-5.3856,-6.1603,-6.8741,-7.0398,0.0,0.0,-8.1054,-8.3524,-8.5182,-8.305,-7.7502,-7.0635,-6.3125,0.0,0.0,0.0,-4.1745,-4.2219,-4.2286,-4.3735,0.0,0.0,0.0,0.0,0.0,0.0,0.0,0.0,0.0,0.0,0.0,0.0,0.0,0.0,0.0,0.0,0.0,-6.9816,-6.9064,-6.9004,-6.7119,-6.5772,-6.5114,-6.4994,-6.4336,-6.3169,-6.3677,-6.3617,-6.3049,-6.2391,-6.1762,-6.1164,-6.0416,0.0,0.0,-5.8411,-5.7723,-5.7034,-5.6406,-5.5718,-5.494,-5.3653,-5.3144,-5.2905,0.0,0.0,0.0,0.0,0.0,0.0,0.0,-3.1062,-3.1989,-3.3335,-3.3275,-3.3095,-3.3095,-3.2378,-3.1481,0.0,0.0,0.0,0.0,0.0,0.0,0.0,0.0,0.0,0.0,0.0,0.0,0.0,0.0,0.0,0.0,0.0,0.0,0.0,0.0,0.0,0.0,0.0,0.0,0.0,0.0,0.0,0.0,0.0,0.0,0.0,0.0,0.0,0.0,0.0,0.0,0.0,-4.5399,-5.1082,0.0,0.0,-6.9789,-7.4086,-7.872,-8.1832,-8.3321,-8.1528,-7.5709,-6.8436,-6.096,0.0,0.0,-4.161,-4.1102,-4.1644,-4.1644,-4.2861,-4.4621,0.0,0.0,0.0,0.0,0.0,0.0,0.0,0.0,0.0,0.0,0.0,0.0,0.0,0.0,0.0,0.0,-6.9093,-6.8196,-6.7807,-6.5862,-6.4665,-6.4425,-6.4036,-6.3588,-6.3079,-6.3318,-6.3109,-6.248,-6.1792,-6.1134,-6.0446,-5.9787,0.0,0.0,-5.8411,-5.7723,-5.7034,-5.6406,-5.5777,-5.5089,-5.4132,-5.3803,-5.3653,0.0,0.0,0.0,0.0,0.0,0.0,-2.9774,-3.0522,-3.1391,-3.2736,-3.2736,-3.2766,-3.3155,-3.166,-3.0372,-2.9681,0.0,0.0,0.0,0.0,0.0,0.0,0.0,0.0,0.0,0.0,-3.56,-3.56,0.0,0.0,0.0,0.0,0.0,0.0,0.0,0.0,0.0,0.0,0.0,0.0,0.0,0.0,0.0,0.0,0.0,0.0,0.0,0.0,0.0,0.0,0.0,0.0,0.0,0.0,0.0,0.0,-6.3835,-6.8944,-7.4322,-7.8247,-8.0378,-7.8653,-7.2935,-6.5865,0.0,0.0,0.0,-4.1094,-4.0696,-4.1126,-4.0908,-4.2085,-4.3097,0.0,0.0,0.0,0.0,0.0,0.0,0.0,0.0,0.0,0.0,0.0,0.0,0.0,0.0,0.0,0.0,-6.8016,-6.7178,-6.6729,-6.4755,-6.3707,-6.3707,-6.3288,-6.2989,-6.278,-6.278,-6.245,-6.1792,-6.1104,-6.0535,-6.0057,0.0,0.0,0.0,-5.8171,-5.7543,-5.7004,-5.6196,-5.5598,-5.5119,-5.4461,-5.4221,-5.4072,0.0,0.0,0.0,0.0,0.0,0.0,0.0,-2.9175,-3.0073,-3.1361,-3.0943,-3.1061,-3.2377,-3.0193,-2.8876,-2.9562,0.0,0.0,0.0,0.0,0.0,0.0,0.0,0.0,0.0,0.0,-3.56,-3.56,-3.64,-3.6366,0.0,0.0,0.0,0.0,0.0,0.0,0.0,0.0,0.0,0.0,0.0,0.0,0.0,0.0,0.0,0.0,0.0,0.0,0.0,0.0,0.0,0.0,0.0,0.0,0.0,0.0,-5.707,-6.5155,-6.7387,-7.2394,-7.642,-7.4119,-6.9079,-6.2888,0.0,0.0,0.0,-4.0891,-4.0696,-4.0961,-4.0255,-4.1318,-4.182,-4.0291,0.0,0.0,0.0,0.0,0.0,0.0,0.0,0.0,0.0,0.0,0.0,0.0,0.0,0.0,0.0,0.0,-6.6011,-6.6011,-6.4096,-6.3079,-6.3079,-6.3079,-6.275,-6.2121,-6.2121,-6.1762,-6.1104,-6.0416,-6.0086,0.0,0.0,0.0,0.0,-5.7663,-5.7094,-5.6974,-5.5688,-5.5209,-5.5119,-5.4461,-5.4221,-5.4012,0.0,0.0,0.0,0.0,0.0,0.0,0.0,-2.8786,-2.9235,-3.0073,-3.0013,-3.0193,-3.1061,-2.9624,-2.9235,-3.0763,0.0,0.0,0.0,0.0,0.0,0.0,0.0,0.0,0.0,0.0,-3.5893,-3.64,-3.6694,-3.6907,-3.7178,-3.6907,-3.666,0.0,0.0,0.0,0.0,0.0,0.0,0.0,0.0,0.0,0.0,0.0,0.0,0.0,0.0,0.0,0.0,0.0,0.0,0.0,0.0,0.0,0.0,0.0,0.0,0.0,-5.9877,-6.3193,-6.5121,-6.3903,-6.0283,-5.5784,-5.1116,0.0,0.0,0.0,-4.0282,-4.0375,-4.0135,-4.0501,-4.0912,-4.1292,0.0,0.0,0.0,0.0,0.0,0.0,0.0,0.0,0.0,0.0,0.0,0.0,0.0,0.0,0.0,0.0,-6.5114,-6.4665,-6.3617,-6.2869,-6.2421,-6.2421,-6.2061,-6.1433,-6.1433,-6.1074,-6.0386,-5.9727,0.0,0.0,0.0,0.0,0.0,-5.6825,-5.6466,-5.6376,-5.5538,-5.5179,-5.5149,-5.497,-5.488,-5.476,0.0,0.0,0.0,0.0,0.0,0.0,0.0,-2.8038,-2.8457,-2.9116,-2.9022,-2.9292,-3.0372,-2.9146,-2.8996,-3.0943,0.0,0.0,0.0,0.0,0.0,0.0,0.0,0.0,-3.56,-3.56,-3.5859,-3.6332,-3.6907,-3.7313,-3.7483,-3.7584,-3.7337,-3.6795,-3.6265,0.0,0.0,0.0,0.0,0.0,0.0,0.0,-3.56,0.0,0.0,0.0,0.0,0.0,0.0,0.0,0.0,0.0,0.0,0.0,0.0,0.0,-4.3403,0.0,0.0,-5.6258,-5.7848,-5.7103,-5.4566,0.0,0.0,0.0,0.0,0.0,0.0,0.0,0.0,0.0,0.0,0.0,0.0,0.0,0.0,0.0,0.0,0.0,0.0,0.0,0.0,0.0,0.0,0.0,0.0,0.0,0.0,0.0,-6.4336,-6.3677,-6.3288,-6.2869,-6.248,-6.2211,-6.1762,-6.1104,-6.0835,-6.0236,-5.9338,-5.8919,0.0,0.0,0.0,0.0,0.0,-5.6436,-5.6218,-5.6107,-5.5448,-5.5179,-5.5179,-5.5179,-5.5179,-5.5059,0.0,0.0,0.0,0.0,0.0,0.0,0.0,0.0,0.0,0.0,-2.8004,-2.8304,-3.0103,-2.8693,-2.8364,0.0,0.0,0.0,0.0,0.0,0.0,0.0,0.0,0.0,-3.56,-3.56,-3.5645,-3.5667,-3.7222,-3.7662,-3.7064,-3.8497,-3.8362,-3.6965,-3.6897,-3.64,0.0,0.0,0.0,0.0,0.0,-3.6265,0.0,0.0,0.0,0.0,0.0,0.0,0.0,0.0,0.0,0.0,0.0,0.0,0.0,0.0,0.0,0.0,0.0,0.0,0.0,0.0,0.0,0.0,0.0,0.0,0.0,0.0,0.0,0.0,0.0,0.0,0.0,0.0,0.0,0.0,0.0,0.0,0.0,0.0,0.0,0.0,0.0,0.0,0.0,0.0,0.0,0.0,0.0,0.0,-6.3588,-6.3019,-6.2959,-6.2959,-6.3019,-6.2361,-6.1702,-6.1044,-6.0296,-5.9308,-5.8112,-5.8022,0.0,0.0,0.0,0.0,0.0,-5.6346,-5.6128,-5.5987,-5.5359,-5.5119,-5.5119,-5.5119,-5.5149,-5.4999,0.0,0.0,0.0,0.0,0.0,0.0,0.0,0.0,0.0,0.0,-2.7705,-2.7764,-2.8244,-2.7884,-2.8004,0.0,0.0,0.0,0.0,0.0,0.0,0.0,0.0,0.0,-3.56,-3.56,-3.5887,-3.6448,-3.7984,-3.8959,-3.9335,-4.0262,-3.9884,-3.8464,-3.7889,-3.6874,0.0,0.0,0.0,0.0,-3.5825,-3.5769,0.0,0.0,0.0,0.0,-3.56,-3.6129,0.0,0.0,0.0,0.0,0.0,0.0,0.0,0.0,-4.0113,-4.0417,-4.1805,0.0,-4.3464,0.0,0.0,0.0,0.0,0.0,0.0,0.0,0.0,0.0,0.0,0.0,0.0,0.0,0.0,0.0,0.0,0.0,0.0,0.0,0.0,0.0,0.0,0.0,0.0,0.0,0.0,0.0,0.0,0.0,-6.248,-6.2331,-6.1852,-6.1822,-6.2331,-6.1672,-6.1014,-6.0326,-5.9159,-5.8411,-5.8082,-5.7094,0.0,0.0,0.0,0.0,-5.5628,-5.5478,-5.5119,-5.464,-5.4491,-5.4431,-5.4431,-5.4431,-5.476,-5.4999,0.0,0.0,0.0,0.0,0.0,0.0,0.0,0.0,0.0,0.0,0.0,0.0,0.0,0.0,0.0,0.0,0.0,0.0,0.0,0.0,0.0,0.0,0.0,-3.4759,-3.5121,-3.5144,-3.5466,-3.6197,-3.7081,-3.8197,-3.9589,-3.9941,-3.9747,-3.8937,-3.7483,-3.6377,-3.5633,-3.5994,-3.596,-3.5633,-3.5994,0.0,0.0,0.0,0.0,0.0,-3.56,-3.5893,0.0,-3.755,-3.8159,-3.8633,0.0,0.0,0.0,0.0,-3.9571,-4.0045,-3.9706,-4.0087,-4.0595,-4.0595,-4.0355,-4.0086,0.0,0.0,0.0,0.0,0.0,0.0,0.0,0.0,0.0,0.0,0.0,0.0,0.0,0.0,0.0,0.0,0.0,0.0,0.0,0.0,0.0,0.0,0.0,0.0,0.0,0.0,-6.1972,-6.1642,-6.1313,-6.1283,-6.1642,-6.0984,-6.0446,-6.0057,-5.874,-5.7962,-5.7603,-5.6316,-5.5568,0.0,0.0,0.0,-5.4281,-5.4281,-5.4072,-5.3743,-5.3743,-5.3743,-5.3743,-5.3743,-5.3952,-5.4132,0.0,0.0,0.0,0.0,0.0,0.0,0.0,0.0,0.0,0.0,0.0,0.0,0.0,0.0,0.0,0.0,0.0,0.0,0.0,0.0,0.0,0.0,0.0,-3.4382,-3.4578,-3.4504,-3.4767,-3.544,-3.5932,-3.7081,-3.8879,-3.9219,-3.9162,-3.8722,-3.6448,-3.544,-3.5498,-3.6161,-3.6013,-3.5383,-3.6264,0.0,0.0,0.0,0.0,0.0,0.0,0.0,0.0,-3.728,-3.7889,-3.8159,-3.8667,0.0,0.0,0.0,0.0,0.0,-3.9057,-3.9901,-4.0848,-4.0853,-4.0454,-4.0023,0.0,0.0,0.0,0.0,0.0,0.0,0.0,0.0,0.0,0.0,0.0,0.0,0.0,0.0,0.0,0.0,0.0,0.0,0.0,0.0,0.0,0.0,0.0,0.0,0.0,0.0,0.0,-6.0835,-6.0595,-6.0505,-6.0505,-6.0236,-6.0027,-5.9907,-5.859,-5.7603,-5.6915,-5.5628,-5.473,0.0,0.0,0.0,-5.3174,-5.3174,-5.3114,-5.3025,-5.3025,-5.3025,-5.3025,-5.3025,-5.3084,-5.3084,0.0,0.0,0.0,0.0,0.0,0.0,0.0,0.0,0.0,0.0,0.0,0.0,0.0,0.0,0.0,0.0,0.0,0.0,0.0,0.0,0.0,-3.0809,-3.2153,-3.344,-3.4593,-3.4041,-3.4048,-3.4685,-3.712,-3.8453,-3.8748,-4.0672,-4.0277,-3.7892,-3.5721,-3.4756,-3.4759,-3.4892,-3.4546,-3.4003,-3.5255,0.0,0.0,0.0,0.0,0.0,0.0,0.0,0.0,-3.6897,-3.7787,-3.8734,-3.8227,0.0,0.0,0.0,0.0,0.0,-3.853,-3.9129,-3.9239,-3.9265,-3.9676,-3.9752,-3.8456,0.0,0.0,0.0,0.0,0.0,0.0,0.0,0.0,0.0,0.0,0.0,0.0,0.0,0.0,0.0,0.0,0.0,0.0,0.0,0.0,0.0,0.0,0.0,0.0,0.0,0.0,-5.9428,-5.8321,-5.7723,-5.7723,-5.9279,-5.9817,-5.9249,-5.7902,-5.6915,-5.6256,-5.497,-5.4311,0.0,0.0,-5.3174,-5.3174,-5.3174,-5.2845,-5.2336,-5.2336,-5.2336,-5.2336,-5.2336,-5.2695,-5.3084,0.0,0.0,0.0,0.0,0.0,0.0,0.0,0.0,0.0,0.0,0.0,0.0,0.0,0.0,0.0,0.0,0.0,0.0,0.0,0.0,0.0,-3.0013,-3.1308,-3.2634,-3.3975,-3.3689,-3.4216,-3.5581,-3.6538,-3.759,-3.8709,-3.9056,-3.828,-3.6589,-3.4818,-3.4066,-3.4046,-3.4046,-3.4071,-3.417,0.0,0.0,0.0,0.0,0.0,0.0,0.0,0.0,0.0,0.0,-3.6663,-3.711,-3.6386,0.0,0.0,0.0,0.0,0.0,-3.6521,-3.7243,-3.7712,-3.7221,-3.8243,-3.9079,-3.7989,0.0,0.0,0.0,0.0,0.0,0.0,0.0,0.0,0.0,0.0,0.0,0.0,0.0,0.0,0.0,0.0,0.0,0.0,0.0,0.0,0.0,0.0,0.0,0.0,0.0,0.0,0.0,-5.7423,-5.7094,-5.7094,-5.8022,-5.8321,-5.8022,-5.7064,-5.6256,-5.5598,-5.4251,-5.3473,-5.3084,0.0,-5.1917,-5.1618,-5.1977,-5.1738,-5.1169,-5.1528,-5.1678,-5.1678,-5.1678,-5.1858,-5.2067,0.0,0.0,0.0,0.0,0.0,0.0,0.0,0.0,0.0,0.0,0.0,0.0,0.0,0.0,0.0,0.0,0.0,0.0,0.0,0.0,-2.9621,-2.9621,-3.0793,-3.213,-3.3466,-3.3343,-3.4172,-3.6014,-3.584,-3.6569,-3.8138,-3.7213,-3.6181,-3.5117,-3.3909,-3.3367,-3.3365,-3.3365,-3.354,-3.3896,0.0,0.0,0.0,0.0,0.0,0.0,0.0,0.0,0.0,0.0,0.0,0.0,0.0,0.0,0.0,-3.4084,-3.4181,-3.4777,-3.4723,-3.5386,-3.6029,-3.5694,0.0,-3.8212,-3.7924,0.0,0.0,0.0,0.0,0.0,0.0,0.0,0.0,0.0,0.0,0.0,0.0,0.0,0.0,0.0,0.0,0.0,0.0,0.0,0.0,0.0,0.0,0.0,0.0,0.0,0.0,0.0,-5.6256,-5.6166,-5.6166,-5.6166,-5.6406,-5.6885,-5.6406,-5.5748,-5.491,-5.3713,-5.2815,-5.2157,-5.1349,-5.0644,-5.0226,-5.0734,-5.0644,-5.0255,-5.096,-5.1229,-5.1229,-5.1229,-5.1229,-5.1199,0.0,0.0,0.0,0.0,0.0,0.0,0.0,0.0,0.0,0.0,0.0,0.0,0.0,0.0,0.0,0.0,0.0,0.0,0.0,0.0,-2.9621,-2.9621,-3.0793,-3.2138,-3.3486,-3.2886,-3.3276,-3.4626,-3.5821,-3.651,-3.667,-3.6553,-3.552,-3.3624,-3.2907,-3.2599,-3.2652,-3.2652,-3.2299,-3.1853,-3.3156,0.0,0.0,0.0,0.0,0.0,0.0,0.0,0.0,0.0,0.0,0.0,0.0,0.0,-3.3897,-3.3666,-3.2769,-3.2237,-3.4175,-3.4234,-3.4031,-3.5304,-3.6287,0.0,-3.8133,-3.8786,0.0,-4.0846,0.0,0.0,0.0,0.0,0.0,0.0,0.0,0.0,0.0,0.0,0.0,0.0,0.0,0.0,0.0,0.0,0.0,0.0,0.0,0.0,0.0,0.0,0.0,0.0,0.0,-5.3473,-5.3473,-5.3473,-5.4401,-5.6226,-5.6248,-5.5508,-5.4251,-5.3503,-5.2815,-5.2127,-5.0823,-5.0226,-5.0196,-5.0255,-5.0226,-5.0255,-5.096,-5.1229,-5.1229,-5.1229,-5.1229,-5.1139,0.0,0.0,0.0,0.0,0.0,0.0,0.0,0.0,0.0,0.0,0.0,0.0,0.0,0.0,0.0,0.0,0.0,0.0,0.0,-2.8483,-2.9146,-2.9592,-3.0432,-3.1509,-3.2856,-3.2647,-3.3365,-3.513,-3.5639,-3.6088,-3.6447,-3.4801,-3.3848,-3.3455,-3.2375,-3.1894,-3.1938,-3.1938,-3.2023,-3.2216,-3.2761,-3.3082,0.0,0.0,0.0,0.0,0.0,0.0,0.0,0.0,-3.3146,-3.3187,0.0,0.0,-3.2874,-3.2428,-3.1908,-3.1685,-3.2494,-3.309,-3.3636,-3.4152,0.0,0.0,0.0,0.0,-4.0995,-4.2312,0.0,0.0,0.0,0.0,0.0,0.0,0.0,0.0,0.0,0.0,0.0,0.0,0.0,0.0,0.0,0.0,0.0,0.0,0.0,0.0,0.0,0.0,0.0,0.0,0.0,-5.3174,-5.3174,-5.3174,-5.3563,-5.4311,-5.4311,-5.3832,-5.2935,-5.2276,-5.1588,-5.093,-5.0032,-4.9404,-4.9075,-4.9867,-4.9717,-4.9134,-5.0136,-5.0823,-5.1229,-5.1229,-5.096,-5.0524,0.0,0.0,0.0,0.0,0.0,0.0,0.0,0.0,0.0,0.0,0.0,0.0,0.0,0.0,0.0,0.0,0.0,0.0,-2.7585,-2.8244,-2.8786,-2.9235,-3.0073,-3.0941,-3.1869,-3.2079,-3.3065,-3.4861,-3.4861,-3.5011,-3.519,-3.3574,-3.2946,-3.3155,-3.2228,-3.1809,-3.1809,-3.16,-3.1796,-3.2244,-3.2244,-3.2516,0.0,0.0,0.0,0.0,0.0,0.0,0.0,0.0,-3.2241,0.0,0.0,0.0,0.0,0.0,-3.1511,-3.1511,-3.1511,-3.2168,-3.2976,0.0,0.0,0.0,0.0,0.0,0.0,0.0,0.0,0.0,0.0,0.0,0.0,0.0,0.0,0.0,0.0,0.0,0.0,0.0,0.0,0.0,0.0,0.0,0.0,0.0,0.0,0.0,0.0,0.0,0.0,0.0,0.0,0.0,-5.2247,-5.2456,-5.2456,-5.2247,-5.2247,-5.2127,-5.1858,-5.1199,-5.0541,-4.9883,-4.9254,-4.8686,-4.8356,-4.9254,-4.9224,-4.8686,-4.9583,-5.0212,-5.0601,-5.0601,-5.0331,-4.9912,0.0,0.0,0.0,0.0,0.0,0.0,0.0,0.0,0.0,0.0,0.0,0.0,0.0,0.0,0.0,0.0,0.0,0.0,-2.7585,-2.8218,-2.8577,-2.8607,-2.9804,-3.0492,-3.0492,-3.1152,-3.2138,-3.3484,-3.3484,-3.3155,-3.2497,-3.3185,-3.3155,-3.2527,-3.2527,-3.2527,-3.2437,-3.178,-3.1511,-3.1511,-3.1511,-3.1511,-3.1511,0.0,0.0,0.0,0.0,0.0,0.0,0.0,-3.1511,-3.1511,0.0,0.0,0.0,0.0,-3.1511,-3.1511,-3.1511,-3.1511,0.0,0.0,0.0,0.0,0.0,0.0,0.0,0.0,0.0,0.0,0.0,0.0,0.0,0.0,0.0,0.0,0.0,0.0,0.0,0.0,0.0,0.0,0.0,0.0,0.0,0.0,0.0,0.0,0.0,0.0,0.0,0.0,0.0,0.0,-5.0196,-5.0823,-5.0823,-5.0196,-5.0166,-5.0524,-5.1169,-5.0465,-4.9883,-4.9269,-4.8566,-4.8267,-4.8267,-4.8267,-4.87,-4.9299,-4.9299,-4.9299,-4.9299,-4.9299,-4.9299,-4.9209,0.0,0.0,0.0,0.0,0.0,0.0,0.0,0.0,0.0,0.0,0.0,0.0,0.0,0.0,0.0,0.0,0.0,0.0,-2.7585,-2.7794,-2.8124,-2.8577,-2.8966,-2.9594,-3.0492,-3.0702,-3.1451,-3.2796,-3.2796,-3.2946,-3.3215,-3.2916,-3.2706,-3.2527,-3.2527,-3.2228,-3.178,-3.16,-3.1511,-3.154,-3.2019,-3.1929,-3.154,0.0,0.0,0.0,0.0,0.0,0.0,0.0,0.0,0.0,0.0,0.0,0.0,0.0,-3.1511,-3.1511,-3.1511,0.0,0.0,0.0,0.0,0.0,0.0,0.0,0.0,0.0,0.0,0.0,0.0,0.0,0.0,0.0,0.0,0.0,0.0,0.0,0.0,0.0,0.0,0.0,0.0,0.0,0.0,0.0,0.0,0.0,0.0,0.0,0.0,0.0,0.0,0.0,-4.9553,-4.9733,-4.9733,-4.9553,-4.9075,-4.9194,-4.9823,-4.9164,-4.8775,-4.8536,-4.7878,-4.7608,-4.7608,-4.7608,-4.8267,-4.9269,-4.879,-4.8865,-4.9299,-4.9299,-4.903,-4.8536,0.0,0.0,0.0,0.0,0.0,0.0,0.0,0.0,0.0,0.0,0.0,0.0,0.0,0.0,0.0,0.0,0.0,0.0,0.0,-2.7585,-2.7794,-2.8188,-2.8457,-2.9205,-3.0462,-3.0492,-3.0911,-3.1719,-3.1719,-3.1928,-3.2317,-3.2706,-3.2916,-3.2916,-3.3185,-3.2916,-3.2258,-3.2019,-3.1899,-3.1929,-3.2318,-3.2258,-3.1929,0.0,0.0,0.0,0.0,0.0,0.0,0.0,0.0,0.0,0.0,0.0,0.0,-3.1421,-3.1301,-3.1152,-3.1421,0.0,0.0,0.0,0.0,0.0,0.0,0.0,0.0,0.0,0.0,0.0,0.0,0.0,0.0,0.0,0.0,0.0,0.0,0.0,0.0,0.0,0.0,0.0,0.0,0.0,0.0,0.0,0.0,0.0,0.0,0.0,0.0,0.0,0.0,0.0,-4.894,-4.9179,-4.9179,-4.891,-4.8476,-4.8356,-4.8476,-4.8087,-4.7908,-4.7878,-4.7489,-4.7309,-4.7309,-4.7309,-4.7788,-4.8446,-4.8057,-4.8147,-4.8476,-4.8476,-4.8237,-4.7908,0.0,0.0,0.0,0.0,0.0,0.0,0.0,0.0,0.0,0.0,-2.4186,0.0,0.0,0.0,0.0,0.0,0.0,0.0,0.0,0.0,-2.7585,-2.7585,-2.8218,-2.9175,-3.0402,-3.0372,-3.0372,-3.0432,-3.0462,-3.0492,-3.0552,-3.2557,-3.3425,-3.3335,-3.4053,-3.3993,-3.3275,-3.2677,-3.2407,-3.2407,-3.2497,-3.2437,-3.2437,-3.2497,0.0,0.0,0.0,0.0,0.0,0.0,0.0,0.0,0.0,0.0,0.0,-3.1301,-3.1032,-3.0672,0.0,0.0,0.0,0.0,0.0,0.0,0.0,0.0,0.0,0.0,0.0,0.0,0.0,0.0,0.0,0.0,0.0,0.0,0.0,0.0,0.0,0.0,0.0,0.0,0.0,0.0,0.0,0.0,0.0,0.0,0.0,0.0,0.0,0.0,0.0,0.0,-4.8117,-4.8686,-4.8686,0.0,-4.8177,-4.7878,-4.7309,-4.7309,-4.7309,-4.7309,-4.7309,-4.7309,-4.7309,-4.7309,-4.7309,-4.7309,-4.7309,-4.7309,-4.7309,-4.7309,-4.7309,-4.7309,0.0,0.0,0.0,0.0,0.0,0.0,0.0,0.0,0.0,0.0,0.0,0.0,0.0,0.0,0.0,0.0,0.0,0.0,0.0,0.0,-2.7585,-2.7585,-2.8218,-2.8966,-2.9801,-2.9265,-2.9265,-2.9774,-3.0253,-3.0492,-3.0552,-3.2557,-3.2946,-3.1989,-3.3185,-3.3066,-3.1929,-3.178,-3.172,-3.175,-3.2288,-3.2168,-3.178,-3.2288,-3.2079,0.0,0.0,0.0,0.0,0.0,0.0,0.0,-3.1511,-3.1032,-3.0642,-3.1301,-3.1032,0.0,0.0,0.0,0.0,0.0,0.0,0.0,0.0,0.0,0.0,0.0,0.0,0.0,0.0,0.0,0.0,0.0,0.0,0.0,0.0,0.0,0.0,0.0,0.0,0.0,0.0,0.0,0.0,0.0,0.0,0.0,0.0,0.0,0.0,0.0,0.0,-4.6352,-4.6741,-4.689,-4.689,0.0,-4.7279,-4.7429,-4.7309,-4.7309,-4.7309,-4.7309,-4.7309,-4.7309,-4.7309,-4.7309,-4.7309,-4.7309,-4.7309,-4.7309,-4.7309,-4.7309,-4.7309,-4.7309,0.0,0.0,0.0,0.0,0.0,0.0,0.0,0.0,0.0,0.0,0.0,0.0,0.0,0.0,0.0,0.0,0.0,0.0,0.0,0.0,-2.7585,-2.7585,-2.8218,-2.8757,-2.9116,-2.8786,-2.8757,-2.9116,-2.9744,-3.0223,-3.0552,-3.2228,-3.3006,-3.2976,-3.3664,-3.3395,-3.2467,-3.2108,-3.1959,-3.2019,-3.2348,-3.2288,-3.2019,-3.2377,-3.2079,-3.1511,-3.1511,0.0,0.0,0.0,0.0,0.0,0.0,0.0,-3.0582,-3.0913,-3.0763,-3.0642,0.0,0.0,0.0,0.0,0.0,0.0,0.0,0.0,0.0,0.0,0.0,0.0,0.0,0.0,0.0,0.0,0.0,0.0,0.0,0.0,0.0,0.0,0.0,0.0,0.0,0.0,0.0,0.0,0.0,0.0,0.0,0.0,0.0,0.0,-4.5663,-4.5454,-4.5843,-4.5843,-4.5843,-4.5843,-4.6172,-4.6352,-4.6352,-4.701,-4.7309,-4.7309,-4.7309,-4.7309,-4.7309,-4.7309,-4.7309,-4.7309,-4.7309,-4.7309,-4.7309,-4.7309,-4.7309,-4.7309,0.0,0.0,0.0,0.0,0.0,0.0,0.0,0.0,0.0,0.0,0.0,0.0,0.0,0.0,0.0,0.0,0.0,0.0,0.0,0.0,0.0,-2.7585,-2.8128,-2.8487,-2.8607,-2.8487,-2.8487,-2.8607,-2.9172,0.0,0.0,-3.2108,-3.3215,-3.4174,-3.4294,-3.3873,-3.3125,-3.2587,-3.2318,-3.2318,-3.2318,-3.2318,-3.2318,-3.2318,-3.1989,-3.1511,-3.1511,-3.1511,-3.1511,-3.1511,0.0,0.0,0.0,0.0,-3.0372,-3.0462,-3.0342,-3.0253,0.0,0.0,0.0,0.0,0.0,0.0,0.0,0.0,0.0,0.0,0.0,0.0,0.0,0.0,0.0,0.0,0.0,0.0,0.0,0.0,0.0,0.0,0.0,0.0,0.0,0.0,0.0,0.0,0.0,0.0,0.0,0.0,-4.5005,-4.5125,-4.4915,-4.4855,-4.4945,-4.5065,-4.5125,-4.5125,-4.5244,-4.5304,-4.5334,-4.6441,-4.695,-4.695,-4.71,-4.713,-4.716,-4.7249,-4.7309,-4.7309,-4.7309,-4.7309,-4.7309,-4.7309,-4.7309,-4.7309,0.0,0.0,0.0,0.0,0.0,0.0,0.0,0.0,0.0,0.0,0.0,0.0,0.0,0.0,0.0,0.0,0.0,0.0,0.0,0.0,0.0,-2.7585,-2.7675,-2.8004,-2.8577,-2.8034,-2.8034,-2.8607,0.0,0.0,0.0,0.0,0.0,-3.2796,-3.3365,-3.2946,-3.175,-3.166,-3.163,-3.163,-3.163,-3.163,-3.163,-3.163,-3.157,-3.1511,-3.1511,-3.1511,-3.1511,-3.1511,-3.1511,0.0,0.0,0.0,-2.9804,-3.0342,-2.9714,0.0,0.0,0.0,0.0,0.0,0.0,0.0,0.0,0.0,0.0,0.0,0.0,0.0,0.0,0.0,0.0,0.0,0.0,0.0,0.0,0.0,0.0,0.0,0.0,0.0,0.0,0.0,0.0,0.0,0.0,0.0,0.0,-4.4227,-4.3828,-4.4436,-4.3329,-4.303,-4.3559,-4.4167,-4.4436,-4.4436,-4.5035,-4.5304,-4.5304,-4.5484,-4.5574,-4.5603,-4.6202,-4.6399,-4.6501,-4.707,-4.7309,-4.7309,-4.7309,-4.7309,-4.7309,-4.7309,-4.7309,-4.7309,0.0,0.0,0.0,0.0,0.0,0.0,0.0,0.0,0.0,0.0,0.0,0.0,0.0,0.0,0.0,0.0,0.0,0.0,0.0,0.0,0.0,-2.7585,-2.7585,-2.7735,-2.8034,-2.7764,-2.7735,-2.8064,0.0,0.0,0.0,-3.3395,-3.4472,0.0,0.0,0.0,-3.3125,0.0,0.0,-3.1511,-3.1511,-3.1511,-3.1511,-3.1511,-3.1511,-3.1511,-3.1511,-3.1511,-3.1511,-3.1511,-3.1511,-3.1511,-3.1511,0.0,0.0,0.0,-2.9834,0.0,0.0,0.0,0.0,0.0,0.0,0.0,0.0,0.0,0.0,0.0,0.0,0.0,0.0,0.0,0.0,0.0,0.0,0.0,0.0,0.0,0.0,0.0,0.0,0.0,0.0,0.0,0.0,0.0,0.0,0.0,-4.309,-4.2551,-4.2372,-4.2671,-4.2141,-4.1953,-4.2222,-4.2521,-4.2851,-4.321,-4.3509,-4.3838,-4.4197,-4.4197,-4.4586,-4.5304,-4.5603,-4.5963,-4.6309,-4.6621,-4.698,-4.7309,-4.7309,-4.7309,-4.7309,-4.7309,-4.7309,-4.7309,0.0,0.0,0.0,0.0,0.0,0.0,0.0,0.0,0.0,0.0,0.0,0.0,0.0,0.0,0.0,0.0,0.0,0.0,0.0,0.0,0.0,-2.7585,-2.7585,-2.7585,-2.7585,-2.7585,-2.7585,0.0,0.0,0.0,-3.178,-3.3275,-3.519,0.0,-3.5699,-3.4653,0.0,0.0,0.0,0.0,-3.157,-3.1511,-3.1511,-3.1511,-3.1511,-3.1511,-3.1511,-3.1511,-3.1511,-3.1511,-3.1511,-3.1511,-3.1511,-3.1391,0.0,0.0,0.0,0.0,0.0,0.0,0.0,0.0,0.0,0.0,0.0,0.0,0.0,0.0,0.0,0.0,0.0,0.0,0.0,0.0,0.0,0.0,0.0,0.0,0.0,0.0,0.0,0.0,0.0,0.0,0.0,0.0,0.0,0.0,-4.1422,-4.1055,-4.0876,-4.0876,-4.0726,-4.0643,-4.0643,-4.0965,-4.1422,-4.1901,-4.2081,-4.2372,-4.2851,-4.3,-4.3629,-4.4556,-4.4915,-4.5334,-4.5771,-4.5992,-4.6352,-4.68,-4.68,-4.689,-4.707,-4.707,-4.716,-4.7309,0.0,0.0,0.0,0.0,0.0,0.0,0.0,0.0,0.0,0.0,0.0,0.0,-2.364,-2.4837,-2.5615,-2.5644,-2.6866,-2.7585,-2.7585,-2.7585,-2.7585,-2.7585,-2.7585,0.0,-2.7585,-2.7585,-2.7585,0.0,0.0,0.0,-3.2437,-3.2557,-3.4322,-3.7375,-3.6686,-3.4981,-3.2647,0.0,0.0,0.0,0.0,-3.1511,-3.1511,-3.1511,-3.1511,-3.1511,-3.1511,-3.1511,-3.1511,-3.1511,-3.1511,-3.1511,-3.1511,-3.1062,-3.0432,0.0,0.0,0.0,0.0,0.0,0.0,0.0,0.0,0.0,0.0,0.0,0.0,0.0,0.0,0.0,0.0,0.0,0.0,0.0,0.0,0.0,0.0,0.0,0.0,0.0,0.0,0.0,0.0,0.0,0.0,0.0,0.0,0.0,-4.1422,-4.0187,-3.9529,-3.9529,-3.8901,-3.8542,-3.8542,-3.9828,-4.0457,-4.0516,-4.1145,-4.1444,-4.1504,-4.2171,-4.25,-4.262,-4.3838,-4.4377,-4.4466,-4.5095,-4.5364,-4.5394,-4.5394,-4.5813,-4.6339,-4.6339,-4.677,-4.7309,0.0,0.0,0.0,0.0,0.0,0.0,0.0,0.0,0.0,0.0,0.0,0.0,0.0,-2.4395,-2.5143,-2.5585,-2.6836,-2.7585,-2.7585,-2.7585,-2.7585,-2.7585,-2.7585,-2.7585,-2.7585,-2.7585,0.0,0.0,0.0,-2.9295,-3.0672,-3.1928,-3.2886,-3.3633,-3.4292,-3.4262,-3.3694,-3.2677,0.0,0.0,0.0,0.0,-3.1511,-3.1511,0.0,0.0,0.0,0.0,0.0,-3.1511,-3.1511,-3.1511,-3.1511,-3.1032,-3.0313,-2.9265,-2.8457,0.0,0.0,0.0,0.0,0.0,0.0,0.0,0.0,0.0,0.0,0.0,0.0,0.0,0.0,0.0,0.0,0.0,0.0,0.0,0.0,0.0,0.0,0.0,0.0,0.0,0.0,0.0,0.0,0.0,0.0,0.0,-3.8841,-3.8392,-3.8123,-3.8123,-3.7883,-3.7764,-3.7764,-3.8242,-3.8901,-3.9768,-4.0008,-4.0576,-4.1384,-4.1662,-4.1782,-4.1811,-4.271,-4.3539,-4.4317,-4.4556,-4.4915,-4.5304,-4.5304,-4.5454,-4.5723,-4.613,-4.6429,-4.6741,0.0,0.0,0.0,0.0,0.0,0.0,0.0,0.0,0.0,-2.361,0.0,0.0,0.0,0.0,-2.5292,-2.6183,-2.7106,-2.7585,-2.7585,-2.7585,-2.7585,-2.7585,-2.7585,-2.7585,-2.7585,-2.7585,0.0,0.0,0.0,0.0,0.0,-3.0702,-3.1301,-3.154,-3.2198,-3.2976,0.0,0.0,0.0,-3.1809,0.0,0.0,-3.1869,0.0,0.0,0.0,0.0,0.0,0.0,0.0,0.0,0.0,-3.1511,-3.0883,-2.9983,-2.8906,-2.8154,0.0,0.0,0.0,0.0,0.0,0.0,0.0,0.0,0.0,0.0,0.0,0.0,0.0,0.0,0.0,0.0,0.0,0.0,0.0,0.0,0.0,0.0,0.0,0.0,0.0,0.0,0.0,0.0,0.0,0.0,0.0,-3.7404,-3.7225,-3.6985,-3.6776,-3.6776,-3.6776,-3.6776,-3.6985,-3.7554,-3.8452,-3.8871,-3.9529,-4.0434,-4.0846,-4.1055,-4.1085,-4.1782,-4.268,-4.3688,-4.3898,-4.4257,-4.4646,-4.4646,-4.4766,-4.5035,-4.5484,-4.5891,-4.6339,0.0,0.0,0.0,0.0,0.0,0.0,0.0,0.0,-2.361,-2.361,0.0,0.0,0.0,0.0,0.0,-2.7465,-2.7585,-2.7585,-2.7585,-2.7585,-2.7585,-2.7585,-2.7585,-2.7585,-2.7585,-2.7585,-2.7585,0.0,0.0,0.0,0.0,0.0,-2.9624,-3.1391,-3.0761,-3.121,-3.2467,0.0,-3.3095,-3.2467,0.0,-3.1899,-3.2617,0.0,0.0,0.0,-3.3484,-3.3095,0.0,-3.175,0.0,0.0,0.0,0.0,-2.9472,-2.8757,-2.8124,0.0,0.0,0.0,0.0,0.0,0.0,0.0,0.0,0.0,0.0,0.0,0.0,0.0,0.0,0.0,0.0,0.0,0.0,0.0,0.0,0.0,0.0,0.0,0.0,0.0,0.0,0.0,0.0,0.0,0.0,-3.7345,-3.7345,-3.6776,-3.6178,-3.5519,-3.5519,-3.5519,-3.5519,-3.6148,-3.6477,-3.6507,-3.7734,-3.8362,-3.8422,-3.9738,-4.0337,-4.0397,-4.1055,-4.1752,-4.241,-4.303,-4.326,-4.326,-4.329,-4.3678,-4.4287,-4.4317,-4.5125,-4.6219,0.0,0.0,0.0,0.0,0.0,0.0,-2.355,-2.361,-2.361,0.0,0.0,0.0,-2.4575,-2.5621,-2.6452,-2.6841,-2.7315,-2.7585,-2.7585,-2.7585,-2.7585,-2.7585,-2.7585,-2.7585,-2.7585,-2.7585,0.0,0.0,0.0,0.0,0.0,0.0,0.0,0.0,-2.9714,-3.0043,-3.0462,-3.157,0.0,0.0,-3.178,-3.2168,0.0,0.0,0.0,0.0,0.0,-3.3365,-3.3125,0.0,-3.2198,-3.1959,0.0,0.0,-2.9382,0.0,0.0,0.0,-2.7585,0.0,0.0,0.0,0.0,0.0,0.0,0.0,0.0,0.0,0.0,0.0,0.0,0.0,0.0,0.0,0.0,0.0,0.0,0.0,0.0,0.0,0.0,0.0,0.0,0.0,0.0,0.0,-3.6028,-3.6028,-3.6028,-3.5878,-3.5699,-3.5519,-3.5519,-3.5519,-3.5519,-3.5699,-3.6028,-3.6477,-3.6836,-3.7494,-3.8392,-3.8781,-3.923,-3.9738,-4.0397,-4.1055,-4.1752,-4.241,-4.2641,-4.2671,-4.315,-4.3409,-4.3618,-4.4137,-4.4556,-4.4945,0.0,0.0,0.0,0.0,0.0,0.0,-2.361,-2.3849,-2.3939,0.0,0.0,0.0,-2.5352,-2.6363,-2.7016,-2.7016,-2.7375,-2.7585,-2.7585,-2.7585,-2.7585,-2.7585,-2.7585,-2.7585,-2.7585,-2.7585,0.0,0.0,0.0,0.0,0.0,0.0,0.0,0.0,0.0,0.0,0.0,0.0,0.0,0.0,-3.154,0.0,0.0,-3.3365,-3.3754,0.0,0.0,0.0,-3.3754,-3.2826,-3.2288,0.0,0.0,0.0,0.0,0.0,0.0,0.0,-2.8034,-2.7824,0.0,0.0,0.0,0.0,0.0,0.0,0.0,0.0,0.0,0.0,0.0,0.0,0.0,0.0,0.0,0.0,0.0,0.0,0.0,0.0,0.0,0.0,0.0,0.0,0.0,0.0,-3.507,-3.519,-3.5489,-3.5519,-3.5519,-3.5519,-3.5519,-3.5519,-3.5519,-3.5519,-3.5699,-3.6088,-3.6357,-3.6866,-3.7614,-3.8153,-3.8601,-3.902,-3.9709,-4.0367,-4.1025,-4.1722,-4.2321,-4.2791,-4.314,-4.329,-4.3349,-4.3738,-4.4077,-4.4377,0.0,0.0,0.0,0.0,0.0,0.0,0.0,-2.4156,-2.4335,0.0,-2.4395,-2.5292,-2.6572,-2.7255,-2.7585,-2.7585,-2.7585,-2.7585,-2.7585,-2.7585,-2.7585,-2.7585,-2.7585,-2.7585,-2.7585,-2.7585,0.0,0.0,0.0,0.0,0.0,0.0,0.0,0.0,0.0,0.0,0.0,0.0,0.0,-3.0462,-3.1122,-3.2258,0.0,0.0,-3.4831,0.0,-3.5519,-3.513,-3.4414,-3.3066,-3.2108,0.0,0.0,0.0,0.0,0.0,-2.8697,0.0,-2.8697,-2.8304,-2.7944,0.0,0.0,0.0,-2.7645,-2.7705,-2.7944,0.0,0.0,0.0,0.0,0.0,0.0,0.0,0.0,0.0,0.0,0.0,0.0,0.0,0.0,0.0,0.0,0.0,-3.3634,-3.4234,-3.4354,-3.4651,-3.525,-3.528,-3.531,-3.54,-3.54,-3.5429,-3.5519,-3.5519,-3.5519,-3.5519,-3.6088,-3.6417,-3.6537,-3.7734,-3.8332,-3.8422,-3.911,-3.9798,-4.0457,-4.1115,-4.2102,-4.32,-4.326,-4.329,-4.329,-4.329,-4.3678,-4.4197,-2.0658,0.0,0.0,0.0,0.0,0.0,0.0,-2.4059,-2.4148,-2.5106,-2.5794,-2.6512,-2.7315,-2.7525,-2.7585,-2.7585,-2.7585,-2.7585,-2.7585,-2.7585,-2.7585,-2.7585,-2.7585,-2.7585,-2.7585,-2.7585,0.0,0.0,0.0,0.0,0.0,0.0,0.0,0.0,0.0,0.0,0.0,0.0,0.0,-2.9831,-3.0462,0.0,-3.4264,-3.3844,-3.4442,-3.5519,-3.5519,-3.5429,-3.51,0.0,-3.2527,-3.1391,0.0,0.0,0.0,0.0,0.0,0.0,0.0,0.0,0.0,0.0,0.0,0.0,-2.7974,-2.8423,-2.8933,0.0,0.0,0.0,0.0,0.0,0.0,0.0,0.0,0.0,0.0,0.0,0.0,0.0,0.0,0.0,0.0,0.0,-3.2766,-3.2886,-3.3395,-3.3754,-3.3873,-3.3873,-3.4143,-3.4683,-3.4713,-3.4951,-3.5489,-3.5519,-3.5519,-3.5519,-3.5639,-3.5968,-3.6507,-3.7255,-3.7883,-3.8422,-3.911,-3.9798,-4.0457,-4.1115,-4.1833,-4.265,-4.312,-4.329,-4.329,-4.329,-4.3379,-4.3499,-2.1575,0.0,0.0,0.0,0.0,0.0,0.0,0.0,-2.5226,-2.5555,-2.6183,-2.6866,-2.7525,-2.7585,-2.7585,-2.7585,-2.7585,-2.7585,-2.7585,-2.7585,-2.7585,-2.7585,-2.7585,-2.7585,-2.7585,-2.7585,-2.7585,0.0,0.0,0.0,0.0,0.0,0.0,0.0,0.0,0.0,0.0,0.0,-2.8487,-2.9175,-3.0133,0.0,-3.3455,-3.3125,-3.3634,-3.4502,-3.4502,-3.4292,-3.3903,-3.3245,-3.2318,0.0,0.0,-3.1002,-3.0853,0.0,-3.0043,-3.0043,0.0,0.0,0.0,-2.9983,0.0,0.0,0.0,-2.8603,0.0,0.0,0.0,0.0,0.0,0.0,0.0,0.0,0.0,0.0,0.0,0.0,0.0,0.0,0.0,0.0,0.0,0.0,-3.1779,-3.2437,-3.3125,-3.3484,-3.3484,-3.3484,-3.3634,-3.3963,-3.4324,-3.4683,-3.4981,-3.534,-3.5519,-3.5519,-3.5519,-3.5669,-3.6028,-3.6656,-3.7285,-3.7943,-3.8601,-3.9469,-4.0427,-4.0756,-4.1294,-4.2021,-4.294,-4.329,-4.329,-4.329,-4.329,-4.329,-2.2493,0.0,0.0,0.0,0.0,0.0,0.0,0.0,-2.6123,-2.5824,-2.6363,-2.7046,-2.7735,-2.7675,-2.7735,-2.8124,-2.7824,-2.7705,-2.7974,-2.7735,-2.7585,-2.7585,-2.7585,-2.7585,-2.7585,-2.7585,-2.7585,0.0,0.0,0.0,0.0,0.0,0.0,0.0,0.0,0.0,0.0,0.0,0.0,-2.8876,0.0,-3.112,-3.2318,-3.2437,-3.2916,-3.3484,-3.3484,-3.3066,-3.2527,-3.2527,0.0,-3.1511,-3.1511,-3.1511,0.0,0.0,0.0,0.0,0.0,0.0,0.0,0.0,0.0,-2.9355,0.0,0.0,0.0,0.0,0.0,0.0,0.0,0.0,0.0,0.0,0.0,0.0,0.0,0.0,0.0,0.0,0.0,0.0,0.0,0.0,-3.0702,-3.1989,-3.2617,-3.2976,-3.3125,-3.3125,-3.3185,-3.3305,-3.3933,-3.4384,-3.4503,-3.516,-3.5519,-3.5519,-3.5519,-3.5519,-3.5519,-3.6178,-3.6776,-3.7285,-3.8063,-3.899,-4.0038,-4.0277,-4.0726,-4.1294,-4.2491,-4.2991,-4.315,-4.315,-4.32,-4.329,-2.2673,-2.3152,0.0,0.0,0.0,0.0,0.0,0.0,-2.5232,-2.6333,-2.7076,-2.7735,-2.8397,-2.7974,-2.8304,-3.0013,-2.8603,0.0,-2.9292,0.0,-2.7585,-2.7585,-2.7585,-2.7585,-2.7585,-2.7585,-2.7585,0.0,0.0,0.0,0.0,0.0,0.0,0.0,-2.7585,0.0,0.0,0.0,-2.8334,0.0,-2.9651,-3.0462,0.0,-3.2258,-3.2916,-3.3484,-3.3484,-3.3066,-3.2527,0.0,-3.2049,-3.1511,0.0,-3.1511,0.0,0.0,0.0,0.0,0.0,0.0,0.0,0.0,-3.136,0.0,0.0,0.0,0.0,0.0,0.0,0.0,0.0,0.0,0.0,0.0,0.0,0.0,0.0,0.0,0.0,0.0,0.0,0.0,0.0,0.0,0.0,-3.0642,-3.0791,-3.112,-3.169,-3.172,-3.1989,-3.2587,-3.3275,-3.3873,-3.4503,-3.516,-3.5519,-3.5519,-3.5519,-3.5519,-3.5519,-3.6178,-3.6537,-3.6656,-3.7853,-3.8482,-3.8721,-3.9918,-4.0457,-4.0576,-4.1324,-4.1991,-4.25,-4.25,-4.2851,-4.329,-2.3152,-2.343,0.0,0.0,0.0,0.0,0.0,0.0,-2.6542,-2.7106,-2.7739,-2.8427,0.0,0.0,0.0,0.0,0.0,-2.8843,0.0,0.0,-2.7585,-2.7585,0.0,0.0,-2.7585,-2.7585,-2.7585,-2.7585,-2.7585,0.0,0.0,0.0,0.0,0.0,-2.7585,0.0,-2.7585,0.0,0.0,0.0,0.0,0.0,0.0,-3.1361,-3.2079,-3.2318,-3.2318,-3.2138,-3.1929,0.0,-3.172,0.0,0.0,0.0,0.0,0.0,0.0,0.0,0.0,0.0,0.0,0.0,0.0,0.0,-2.9864,0.0,-2.8393,0.0,0.0,0.0,0.0,0.0,0.0,0.0,0.0,0.0,0.0,0.0,0.0,0.0,0.0,0.0,0.0,0.0,0.0,0.0,0.0,-3.0642,-3.0883,-3.1301,-3.163,-3.1899,-3.2557,-3.3245,-3.3903,-3.4562,-3.51,-3.5519,-3.5519,-3.5519,-3.5519,-3.5789,-3.6118,-3.6507,-3.7045,-3.7704,-3.8422,-3.899,-3.9469,-3.9858,-4.0127,-4.0876,-4.1871,-4.2261,-4.256,-4.2821,-2.352,0.0,0.0,0.0,0.0,0.0,0.0,0.0,0.0,0.0,0.0,0.0,-2.9714,-2.9834,0.0,0.0,-3.0851,-3.0103,0.0,0.0,-2.7974,0.0,0.0,0.0,0.0,0.0,-2.7585,0.0,0.0,0.0,0.0,0.0,0.0,0.0,0.0,-2.7585,-2.7615,0.0,0.0,-2.8004,-2.9295,-2.9564,-2.9265,-3.0673,-3.1331,-3.1511,-3.1511,-3.1511,-3.1511,-3.1511,-3.1511,0.0,-3.1511,0.0,0.0,0.0,0.0,0.0,-3.0552,0.0,0.0,0.0,0.0,0.0,0.0,0.0,0.0,0.0,0.0,0.0,0.0,0.0,0.0,0.0,0.0,0.0,0.0,0.0,0.0,0.0,0.0,0.0,0.0,0.0,0.0,0.0,-2.9894,0.0,-3.0492,-3.1122,-3.1511,-3.1511,-3.2138,-3.2826,-3.3484,-3.4174,-3.4863,-3.5519,-3.5519,-3.5519,-3.5519,-3.5519,-3.5759,-3.6237,-3.6417,-3.7105,-3.8123,-3.8302,-3.8811,-3.9373,-3.9373,-4.0008,-4.0935,-4.1602,-4.1961,-4.2201,-2.361,-2.361,0.0,0.0,0.0,0.0,0.0,0.0,0.0,0.0,0.0,0.0,0.0,0.0,0.0,0.0,0.0,-3.2108,-3.1451,0.0,-2.8963,0.0,0.0,-2.7585,0.0,0.0,0.0,0.0,0.0,0.0,0.0,0.0,0.0,0.0,0.0,-2.7585,-2.7645,-2.8278,-2.8577,-2.8697,-2.9953,-3.0462,-3.0462,0.0,-3.0913,-3.1511,-3.1511,0.0,0.0,-3.1511,-3.1511,0.0,0.0,0.0,0.0,0.0,0.0,0.0,0.0,0.0,0.0,-3.169,0.0,0.0,0.0,0.0,-2.9894,0.0,0.0,0.0,0.0,0.0,-2.7375,-2.6692,-2.7136,0.0,0.0,0.0,0.0,0.0,0.0,0.0,0.0,0.0,0.0,-2.8577,-2.9235,-2.9864,-3.0462,-3.1122,-3.1511,-3.1511,-3.2138,-3.2826,-3.3484,-3.4174,-3.4863,-3.5519,-3.5519,-3.5519,-3.5519,-3.5519,-3.5519,-3.5579,-3.6207,-3.6836,-3.7494,-3.8123,-3.8811,-3.9373,-3.9373,-3.9439,-3.9559,-4.0217,-4.0876,-4.1414,0.0,0.0,0.0,0.0,0.0,0.0,0.0,-2.5974,0.0,0.0,0.0,0.0,0.0,0.0,-3.3215,0.0,0.0,-3.2886,-3.2198,-3.1331,0.0,0.0,0.0,-2.8906,0.0,0.0,0.0,0.0,0.0,0.0,0.0,0.0,0.0,0.0,0.0,-2.7585,0.0,0.0,0.0,0.0,0.0,-3.0283,-3.1689,0.0,0.0,-3.0283,-3.0702,-3.0851,0.0,-3.1361,-3.1511,-3.1511,-3.1511,-3.1182,-3.0791,-3.0582,-3.0372,0.0,0.0,0.0,-3.124,-3.1451,0.0,0.0,0.0,0.0,0.0,0.0,0.0,0.0,0.0,0.0,-2.7525,-2.7315,-2.7076,-2.7016,0.0,0.0,0.0,0.0,0.0,0.0,0.0,0.0,0.0,-2.7914,-2.8547,-2.9026,0.0,-3.0283,-3.0851,-3.0851,-3.1481,-3.2138,-3.2826,-3.3484,-3.4173,-3.4831,-3.528,-3.5519,-3.5519,-3.5519,-3.5519,-3.5519,-3.5729,-3.6207,-3.6806,-3.7045,-3.7764,-3.8751,-3.8751,-3.902,-3.9499,-4.0157,-4.0546,-4.0726,-2.361,0.0,0.0,0.0,0.0,0.0,0.0,0.0,0.0,0.0,-3.112,0.0,-3.522,0.0,-3.4891,0.0,-3.525,-3.4322,-3.2946,-3.2437,0.0,-3.0342,-3.0223,0.0,0.0,0.0,0.0,0.0,0.0,-2.7824,0.0,0.0,0.0,0.0,0.0,0.0,0.0,0.0,-2.8427,0.0,0.0,-2.9894,0.0,0.0,-2.9654,-3.0283,0.0,-3.0193,-3.0253,-3.0702,-3.0972,-3.1122,-3.1122,-3.1002,-3.0821,-3.0582,-3.0402,-3.0313,-3.0462,-3.0672,0.0,-3.1391,-3.1182,0.0,-3.0552,0.0,0.0,0.0,0.0,0.0,0.0,0.0,-2.7585,-2.7585,-2.7255,-2.7106,0.0,-2.7585,0.0,0.0,0.0,0.0,0.0,0.0,-2.7585,-2.7585,-2.8218,-2.8607,0.0,0.0,-3.0283,-3.0492,-3.0913,-3.157,-3.2497,-3.2946,-3.3604,-3.4503,-3.4921,-3.528,-3.5519,-3.5519,-3.5519,-3.5519,-3.5519,-3.5878,-3.6477,-3.6477,-3.7105,-3.8063,-3.8302,-3.8661,-3.914,-3.9798,-4.0038,-4.0038,0.0,0.0,0.0,0.0,-2.4216,0.0,0.0,0.0,-2.9804,0.0,-3.2347,-3.4083,-3.5489,-3.6148,-3.6477,-3.6477,-3.6985,0.0,-3.3754,-3.3604,0.0,0.0,-3.0432,-2.9741,-2.9621,0.0,0.0,0.0,0.0,0.0,0.0,0.0,0.0,0.0,-2.7585,0.0,-2.7675,-2.9022,-2.8873,-2.7794,-2.8397,-2.9415,-3.0402,-2.9175,-2.9836,-3.1331,-3.0043,-2.9621,-2.9621,-2.9654,-3.0073,-3.0552,-3.0552,-3.0943,-3.1331,-3.0731,-3.0972,-3.1301,-3.0672,-3.0972,-3.1481,-3.1451,0.0,0.0,0.0,0.0,-3.0972,0.0,0.0,0.0,0.0,0.0,0.0,-2.7585,-2.7585,-2.7585,-2.7585,0.0,0.0,0.0,0.0,0.0,0.0,-2.7585,-2.7585,-2.7585,-2.8188,0.0,0.0,0.0,-2.9834,-3.0432,-3.0492,-3.112,-3.2467,-3.2467,-3.3155,-3.4444,-3.4503,-3.4831,-3.5519,-3.5519,-3.5519,-3.5519,-3.5519,-3.5848,-3.6447,-3.6447,-3.6806,-3.7434,-3.8063,-3.8332,-3.8482,-3.917,-3.9373,-3.9373,-2.3699,-2.4418,-2.5255,0.0,-2.5143,-2.5143,0.0,0.0,0.0,0.0,-3.3604,-3.51,-3.7404,-3.6956,-3.6477,-3.6477,-3.6178,0.0,0.0,0.0,0.0,-3.3066,-3.2677,-3.1569,-2.9651,-2.9415,0.0,-2.7585,0.0,0.0,-2.7585,0.0,0.0,0.0,0.0,0.0,-2.7675,-2.9022,-2.9681,-2.9714,-2.9445,-3.0103,0.0,0.0,-3.0642,-3.1331,-3.0043,-2.9621,-2.9714,-3.0702,-3.1122,-3.1241,-3.1241,-3.1002,-3.0793,-3.1152,-3.1002,-3.0731,-3.0552,-3.0972,-3.1391,-3.0881,-3.1122,-3.1451,0.0,0.0,0.0,0.0,0.0,0.0,0.0,0.0,0.0,-2.7585,-2.7585,-2.7585,0.0,0.0,0.0,0.0,0.0,0.0,-2.7585,-2.7585,-2.7585,-2.7585,-2.7764,0.0,0.0,0.0,0.0,-2.9804,-3.0253,-3.0883,-3.175,-3.2228,-3.2916,-3.3754,-3.4264,-3.4831,-3.5519,-3.5519,-3.5519,-3.5519,-3.5519,-3.5609,-3.5759,-3.5759,-3.6148,-3.6746,-3.6896,-3.7554,-3.8482,-3.917,-3.9373,-3.9373,-2.4567,0.0,0.0,-2.7769,0.0,0.0,-2.8334,0.0,0.0,-3.3215,-3.4592,0.0,-3.7404,-3.7165,-3.6776,-3.6507,-3.6148,0.0,0.0,0.0,0.0,-3.3963,-3.3365,-3.2108,-3.0043,-2.9714,0.0,-2.7585,0.0,0.0,-2.7585,0.0,0.0,0.0,0.0,-2.7585,0.0,-2.8393,-2.9262,-3.0073,-2.9741,0.0,0.0,-3.0642,-3.0731,-3.0972,-3.0253,-2.9804,-2.9711,-3.0432,-3.0823,-3.1062,-3.1062,-3.1002,-3.1002,-3.1391,-3.1032,-3.0582,-3.0881,-3.1002,-3.1032,-3.0943,-3.1212,-3.1511,-3.1511,-3.1271,-3.0943,0.0,0.0,0.0,0.0,0.0,0.0,0.0,0.0,0.0,0.0,0.0,0.0,0.0,0.0,0.0,-2.7585,-2.7585,-2.7585,-2.7585,0.0,0.0,0.0,0.0,0.0,-2.9562,-3.0193,-3.0793,-3.1481,-3.2138,-3.2856,-3.3484,-3.3873,-3.4562,-3.5519,-3.5519,-3.5519,-3.5519,-3.5519,-3.5519,-3.5519,-3.5519,-3.5729,-3.6118,-3.6686,-3.7674,-3.8871,-3.926,-3.9373,-3.9373,0.0,0.0,0.0,0.0,0.0,0.0,0.0,-3.1599,0.0,-3.3544,0.0,-3.6477,-3.6477,-3.6956,-3.7045,-3.6417,0.0,-3.6118,-3.5549,-3.5519,-3.519,-3.4533,-3.3305,-3.1958,-3.0522,-2.9894,0.0,0.0,0.0,0.0,0.0,0.0,0.0,0.0,0.0,0.0,0.0,-2.7735,-2.8393,0.0,-2.9651,-2.9983,-3.0402,-3.0582,-3.0642,-3.0642,-3.0642,-3.0193,-2.9621,-2.9711,-3.0073,-3.0492,-3.0492,-3.0943,-3.1481,-3.1391,-3.0943,-3.0612,-3.1092,-3.0883,-3.0642,-3.1212,-3.1451,-3.1511,-3.1511,-3.1032,-3.0642,-3.0642,-2.9624,-2.8727,0.0,0.0,0.0,0.0,0.0,0.0,0.0,0.0,0.0,0.0,0.0,0.0,0.0,-2.7645,0.0,0.0,0.0,0.0,0.0,0.0,0.0,-2.9442,-3.0073,0.0,-3.1481,0.0,-3.2886,-3.3634,-3.3634,-3.4292,-3.5519,-3.5519,-3.5519,-3.5519,-3.5519,-3.5519,-3.5519,-3.5519,-3.5519,-3.5639,-3.6836,-3.8063,-3.9134,-3.926,-3.9313,-3.9373,0.0,0.0,0.0,0.0,0.0,-3.2497,-3.3515,-3.3455,-3.3574,-3.4264,-3.5612,-3.6477,-3.6477,-3.6567,-3.6387,-3.5729,-3.5669,0.0,0.0,0.0,0.0,-3.4533,-3.3754,-3.2437,-3.0552,-2.9894,-2.8933,0.0,0.0,0.0,0.0,0.0,0.0,0.0,0.0,0.0,-2.8427,-2.8427,0.0,-2.8876,-2.9924,-3.0103,-2.9864,-3.0913,-3.1331,-3.1331,-3.1331,-3.0582,-2.9681,-3.0163,-3.0402,-3.0492,-3.0492,-3.0943,-3.1391,-3.0851,-3.0582,-3.0432,-3.0043,-3.0193,-3.0522,-3.0642,-3.1092,-3.1511,-3.1511,-3.1421,-3.1331,-3.1331,-3.0313,-2.9415,-2.9415,0.0,0.0,0.0,0.0,0.0,0.0,0.0,0.0,0.0,0.0,0.0,0.0,0.0,0.0,0.0,0.0,0.0,0.0,0.0,0.0,0.0,0.0,0.0,0.0,0.0,-3.3125,-3.4324,-3.4324,-3.4741,-3.5519,-3.5519,-3.5519,-3.5519,-3.5519,-3.5519,-3.5519,-3.5519,-3.5519,-3.5579,-3.6357,-3.7105,-3.7823,-3.8362,-3.8931,-3.9373,0.0,0.0,0.0,0.0,0.0,0.0,0.0,-3.5095,0.0,-3.4566,-3.5073,-3.5462,-3.5462,-3.5759,-3.5848,-3.5519,-3.5519,-3.5519,-3.5519,-3.516,-3.4681,-3.3993,-3.3006,0.0,-3.0073,-2.9415,-2.8603,-2.7585,0.0,0.0,0.0,0.0,0.0,0.0,0.0,-2.7794,0.0,0.0,0.0,-2.8697,-2.9983,-3.0342,-3.0163,-3.1122,-3.1511,-3.1511,-3.1511,-3.0883,-3.0103,-3.0402,-3.0731,-3.0883,-3.0253,-3.0462,-3.0881,-3.0223,-2.9774,-2.9535,-2.9592,-2.9564,-2.9684,-3.0342,-3.0761,-3.1062,-3.1421,-3.1511,-3.1391,-3.1032,-3.0253,-2.9382,-2.8693,-2.8034,0.0,0.0,0.0,0.0,0.0,0.0,0.0,0.0,0.0,0.0,0.0,0.0,0.0,0.0,0.0,0.0,0.0,0.0,0.0,0.0,0.0,0.0,0.0,0.0,0.0,-3.3963,-3.4354,-3.4831,-3.5519,-3.5519,-3.5519,-3.5519,-3.5519,-3.5519,-3.5519,-3.5519,-3.5699,-3.6058,-3.6357,-3.6866,-3.7434,-3.7764,-3.8093,-3.8482,0.0,-3.481,0.0,0.0,-3.64,0.0,-3.6071,-3.6628,-3.6538,-3.493,-3.4713,-3.4713,-3.4713,-3.519,-3.5519,-3.5519,-3.5519,-3.5519,-3.5519,-3.5011,-3.4354,-3.3544,-3.2348,-3.1061,-2.9651,-2.9086,-2.8397,0.0,0.0,0.0,0.0,0.0,0.0,0.0,0.0,0.0,0.0,0.0,-2.8607,-2.8697,-2.9983,-3.0492,-3.0582,-3.1241,-3.1511,-3.1511,-3.1511,-3.1152,-3.0672,-3.0402,-3.0672,-3.0913,-2.9894,-2.9924,-3.0193,-2.9564,-2.8996,-2.8727,-2.9235,-2.8996,-2.8876,-3.0013,-3.0313,-3.0492,-3.1122,-3.1182,-3.0972,-3.0582,-3.012,-2.9411,-2.8027,-2.7931,0.0,0.0,0.0,0.0,0.0,0.0,0.0,0.0,0.0,0.0,0.0,0.0,0.0,0.0,0.0,0.0,0.0,0.0,0.0,0.0,0.0,-3.0642,-3.1271,0.0,-3.3574,0.0,-3.4382,-3.4981,-3.5519,-3.5519,-3.5519,-3.5519,-3.5519,-3.5519,-3.5519,-3.5519,-3.5818,-3.6267,-3.6267,-3.6656,-3.7225,-3.7225,-3.7375,-3.7764,0.0,0.0,0.0,0.0,0.0,0.0,0.0,-3.8208,-3.7897,-3.5686,-3.54,-3.54,-3.54,-3.5459,-3.5519,-3.5519,-3.5519,-3.5519,-3.5519,-3.5459,-3.4831,-3.3544,-3.2796,-3.1539,-2.9651,-2.9562,-2.8873,0.0,0.0,0.0,0.0,0.0,0.0,0.0,0.0,0.0,0.0,-2.8308,-2.8607,-2.8697,-2.9983,-3.0492,-3.0582,-3.1241,-3.1511,-3.1511,-3.1511,-3.1451,-3.1241,-3.0073,-2.9741,-2.9771,-2.9651,-2.9651,-2.9535,-2.8876,-2.8637,-2.8607,-2.8667,-2.8637,-2.8757,-2.9475,-2.9681,-2.9834,-3.0462,-3.0163,-2.9894,-3.0402,-3.0521,-3.0097,-2.8662,-2.8958,-2.9199,0.0,0.0,0.0,0.0,0.0,0.0,0.0,0.0,0.0,0.0,0.0,0.0,0.0,0.0,0.0,0.0,0.0,0.0,-2.7794,0.0,-2.9983,-3.0582,-3.2527,0.0,-3.4414,-3.507,-3.5459,-3.5519,-3.5519,-3.5519,-3.5519,-3.5519,-3.5519,-3.5519,-3.5519,-3.5549,-3.5579,-3.5579,-3.5998,-3.6567,-3.6567,-3.7315,-3.8302,0.0,0.0,0.0,0.0,0.0,0.0,0.0,-3.9401,-3.913,-3.7744,-3.6754,-3.6006,-3.5554,-3.5879,-3.5975,-3.5522,-3.5879,-3.5975,-3.5522,-3.4741,-3.4053,-3.3514,-3.1719,-3.0402,-2.9621,-2.9232,-2.8543,0.0,0.0,0.0,0.0,0.0,0.0,0.0,0.0,-2.8188,-2.8218,-2.8906,-2.9175,-2.9295,-3.0612,-3.1092,-3.1122,-3.1391,-3.1511,-3.1511,-3.1511,-3.1241,-3.0793,-3.0313,-3.0133,-2.9924,-2.8783,-2.8693,-2.8876,-2.8214,-2.8004,-2.8004,-2.8004,-2.8004,-2.8184,-2.8816,-2.8996,-2.9175,-2.9804,-2.9771,-2.9535,-2.9385,-2.9332,-2.9186,-2.8604,-2.8728,-2.8845,0.0,0.0,0.0,0.0,0.0,0.0,0.0,0.0,0.0,0.0,0.0,0.0,0.0,0.0,0.0,0.0,0.0,0.0,-2.8188,0.0,-3.0073,-3.1092,-3.2706,-3.3814,-3.4503,-3.519,-3.5519,-3.5519,-3.5519,-3.5519,-3.5519,-3.5519,-3.5519,-3.5519,-3.5519,-3.5519,-3.5519,-3.5519,-3.5669,-3.5908,-3.5908,-3.6207,-3.6656,-4.2476,0.0,-4.0593,0.0,-4.1439,-4.0917,-4.0205,-4.0276,-3.999,-3.8734,-3.7814,-3.6994,-3.6258,-3.6631,-3.6753,-3.6227,-3.6445,-3.6412,-3.589,-3.4759,-3.3935,-3.3509,-3.1359,0.0,-2.9584,-2.8922,-2.8368,-2.7884,-2.8547,0.0,0.0,0.0,0.0,0.0,-2.8697,-2.8607,-2.8637,-2.9086,-2.9415,-2.9711,-3.0763,-3.1212,-3.1212,-3.1212,-3.1092,-3.0943,-3.0943,-3.0642,-3.0193,-3.0013,-3.006,-2.9954,-2.8385,-2.8068,-2.8188,-2.7735,-2.7585,-2.7585,-2.7585,-2.7585,-2.7705,-2.8188,-2.8308,-2.8457,-2.9146,-2.9275,-2.9187,-2.8905,-2.9128,-2.9295,-2.9051,-2.92,-2.9264,-2.9051,0.0,0.0,0.0,0.0,0.0,0.0,0.0,-2.8776,-2.8748,0.0,0.0,0.0,0.0,0.0,0.0,0.0,0.0,0.0,0.0,0.0,0.0,-3.2826,-3.3814,-3.4503,-3.519,-3.5519,-3.5519,-3.5519,-3.5519,-3.5519,-3.5519,-3.5519,-3.5519,-3.5519,-3.5519,-3.5519,-3.5519,-3.5519,-3.5519,-3.5519,-3.5639,-3.5789,-4.324,-4.3375,-4.3341,-4.3375,-4.3375,-4.2616,-4.0426,-4.0722,-4.0374,-3.8119,-3.8414,-3.8608,-3.7851,-3.7793,-3.7793,-3.7764,-3.7093,-3.671,-3.6681,-3.6015,-3.494,0.0,0.0,-3.0928,-2.9515,-2.8914,-2.8607,-2.8577,0.0,0.0,-2.9592,0.0,-2.9592,-2.9562,-2.8906,-2.8607,-2.8607,-2.8607,-2.8996,-2.9651,-3.0253,-3.0522,-3.0522,-3.0522,-3.0133,-2.9621,-2.9621,-2.9621,-2.9532,-2.8846,-2.9017,-2.9416,-2.8785,-2.8154,-2.7615,-2.7585,-2.7585,-2.7585,-2.7585,-2.7585,-2.7585,-2.7615,-2.7615,-2.7794,-2.8457,-2.8575,-2.8685,-2.928,-3.0445,-3.1155,-3.0387,-3.0869,-3.1122,-3.0387,0.0,0.0,0.0,0.0,0.0,0.0,-2.8736,-2.9443,-2.9403,0.0,0.0,0.0,0.0,0.0,0.0,0.0,0.0,-2.8577,-2.9235,0.0,-3.1481,-3.2826,-3.3814,-3.4503,-3.519,-3.5519,-3.5519,-3.5519,-3.5519,-3.5519,-3.5519,-3.5519,-3.5519,-3.5519,-3.5519,-3.5519,-3.5519,-3.5519,-3.5519,-3.5519,-3.5908,-3.6477,-4.4147,-4.4215,-4.3876,-4.2828,-4.3064,-4.2814,-4.1117,-4.1073,-4.0946,-4.0194,-3.9859,-3.9636,-3.9401,-3.8887,-3.8135,0.0,-3.7311,-3.701,0.0,-3.5309,-3.4479,-3.3559,-3.2253,-3.1075,-3.0141,-2.9917,-2.9602,-2.9155,0.0,0.0,0.0,-3.0727,-3.0733,-3.0242,-2.9565,-2.9026,-2.8607,-2.8607,-2.8727,-2.8966,-2.9624,-2.9891,-2.9891,-2.9891,-2.9771,-2.9621,-2.9621,-2.9322,-2.8876,-2.8667,-2.8432,-2.8162,-2.7965,-2.8066,-2.8125,-2.771,-2.7585,-2.7585,-2.7585,-2.7585,-2.7685,-2.81,-2.8198,-2.8381,-2.8998,-2.9108,-2.9271,-2.9892,-3.0368,-3.0594,-3.0342,-3.0495,-3.0594,-3.0342,-2.9293,0.0,0.0,0.0,0.0,0.0,0.0,-3.0042,0.0,-2.9473,0.0,0.0,0.0,0.0,0.0,0.0,0.0,0.0,-2.9235,0.0,-3.2138,-3.3066,-3.4053,-3.519,-3.54,-3.5519,-3.5519,-3.5519,-3.5519,-3.5519,-3.5519,-3.5519,-3.5519,-3.5519,-3.5519,-3.5519,-3.5519,-3.5519,-3.5519,-3.5519,-3.5639,-3.5818,-4.4215,-4.4147,-4.3673,-4.2151,-4.2286,-4.2185,-4.0967,-4.0798,-4.0798,-4.0798,-4.0383,-4.0113,-4.0113,-3.9636,0.0,-3.8041,-3.7892,-3.7448,-3.6522,-3.5542,-3.4529,-3.3501,-3.2447,-3.1413,-3.0374,0.0,0.0,-2.9767,-3.0447,-3.0799,-3.0846,-3.13,-3.1287,-3.0873,-3.0201,-2.9659,-2.926,-2.926,-2.926,-2.9321,-3.0027,-2.9994,-2.9572,-2.9572,-2.9264,-2.8843,-2.8843,-2.8729,-2.8546,-2.8546,-2.859,-2.8575,-2.8367,-2.8693,-2.8996,-2.8174,-2.7959,-2.8008,-2.8222,-2.8295,-2.8391,-2.8717,-2.8865,-2.8996,-2.9607,-2.9739,-2.9913,-3.0518,-3.0621,-3.0621,-3.0621,-3.0621,-3.0621,-3.0621,-2.9805,-2.9451,-3.0171,0.0,0.0,0.0,0.0,0.0,0.0,-2.9957,0.0,0.0,0.0,0.0,0.0,0.0,0.0,-2.8936,-2.9834,0.0,-3.2856,-3.3544,-3.4412,-3.5519,-3.5519,-3.5519,-3.5519,-3.5519,-3.5519,-3.5519,-3.5519,-3.5519,-3.5519,-3.5519,-3.5519,-3.5519,-3.5519,-3.5519,-3.5519,-3.5519,-3.5519,-3.5519,-4.3504,-4.3308,0.0,0.0,-4.1204,0.0,-4.0214,-4.0113,-4.0113,-4.0113,-4.0113,-4.0113,-4.0113,-4.0113,-4.0113,-4.0113,0.0,0.0,0.0,-3.6411,-3.4957,-3.3558,-3.2895,-3.188,-3.0471,-2.9837,-2.9839,-3.0436,-3.1117,-3.147,-3.147,-3.1486,-3.1462,-3.1366,-3.0703,-3.0384,-3.032,-3.032,-3.032,-3.0384,-3.1031,-3.0542,-2.949,-2.949,-2.875,-2.771,-2.771,-2.8107,-2.8559,-2.8559,-2.9316,-3.0128,-2.9585,-2.9783,-3.0,-2.888,-2.8559,-2.8701,-2.9248,-2.9406,-2.9406,-2.9451,-2.9496,-2.9673,-3.0213,-3.0372,-3.0518,-3.1092,-3.119,-3.119,-3.119,-3.119,-3.119,-3.119,-3.0683,-3.033,-3.0372,0.0,0.0,0.0,0.0,0.0,0.0,-3.0372,-3.0351,0.0,0.0,0.0,0.0,0.0,-2.9109,-2.9651,-3.0853,-3.2168,-3.3544,-3.4204,-3.4863,-3.5519,-3.5519,-3.5519,-3.5519,-3.5519,-3.5519,-3.5519,-3.5519,-3.5519,-3.5519,-3.5519,-3.5519,-3.5519,-3.5519,-3.5519,-3.5519,-3.5519,-3.5519,-3.5519,0.0,0.0,-4.2252,-4.1373,-4.1204,-4.0933,-4.0214,-4.0113,-4.0113,-4.0113,-4.0113,-4.0113,-4.0113,-4.0113,-4.0113,-4.0113,-3.8734,-3.7652,-3.71,-3.6163,-3.5194,-3.4269,-3.3566,-3.2761,-3.1873,-3.1126,-3.0844,-3.099,-3.1725,-3.2093,-3.2093,-3.212,-3.1883,-3.1373,-3.0712,-3.0096,-2.964,-2.964,-2.964,-2.964,-2.9799,-2.9676,-2.9434,-2.9434,-2.9247,-2.8973,-2.8973,-2.9065,-2.918,-2.918,-2.9384,-2.9585,-2.9451,-2.9496,-2.9563,-2.9271,-2.918,-2.9225,-2.9361,-2.9406,-2.9518,-2.9957,-3.0435,-3.0818,-3.0938,-3.0978,-3.1052,-3.1171,-3.119,-3.119,-3.119,-3.119,-3.119,-3.119,-3.0683,-3.0456,-3.0918,-3.058,0.0,0.0,-3.0898,-3.0978,-3.0978,-3.0978,-3.1052,0.0,0.0,0.0,0.0,-3.1363,-3.1219,-3.034,-3.1062,-3.2378,-3.4264,-3.4444,-3.4863,-3.5519,-3.5519,-3.5519,-3.5519,-3.5519,-3.5519,-3.5519,-3.5519,-3.5519,-3.5519,-3.5519,-3.5519,-3.5519,-3.5519,-3.5519,-3.5519,-3.5519,-3.5519,-3.5519,-4.1948,-4.1813,-4.1542,-4.0832,-4.0696,-4.0561,-4.018,-4.0113,-4.0113,-4.0113,-4.0113,-4.0113,-4.0113,-4.0113,-3.9977,-3.9639,-3.8565,-3.7719,-3.7313,-3.6231,-3.5126,-3.4032,-3.3931,-3.322,-3.1819,-3.1752,-3.1549,-3.119,-3.1616,-3.1819,-3.1799,-3.1821,-3.1662,-3.1283,-3.0912,-3.0586,-3.0213,-3.0213,-3.0213,-3.0213,-3.0213,-3.0043,-2.9805,-2.9805,-2.9651,-2.9406,-2.9406,-2.9585,-2.9805,-2.9805,-2.9978,-3.0213,-3.0213,-3.0213,-3.0213,-3.0213,-3.0021,-2.987,-3.0128,-3.0213,-3.0309,-3.0621,-3.0958,-3.119,-3.119,-3.119,-3.119,-3.119,-3.119,-3.119,-3.119,-3.119,-3.119,-3.119,-3.0918,-3.0838,-3.1151,-3.0918,0.0,-3.1151,-3.119,-3.1326,-3.1684,-3.1718,-3.1867,-3.2281,0.0,0.0,-3.2508,-3.3182,-3.2917,-3.1472,-3.2374,-3.3395,-3.4503,-3.4771,-3.513,-3.5519,-3.5519,-3.5519,-3.5519,-3.5519,-3.5519,-3.5519,-3.5519,-3.5519,-3.5519,-3.5519,-3.5519,-3.5519,-3.5519,-3.5519,-3.5519,-3.5519,-3.5519,-3.5519,-4.117,-4.1035,-4.0832,-4.0214,-4.0113,-4.0113,-4.0113,-4.0113,-4.0113,-4.0113,-4.0113,-4.0113,-4.0113,-4.0113,-3.9842,-3.9208,-3.8396,-3.7821,-3.7584,-3.6309,-3.4991,-3.3626,-3.4167,-3.3626,-3.1732,-3.209,-3.1989,-3.136,-3.1258,-3.119,-3.119,-3.119,-3.119,-3.119,-3.119,-3.119,-3.119,-3.119,-3.119,-3.119,-3.119,-3.0898,-3.0435,-3.0435,-3.0107,-2.9673,-2.9673,-3.0,-3.0435,-3.0435,-3.0777,-3.119,-3.119,-3.119,-3.119,-3.119,-3.0838,-3.0539,-3.1072,-3.119,-3.119,-3.119,-3.119,-3.119,-3.119,-3.119,-3.119,-3.119,-3.119,-3.119,-3.119,-3.119,-3.119,-3.119,-3.119,-3.119,-3.119,0.0,-3.1224,-3.1326,-3.136,-3.1684,-3.2395,-3.2462,-3.2814,-3.3694,-3.3784,-3.3942,0.0,-3.4836,-3.4606,-3.3419,-3.4329,-3.4909,-3.5,-3.5446,-3.5683,-3.5683,-3.5554,-3.5519,-3.5519,-3.5519,-3.5519,-3.5519,-3.5519,-3.5519,-3.5519,-3.5519,-3.5519,-3.5519,-3.5519,-3.5519,-3.5519,-3.5519,-3.5519,-3.5519,-4.0417,-4.0282,-4.0248,-4.0113,-4.0113,-4.0113,-4.0113,-4.0113,-4.0113,-4.0113,-4.0113,-4.0113,-4.0113,-4.0113,-4.0045,-3.9943,-3.87,-3.7347,-3.6039,-3.5735,-3.5194,-3.437,-3.4438,-3.4336,-3.3998,-3.2869,-3.2226,-3.2124,-3.1495,-3.119,-3.119,-3.119,-3.119,-3.119,-3.119,-3.119,-3.119,-3.119,-3.119,-3.119,-3.119,-3.1151,-3.1072,-3.1072,-3.0978,-3.0918,-3.0918,-3.0958,-3.1072,-3.1072,-3.1131,-3.119,-3.119,-3.119,-3.119,-3.119,-3.1131,-3.1092,-3.1171,-3.119,-3.119,-3.119,-3.119,-3.119,-3.119,-3.119,-3.119,-3.119,-3.119,-3.119,-3.119,-3.119,-3.119,-3.119,-3.119,-3.119,-3.119,0.0,-3.1427,-3.2056,-3.2124,-3.2429,-3.3152,-3.322,-3.3795,-3.516,-3.5273,-3.5834,-3.7162,-3.7301,-3.7222,-3.6986,-3.6657,-3.6708,-3.7252,-3.6721,-3.6446,-3.6415,-3.5814,-3.5519,-3.5519,-3.5519,-3.5519,-3.5519,-3.5519,-3.5519,-3.5519,-3.5519,-3.5519,-3.5519,-3.5519,-3.5519,-3.5519,-3.5519,-3.5519,-3.5519,-4.018,-4.0113,-4.0113,-4.0113,-4.0113,-4.0113,-4.0113,-4.0113,-4.0113,-4.0113,-4.0113,-4.0113,-4.0113,-4.0113,-3.9774,-3.8971,-3.8294,-3.7077,-3.5148,-3.5013,-3.4675,-3.3931,-3.3897,-3.3728,-3.3343,-3.2259,-3.1718,-3.1718,-3.136,-3.119,-3.119,-3.119,-3.119,-3.119,-3.119,-3.119,-3.119,-3.119,-3.119,-3.119,-3.119,-3.119,-3.119,-3.119,-3.119,-3.119,-3.119,-3.119,-3.119,-3.119,-3.119,-3.119,-3.119,-3.119,-3.119,-3.119,-3.119,-3.119,-3.119,-3.119,-3.119,-3.119,-3.119,-3.119,-3.119,-3.119,-3.119,-3.119,-3.119,-3.119,-3.119,-3.119,-3.119,-3.119,-3.119,0.0,0.0,-3.1529,-3.1921,-3.2259,-3.3004,-3.3761,-3.4484,-3.4979,-3.569,-3.6772,-3.6817,-3.7313,-3.843,-3.8472,-3.863,-3.9031,-3.7926,-3.7498,-3.7793,-3.7411,-3.7233,-3.7233,-3.6905,-3.6753,-3.6753,-3.6753,-3.6753,-3.6753,-3.6753,-3.6753,-3.6753,-3.6753,-3.6477,-3.6071,-3.6071,-3.5846,-3.5519,-3.5519,-3.5519,-3.5519,-4.0113,-4.0113,-4.0113,-4.0113,-4.0113,-4.0113,-4.0113,-4.0113,-4.0113,-4.0113,-4.0113,-4.0113,-4.0113,-4.0113,-3.9571,-3.8261,-3.799,-3.7077,-3.5148,-3.4675,-3.4167,-3.3423,-3.3423,-3.3152,-3.2564,-3.1853,-3.1481,-3.1481,-3.1292,-3.119,-3.119,-3.119,-3.119,-3.119,-3.119,-3.119,-3.119,-3.119,-3.119,-3.119,-3.119,-3.119,-3.119,-3.119,-3.119,-3.119,-3.119,-3.119,-3.119,-3.119,-3.119,-3.119,-3.119,-3.119,-3.119,-3.119,-3.119,-3.119,-3.119,-3.119,-3.119,-3.119,-3.119,-3.119,-3.119,-3.119,-3.119,-3.119,-3.119,-3.119,-3.119,-3.119,-3.119,-3.119,0.0,0.0,0.0,-3.209,-3.2699,-3.3038,-3.4066,-3.5115,-3.6039,-3.6705,-3.7347,-3.8091,-3.8159,-3.8497,-3.9208,-3.9242,-3.9537,-4.0079,-3.8941,-3.8334,-3.8334,-3.8133,-3.8048,-3.8048,-3.7908,-3.7793,-3.7793,-3.7793,-3.7706,-3.7499,-3.7499,-3.7442,-3.7265,-3.7265,-3.6905,-3.6322,-3.6322,-3.6006,-3.5519,-3.5519,-3.5519,-3.5519,-4.0113,-4.0113,-4.0113,-4.0113,-4.0113,-4.0113,-4.0113,-4.0113,-4.0113,-4.0113,-4.0113,-4.0113,-4.0113,-4.0113,-3.9774,-3.8971,-3.8294,-3.755,-3.6694,-3.5284,-3.4167,-3.3423,-3.3423,-3.3389,-3.3322,-3.2598,-3.2226,-3.2226,-3.1549,-3.119,-3.119,-3.119,-3.119,-3.119,-3.119,-3.119,-3.119,-3.119,-3.119,-3.119,-3.119,-3.119,-3.119,-3.119,-3.119,-3.119,-3.119,-3.119,-3.119,-3.119,-3.119,-3.119,-3.119,-3.119,-3.119,-3.119,-3.119,-3.119,-3.119,-3.119,-3.119,-3.119,-3.119,-3.119,-3.119,-3.119,-3.119,-3.119,-3.119,-3.119,-3.119,-3.119,-3.119,-3.119,0.0,0.0,-3.2226,-3.2848,-3.3829,-3.5194,-3.543,-3.6107,-3.7584,-3.7787,-3.8125,-3.887,-3.8903,-3.9242,-3.9977,-4.0011,-4.0045,-4.0113,-3.9978,-3.9927,-3.9927,-3.9183,-3.8827,-3.8799,-3.8104,-3.7793,-3.7793,-3.7793,-3.7381,-3.6691,-3.6691,-3.6321,-3.5683,-3.5683,-3.5651,-3.5587,-3.5587,-3.5554,-3.5519,-3.5519,-3.5519,-3.5519,-4.0154,-4.0113,-4.0113,-4.0113,-4.0113,-4.0113,-4.0113,-4.0113,-4.0113,-4.0113,-4.0113,-4.0113,-4.0113,-3.9706,-3.9106,-3.8396,-3.7652,-3.6671,-3.5475,-3.525,-3.4438,-3.278,-3.2273,-3.2036,-3.2036,-3.1765,-3.1616,-3.1616,-3.1345,-3.119,-3.119,-3.119,-3.119,-3.119,-3.119,-3.119,-3.119,-3.119,-3.119,-3.119,-3.119,-3.119,-3.119,-3.119,-3.119,-3.119,-3.119,-3.119,-3.119,-3.119,-3.119,-3.119,-3.119,-3.119,-3.119,-3.119,-3.119,-3.119,-3.119,-3.119,-3.119,-3.119,-3.119,-3.1326,-3.1785,-3.1887,-3.2022,-3.2476,-3.2577,-3.2577,-3.2577,-3.2577,-3.2577,-3.2577,0.0,-3.2983,-3.2983,-3.3626,-3.4472,-3.5464,-3.6445,-3.7449,-3.8497,-3.9005,-3.9377,-3.9673,-3.9673,-3.9808,-4.0079,-4.0113,-4.0113,-4.0113,-4.0113,-4.0113,-4.0113,-3.9825,-3.9636,-3.9636,-3.9375,-3.9242,-3.9242,-3.9242,-3.9076,-3.8772,-3.8772,-3.8608,-3.8302,-3.7819,-3.7322,-3.6906,-3.6384,-3.5879,-3.5519,-3.5519,-3.5519,-3.5519,-4.0696,-4.0625,-4.0587,-4.0368,-4.0343,-4.0269,-4.0138,-4.0113,-4.0113,-4.0113,-4.0113,-4.0011,-3.9774,-3.9276,-3.8599,-3.7652,-3.7077,-3.6254,-3.4945,-3.5115,-3.4472,-3.2713,-3.1955,-3.1427,-3.119,-3.119,-3.119,-3.119,-3.119,-3.119,-3.119,-3.119,-3.119,-3.119,-3.119,-3.119,-3.119,-3.119,-3.119,-3.119,-3.119,-3.119,-3.119,-3.119,-3.119,-3.119,-3.119,-3.119,-3.119,-3.119,-3.119,-3.119,-3.119,-3.119,-3.119,-3.119,-3.119,-3.119,-3.119,-3.119,-3.119,-3.119,-3.136,-3.1684,-3.2192,-3.2496,-3.278,-3.3288,-3.3423,-3.3423,-3.3423,-3.3423,-3.3423,-3.3423,-3.3795,-3.4078,-3.4078,-3.4945,-3.5825,-3.6603,-3.7618,-3.8531,-3.9276,-3.9808,-4.0113,-4.0113,-4.0113,-4.0113,-4.0113,-4.0113,-4.0113,-4.0113,-4.0113,-4.0113,-4.0113,-4.0113,-4.0113,-4.0113,-4.0113,-4.0113,-4.0113,-4.0113,-3.9952,-3.9714,-3.9714,-3.9584,-3.9348,-3.8772,-3.8246,-3.7764,-3.7174,-3.6508,-3.5846,-3.5846,-3.5686,-3.5519,-4.181,-4.181,-4.1617,-4.1001,-4.092,-4.0709,-4.0179,-4.0113,-4.0113,-4.0113,-4.0113,-3.9842,-3.9073,-3.8971,-3.8396,-3.6931,-3.6795,-3.6434,-3.5633,-3.4912,-3.4167,-3.3423,-3.2679,-3.1955,-3.1224,-3.119,-3.119,-3.119,-3.119,-3.119,-3.119,-3.119,-3.119,-3.119,-3.119,-3.119,-3.119,-3.119,-3.119,-3.119,-3.119,-3.119,-3.119,-3.119,-3.119,-3.119,-3.119,-3.119,-3.119,-3.119,-3.119,-3.119,-3.119,-3.119,-3.119,-3.119,-3.119,-3.119,-3.119,-3.119,-3.119,-3.119,-3.1752,-3.2293,-3.2327,-3.2882,-3.3423,-3.3423,-3.3423,-3.3423,-3.3423,-3.3423,-3.3423,-3.3423,-3.4653,-3.5633,-3.5633,-3.6941,-3.8159,-3.8903,-3.9005,-3.9276,-4.0045,-4.0113,-4.0113,-4.0113,-4.0113,-4.0113,-4.0113,-4.0113,-4.0113,-4.0113,-4.0113,-4.0113,-4.0113,-4.0113,-4.0113,-4.0113,-4.0113,-4.0113,-4.0113,-4.0113,-3.9662,-3.8908,-3.8908,-3.8497,-3.7822,-3.7822,-3.7793,-3.7793,-3.7793,-3.7293,-3.6569,-3.6569,-3.6134,-3.5519,-4.1895,-4.181,-4.1746,-4.1538,-4.1516,-4.1486,-4.1308,-4.092,-4.0672,-4.0672,-4.0319,-3.9842,-3.9073,-3.8531,-3.7821,-3.6897,-3.6265,-3.5836,-3.5633,-3.4438,-3.3626,-3.3423,-3.2679,-3.1955,-3.1224,-3.119,-3.119,-3.119,-3.119,-3.119,-3.119,-3.119,-3.119,-3.119,-3.119,-3.119,-3.119,-3.119,-3.119,-3.119,-3.119,-3.119,-3.119,-3.119,-3.119,-3.119,-3.119,-3.119,-3.119,-3.119,-3.119,-3.119,-3.119,-3.119,-3.119,-3.119,-3.119,-3.119,-3.119,-3.119,-3.1326,-3.1853,-3.2124,-3.2564,-3.3613,-3.3998,-3.4303,-3.4844,-3.4923,-3.4923,-3.4923,-3.5419,-3.5814,-3.5814,-3.6603,-3.7212,-3.7212,-3.7618,-3.8159,-3.8903,-3.9005,-3.9276,-4.0045,-4.0113,-4.0113,-4.0113,-4.0113,-4.0113,-4.0113,-4.0113,-4.0113,-4.0113,-4.0113,-4.0113,-4.0113,-4.0113,-4.0113,-4.0113,-4.0113,-4.0113,-4.0113,-4.0113,-3.9952,-3.974,-3.974,-3.961,-3.9348,-3.825,-3.7793,-3.7706,-3.66,-3.6038,-3.5846,-3.5846,-3.5716,-3.5519,-4.2524,-4.2465,-4.2386,-4.2185,-4.218,-4.2062,-4.1832,-4.1473,-4.1251,-4.1251,-4.0967,-4.0388,-3.9296,-3.8883,-3.8128,-3.6761,-3.6005,-3.56,-3.56,-3.4754,-3.4134,-3.3863,-3.3389,-3.2564,-3.1224,-3.119,-3.119,-3.119,-3.119,-3.119,-3.119,-3.119,-3.119,-3.119,-3.119,-3.119,-3.119,-3.119,-3.119,-3.119,-3.119,-3.119,-3.119,-3.119,-3.119,-3.119,-3.119,-3.119,-3.119,-3.119,-3.119,-3.119,-3.119,-3.119,-3.119,-3.119,-3.119,-3.119,-3.119,-3.1393,-3.1819,-3.2544,-3.2747,-3.3051,-3.4235,-3.4709,-3.5081,-3.5498,-3.56,-3.5701,-3.6028,-3.6468,-3.6897,-3.7178,-3.7855,-3.8328,-3.8328,-3.8599,-3.8937,-3.9377,-3.9436,-3.9605,-4.0079,-4.0113,-4.0113,-4.0113,-4.0113,-4.0113,-4.0113,-4.0113,-4.0113,-4.0113,-4.0113,-4.0113,-4.0113,-4.0113,-4.0113,-4.0113,-4.0113,-4.0113,-4.0113,-4.0113,-4.0113,-4.0113,-4.0113,-4.0113,-4.0037,-3.9076,-3.8723,-3.864,-3.7674,-3.7145,-3.6844,-3.6844,-3.6662,-3.6414,-4.3515,-4.3515,-4.3339,-4.2882,-4.2751,-4.2596,-4.2041,-4.1916,-4.1874,-4.1874,-4.1832,-4.1188,-3.959,-3.9586,-3.8785,-3.654,-3.5876,-3.56,-3.56,-3.5532,-3.5194,-3.4539,-3.4438,-3.3423,-3.1326,-3.1292,-3.1258,-3.119,-3.119,-3.119,-3.119,-3.119,-3.119,-3.119,-3.119,-3.119,-3.119,-3.119,-3.119,-3.119,-3.119,-3.119,-3.119,-3.119,-3.119,-3.119,-3.119,-3.119,-3.119,-3.119,-3.119,-3.119,-3.119,-3.119,-3.119,-3.119,-3.119,-3.119,-3.119,-3.1752,-3.2496,-3.322,-3.3457,-3.3694,-3.4438,-3.5115,-3.56,-3.56,-3.5667,-3.5926,-3.666,-3.6897,-3.7235,-3.7889,-3.8633,-3.9073,-3.9073,-3.9673,-4.0113,-4.0113,-4.0113,-4.0113,-4.0113,-4.0113,-4.0113,-4.0113,-4.0113,-4.0113,-4.0113,-4.0113,-4.0113,-4.0113,-4.0113,-4.0113,-4.0113,-4.0113,-4.0113,-4.0113,-4.0113,-4.0113,-4.0113,-4.0113,-4.0113,-4.0113,-4.0113,-4.0113,-4.0113,-4.0003,-3.9978,-3.9978,-3.9927,-3.9454,-3.8799,-3.8799,-3.8386,-3.7793,-4.3515,-4.3515,-4.348,-4.3339,-4.3321,-4.3286,-4.3142,-4.2789,-4.2482,-4.2482,-4.2083,-4.1061,-3.9089,-3.8903,-3.8065,-3.598,-3.5667,-3.56,-3.56,-3.5081,-3.4675,-3.4506,-3.3964,-3.3152,-3.209,-3.2056,-3.1785,-3.119,-3.119,-3.119,-3.119,-3.119,-3.119,-3.119,-3.119,-3.119,-3.119,-3.119,-3.119,-3.119,-3.119,-3.119,-3.119,-3.119,-3.119,-3.119,-3.119,-3.119,-3.119,-3.119,-3.119,-3.119,-3.119,-3.119,-3.119,-3.119,-3.119,-3.119,-3.119,-3.1752,-3.2496,-3.322,-3.3829,-3.4438,-3.5216,-3.5498,-3.56,-3.56,-3.6096,-3.6569,-3.6761,-3.7743,-3.8565,-3.8734,-3.9377,-3.9876,-3.9876,-4.0011,-4.0113,-4.0113,-4.0113,-4.0113,-4.0113,-4.0113,-4.0113,-4.0113,-4.0113,-4.0113,-4.0113,-4.0113,-4.0113,-4.0113,-4.0113,-4.0113,-4.0113,-4.0113,-4.0113,-4.0113,-4.0113,-4.0113,-4.0113,-4.0113,-4.0113,-4.0113,-4.0113,-4.0113,-4.0028,-3.942,-3.9183,-3.9129,-3.8497,-3.8189,-3.8019,-3.8019,-3.7937,-3.7706,-4.3515,-4.3515,-4.3515,-4.3515,-4.3515,-4.3515,-4.3515,-4.325,-4.3087,-4.3087,-4.2791,-4.1893,-4.0045,-3.9933,-3.9041,-3.6722,-3.5926,-3.56,-3.56,-3.525,-3.4878,-3.4506,-3.4134,-3.3389,-3.2327,-3.2293,-3.1955,-3.119,-3.119,-3.119,-3.119,-3.119,-3.119,-3.119,-3.119,-3.119,-3.119,-3.119,-3.119,-3.119,-3.119,-3.119,-3.119,-3.119,-3.119,-3.119,-3.119,-3.119,-3.119,-3.119,-3.119,-3.119,-3.119,-3.119,-3.119,-3.119,-3.119,-3.1258,-3.165,-3.2259,-3.2983,-3.3728,-3.4472,-3.5148,-3.5498,-3.56,-3.5701,-3.6096,-3.6524,-3.7032,-3.7743,-3.8464,-3.9106,-3.9445,-3.9842,-4.0113,-4.0113,-4.0113,-4.0113,-4.0113,-4.0113,-4.0113,-4.0113,-4.0113,-4.0113,-4.0113,-4.0113,-4.0113,-4.0113,-4.0113,-4.0113,-4.0113,-4.0113,-4.0113,-4.0113,-4.0113,-4.0113,-4.0113,-4.0113,-4.0113,-4.0113,-4.0113,-4.0113,-4.0113,-4.0113,-4.0113,-4.0087,-3.9636,-3.9447,-3.9387,-3.8659,-3.8591,-3.8788,-3.8103,-3.7873,-3.7787,-4.3515,-4.3515,-4.3515,-4.3515,-4.3515,-4.3515,-4.3515,-4.3515,-4.3515,-4.3515,-4.3404,-4.271,-4.1142,-4.0799,-3.9825,-3.7631,-3.65,-3.5876,-3.5876,-3.5876,-3.5625,-3.4998,-3.4942,-3.4307,-3.2842,-3.2808,-3.2292,-3.119,-3.119,-3.119,-3.119,-3.119,-3.119,-3.119,-3.119,-3.119,-3.119,-3.119,-3.119,-3.119,-3.119,-3.119,-3.119,-3.119,-3.119,-3.119,-3.119,-3.119,-3.119,-3.119,-3.119,-3.119,-3.119,-3.119,-3.119,-3.119,-3.1292,-3.1529,-3.2124,-3.2916,-3.3761,-3.4506,-3.525,-3.5836,-3.5938,-3.5802,-3.5825,-3.6626,-3.6897,-3.7405,-3.8734,-3.9106,-3.9402,-4.0011,-4.0113,-4.0113,-4.0113,-4.0113,-4.0113,-4.0113,-4.0113,-4.0113,-4.0113,-4.0113,-4.0113,-4.0113,-4.0113,-4.0113,-4.0113,-4.0113,-4.0113,-4.0113,-4.0113,-4.0113,-4.0113,-4.0113,-4.0113,-4.0113,-4.0113,-4.0113,-4.0113,-4.0113,-4.0113,-4.0113,-4.0113,-4.0113,-4.0079,-3.9977,-3.991,-3.9842,-3.9073,-3.9174,-3.9571,-3.8362,-3.7817,-3.7687,-4.3515,-4.3515,-4.3515,-4.3515,-4.3515,-4.3515,-4.3515,-4.3515,-4.3515,-4.3515,-4.2873,-4.1931,-4.0546,-3.8813,-3.7638,-3.7273,-3.7091,-3.6981,-3.6981,-3.6981,-3.6946,-3.6841,-3.6841,-3.6225,-3.4935,-3.4881,-3.3662,-3.119,-3.119,-3.119,-3.119,-3.119,-3.119,-3.119,-3.119,-3.119,-3.119,-3.119,-3.119,-3.119,-3.119,-3.119,-3.119,-3.119,-3.119,-3.119,-3.119,-3.119,-3.119,-3.119,-3.119,-3.119,-3.119,-3.119,-3.119,-3.119,-3.165,-3.2158,-3.2259,-3.3309,-3.4539,-3.5261,-3.6062,-3.6806,-3.7449,-3.6546,-3.5825,-3.6626,-3.7313,-3.8024,-3.8836,-3.9537,-3.9977,-4.0079,-4.0113,-4.0113,-4.0113,-4.0113,-4.0113,-4.0113,-4.0113,-4.0113,-4.0113,-4.0113,-4.0113,-4.0113,-4.0113,-4.0113,-4.0113,-4.0113,-4.0113,-4.0113,-4.0113,-4.0113,-4.0113,-4.0113,-4.0113,-4.0113,-4.0113,-4.0113,-4.0113,-4.0113,-4.0113,-4.0113,-4.0113,-4.0113,-4.0045,-3.9436,-3.914,-3.9073,-3.8328,-3.8125,-3.8159,-3.799,-3.7467,-3.6868,-4.3515,-4.3515,-4.3515,-4.3515,-4.3515,-4.3515,-4.3515,-4.3515,-4.3515,-4.3515,-4.28,-4.1925,-4.0844,-3.885,-3.7596,-3.7596,-3.7341,-3.7192,-3.7192,-3.7192,-3.7014,-3.6573,-3.6537,-3.6091,-3.5111,-3.5076,-3.4492,-3.3276,-3.2305,-3.1616,-3.119,-3.119,-3.119,-3.119,-3.119,-3.119,-3.119,-3.119,-3.119,-3.119,-3.119,-3.119,-3.119,-3.119,-3.119,-3.119,-3.119,-3.119,-3.119,-3.119,-3.119,-3.1258,-3.1684,-3.1819,-3.1921,-3.2307,-3.2645,-3.2983,-3.3444,-3.3998,-3.4776,-3.596,-3.6535,-3.6998,-3.7719,-3.7381,-3.711,-3.7855,-3.8294,-3.8734,-3.9503,-3.9876,-4.0113,-4.0113,-4.0113,-4.0113,-4.0113,-4.0113,-4.0113,-4.0113,-4.0113,-4.0113,-4.0113,-4.0113,-4.0113,-4.0113,-4.0113,-4.0113,-4.0113,-4.0113,-4.0113,-4.0113,-4.0113,-4.0113,-4.0113,-4.0113,-4.0113,-4.0113,-4.0113,-4.0113,-4.0113,-4.0113,-4.0113,-4.0079,-3.9673,-3.9503,-3.9436,-3.87,-3.8396,-3.8294,-3.755,-3.7009,-3.6648,-3.711,-3.6787,-3.6067]},{"header":{"parameterUnit":"m.s-1","parameterCategory":1,"la1":30.6,"la2":28.766,"lo1":-90.7593,"lo2":-88.6598,"dy":0.0162,"dx":0.0183,"nx":116,"ny":114,"refTime":"2023-08-09T12:00:00:Z","depth":0,"parameterNumber":3,"parameterNumberName":"V-component_of_WINDS"},"data":[0.0,0.0,0.0,0.0,0.0,0.0,0.0,0.0,0.0,0.0,0.0,0.0,0.0,0.0,0.0,0.0,0.0,0.0,0.0,0.0,0.0,0.0,0.0,0.0,0.0,0.0,0.0,0.0,0.0,0.0,0.0,0.0,0.0,0.0,0.0,0.0,0.0,0.0,0.0,0.0,0.0,0.0,0.0,0.0,0.0,0.0,0.0,0.0,0.0,0.0,0.0,0.0,0.0,0.0,0.0,0.0,0.0,0.0,0.0,0.0,0.0,0.0,0.0,0.0,0.0,0.0,0.0,0.0,0.0,0.0,0.0,0.0,0.0,0.0,0.0,0.0,0.0,0.0,0.0,0.0,0.0,0.0,0.0,0.0,0.0,0.0,0.0,0.0,0.0,0.0,0.0,0.0,0.0,0.0,0.0,0.0,0.0,0.0,0.0,0.0,0.0,0.0,0.0,0.0,0.0,0.0,0.0,0.0,0.0,0.0,0.0,0.0,0.0,0.0,0.0,0.0,0.0,0.0,0.0,0.0,0.0,0.0,0.0,0.0,0.0,0.0,0.0,0.0,0.0,0.0,0.0,0.0,0.0,0.0,0.0,0.0,0.0,0.0,0.0,0.0,0.0,0.0,0.0,0.0,0.0,0.0,0.0,0.0,0.0,0.0,0.0,0.0,0.0,0.0,0.0,0.0,0.0,0.0,0.0,0.0,0.0,0.0,0.0,0.0,0.0,0.0,0.0,0.0,0.0,0.0,0.0,0.0,0.0,0.0,0.0,0.0,0.0,0.0,0.0,0.0,0.0,0.0,0.0,0.0,0.0,0.0,0.0,0.0,0.0,0.0,0.0,0.0,0.0,0.0,0.0,0.0,0.0,0.0,0.0,0.0,0.0,0.0,0.0,0.0,0.0,0.0,0.0,0.0,0.0,0.0,0.0,0.0,0.0,0.0,0.0,0.0,0.0,0.0,0.0,0.0,0.0,0.0,0.0,0.0,0.0,0.0,0.0,0.0,0.0,0.0,0.0,0.0,0.0,0.0,0.0,0.0,0.0,0.0,0.0,0.0,0.0,0.0,0.0,0.0,0.0,0.0,0.0,0.0,0.0,0.0,0.0,0.0,0.0,0.0,0.0,0.0,0.0,0.0,0.0,0.0,0.0,0.0,0.0,0.0,0.0,0.0,0.0,0.0,0.0,0.0,0.0,0.0,0.0,0.0,0.0,0.0,0.0,0.0,0.0,0.0,0.0,0.0,0.0,0.0,0.0,0.0,0.0,0.0,0.0,0.0,0.0,0.0,0.0,0.0,0.0,0.0,0.0,0.0,0.0,0.0,0.0,0.0,0.0,0.0,0.0,0.0,0.0,0.0,0.0,0.0,0.0,0.0,0.0,0.0,0.0,0.0,0.0,0.0,0.0,0.0,0.0,0.0,0.0,0.0,0.0,0.0,0.0,0.0,0.0,0.0,0.0,0.0,0.0,0.0,0.0,0.0,0.0,0.0,0.0,0.0,0.0,0.0,0.0,0.0,0.0,0.0,0.0,0.0,0.0,0.0,0.0,0.0,0.0,0.0,0.0,0.0,0.0,0.0,0.0,0.0,0.0,0.0,0.0,0.0,0.0,0.0,0.0,0.0,0.0,0.0,0.0,0.0,0.0,0.0,0.0,0.0,0.0,0.0,0.0,0.0,0.0,0.0,0.0,0.0,0.0,0.0,0.0,0.0,0.0,0.0,0.0,0.0,0.0,0.0,0.0,0.0,0.0,0.0,0.0,0.0,0.0,0.0,0.0,0.0,0.0,0.0,0.0,0.0,0.0,0.0,0.0,0.0,0.0,0.0,0.0,0.0,0.0,0.0,0.0,0.0,0.0,0.0,0.0,0.0,0.0,0.0,0.0,0.0,0.0,0.0,0.0,0.0,0.0,0.0,0.0,0.0,0.0,0.0,0.0,0.0,0.0,0.0,0.0,0.0,0.0,0.0,0.0,0.0,0.0,0.0,0.0,0.0,0.0,0.0,0.0,0.0,0.0,0.0,0.0,0.0,0.0,0.0,0.0,0.0,0.0,0.0,0.0,0.0,0.0,0.0,0.0,0.0,0.0,0.0,0.0,0.0,0.0,0.0,0.0,0.0,0.0,0.0,0.0,0.0,0.0,0.0,0.0,0.0,0.0,0.0,0.0,0.0,0.0,0.0,0.0,0.0,0.0,0.0,0.0,0.0,0.0,0.0,0.0,0.0,0.0,0.0,0.0,0.0,0.0,0.0,0.0,0.0,0.0,0.0,0.0,0.0,0.0,0.0,0.0,0.0,0.0,0.0,0.0,0.0,0.0,0.0,0.0,0.0,0.0,0.0,0.0,0.0,0.0,0.0,0.0,0.0,0.0,0.0,0.0,0.0,0.0,0.0,0.0,0.0,0.0,0.0,0.0,0.0,0.0,0.0,0.0,0.0,0.0,0.0,0.0,0.0,0.0,0.0,0.0,0.0,0.0,0.0,0.0,0.0,0.0,0.0,0.0,0.0,0.0,0.0,0.0,0.0,0.0,0.0,0.0,0.0,0.0,0.0,0.0,0.0,0.0,0.0,0.0,0.0,0.0,0.0,0.0,0.0,0.0,0.0,0.0,0.0,0.0,0.0,0.0,0.0,0.0,0.0,0.0,0.0,0.0,0.0,0.0,0.0,0.0,0.0,0.0,0.0,0.0,0.0,0.0,0.0,0.0,0.0,0.0,0.0,0.0,0.0,0.0,0.0,0.0,0.0,0.0,0.0,0.0,0.0,0.0,0.0,0.0,0.0,0.0,0.0,0.0,0.0,0.0,0.0,0.0,0.0,0.0,0.0,0.0,0.0,0.0,0.0,0.0,0.0,0.0,0.0,0.0,0.0,0.0,0.0,0.0,0.0,0.0,0.0,0.0,0.0,0.0,0.0,0.0,0.0,0.0,0.0,0.0,0.0,0.0,0.0,0.0,0.0,0.0,0.0,0.0,0.0,0.0,0.0,0.0,0.0,0.0,0.0,0.0,0.0,0.0,0.0,0.0,0.0,0.0,0.0,0.0,0.0,0.0,0.0,0.0,0.0,0.0,0.0,0.0,0.0,0.0,0.0,0.0,0.0,0.0,0.0,0.0,0.0,0.0,0.0,0.0,0.0,0.0,0.0,0.0,0.0,0.0,0.0,0.0,0.0,0.0,0.0,0.0,0.0,0.0,0.0,0.0,0.0,0.0,0.0,0.0,0.0,0.0,0.0,0.0,0.0,0.0,0.0,0.0,0.0,0.0,0.0,0.0,0.0,0.0,0.0,0.0,0.0,0.0,0.0,0.0,0.0,0.0,0.0,0.0,0.0,0.0,0.0,0.0,0.0,0.0,0.0,0.0,0.0,0.0,0.0,0.0,0.0,0.0,0.0,0.0,0.0,0.0,0.0,0.0,0.0,0.0,0.0,0.0,0.0,0.0,0.0,0.0,0.0,0.0,0.0,0.0,0.0,0.0,0.0,0.0,0.0,0.0,0.0,0.0,0.0,0.0,0.0,0.0,0.0,0.0,0.0,0.0,0.0,0.0,0.0,0.0,0.0,0.0,0.0,0.0,0.0,0.0,0.0,0.0,0.0,0.0,0.0,0.0,0.0,0.0,0.0,0.0,0.0,0.0,0.0,0.0,0.0,0.0,0.0,0.0,0.0,0.0,0.0,0.0,0.0,0.0,0.0,0.0,0.0,0.0,0.0,0.0,0.0,0.0,0.0,0.0,0.0,0.0,0.0,0.0,0.0,0.0,0.0,0.0,0.0,0.0,0.0,0.0,0.0,0.0,0.0,0.0,0.0,0.0,0.0,0.0,0.0,0.0,0.0,0.0,0.0,0.0,0.0,0.0,0.0,0.0,0.0,0.0,0.0,0.0,0.0,0.0,0.0,0.0,0.0,0.0,0.0,0.0,0.0,0.0,0.0,0.0,0.0,0.0,0.0,0.0,0.0,0.0,0.0,0.0,0.0,0.0,0.0,0.0,0.0,0.0,0.0,0.0,0.0,0.0,0.0,0.0,0.0,0.0,0.0,0.0,0.0,0.0,0.0,0.0,0.0,0.0,0.0,0.0,0.0,0.0,0.0,0.0,0.0,0.0,0.0,0.0,0.0,0.0,0.0,0.0,0.0,0.0,0.0,0.0,0.0,0.0,0.0,0.0,0.0,0.0,0.0,0.0,0.0,0.0,0.0,0.0,0.0,0.0,0.0,0.0,0.0,0.0,0.0,0.0,0.0,0.0,0.0,0.0,0.0,0.0,0.0,0.0,0.0,0.0,0.0,0.0,0.0,0.0,0.0,0.0,0.0,0.0,0.0,0.0,0.0,0.0,0.0,0.0,0.0,0.0,0.0,0.0,0.0,0.0,0.0,0.0,0.0,0.0,0.0,0.0,0.0,0.0,0.0,0.0,0.0,0.0,0.0,0.0,0.0,0.0,0.0,0.0,0.0,0.0,0.0,0.0,0.0,0.0,0.0,0.0,0.0,0.0,0.0,0.0,0.0,0.0,0.0,0.0,0.0,0.0,0.0,0.0,0.0,0.0,0.0,0.0,0.0,0.0,0.0,0.0,0.0,0.0,0.0,0.0,0.0,0.0,0.0,0.0,0.0,0.0,0.0,0.0,0.0,0.0,0.0,0.0,0.0,0.0,0.0,0.0,0.0,0.0,0.0,0.0,0.0,0.0,0.0,0.0,0.0,0.0,0.0,0.0,0.0,0.0,0.0,0.0,0.0,0.0,0.0,0.0,0.0,0.0,0.0,0.0,0.0,0.0,0.0,0.0,0.0,0.0,0.0,0.0,0.0,0.0,0.0,0.0,0.0,0.0,0.0,0.0,0.0,0.0,0.0,0.0,0.0,0.0,0.0,0.0,0.0,0.0,0.0,0.0,0.0,0.0,0.0,0.0,0.0,0.0,0.0,0.0,0.0,0.0,0.0,0.0,0.0,0.0,0.0,0.0,0.0,0.0,0.0,0.0,0.0,0.0,0.0,0.0,0.0,0.0,0.0,0.0,0.0,0.0,0.0,0.0,0.0,0.0,0.0,0.0,0.0,0.0,0.0,0.0,0.0,0.0,0.0,0.0,0.0,0.0,0.0,0.0,0.0,0.0,0.0,0.0,0.0,0.0,0.0,0.0,0.0,0.0,0.0,0.0,0.0,0.0,0.0,0.0,0.0,0.0,0.0,0.0,0.0,0.0,0.0,0.0,0.0,0.0,0.0,0.0,0.0,0.0,0.0,0.0,0.0,0.0,0.0,0.0,0.0,0.0,0.0,0.0,0.0,0.0,0.0,0.0,0.0,0.0,0.0,0.0,0.0,0.0,0.0,0.0,0.0,0.0,0.0,0.0,0.0,0.0,0.0,0.0,0.0,0.0,0.0,0.0,0.0,0.0,0.0,0.0,0.0,0.0,0.0,0.0,0.0,0.0,0.0,0.0,0.0,0.0,0.0,0.0,0.0,0.0,0.0,0.0,0.0,0.0,0.0,0.0,0.0,0.0,0.0,0.0,0.0,0.0,0.0,0.0,0.0,0.0,0.0,0.0,0.0,0.0,0.0,0.0,0.0,0.0,0.0,0.0,0.0,0.0,0.0,0.0,0.0,0.0,0.0,0.0,0.0,0.0,0.0,0.0,0.0,0.0,0.0,0.0,0.0,0.0,0.0,0.0,0.0,0.0,0.0,0.0,0.0,0.0,0.0,0.0,0.0,0.0,0.0,0.0,0.0,0.0,0.0,0.0,0.0,0.0,0.0,0.0,0.0,0.0,0.0,0.0,0.0,0.0,0.0,0.0,0.0,0.0,0.0,0.0,0.0,0.0,0.0,0.0,0.0,0.0,0.0,0.0,0.0,0.0,0.0,0.0,0.0,0.0,0.0,0.0,0.0,0.0,0.0,0.0,0.0,0.0,0.0,0.0,0.0,0.0,0.0,0.0,0.0,0.0,0.0,0.0,0.0,0.0,0.0,0.0,0.0,0.0,0.0,0.0,0.0,0.0,0.0,0.0,0.0,0.0,0.0,0.0,0.0,0.0,0.0,0.0,0.0,0.0,0.0,0.0,0.0,0.0,0.0,0.0,0.0,0.0,0.0,0.0,0.0,-2.3647,0.0,0.0,0.0,0.0,0.0,0.0,0.0,0.0,0.0,0.0,0.0,0.0,0.0,0.0,0.0,0.0,0.0,0.0,0.0,0.0,0.0,0.0,0.0,0.0,0.0,0.0,0.0,0.0,0.0,0.0,0.0,0.0,0.0,0.0,0.0,0.0,0.0,0.0,0.0,0.0,0.0,0.0,0.0,0.0,0.0,0.0,0.0,0.0,0.0,0.0,0.0,0.0,0.0,0.0,0.0,0.0,0.0,0.0,0.0,0.0,0.0,0.0,0.0,0.0,0.0,0.0,0.0,0.0,0.0,0.0,0.0,0.0,0.0,0.0,0.0,0.0,0.0,0.0,0.0,0.0,0.0,0.0,0.0,0.0,0.0,0.0,0.0,0.0,0.0,0.0,0.0,0.0,0.0,0.0,0.0,0.0,0.0,0.0,0.0,0.0,0.0,0.0,0.0,0.0,0.0,0.0,0.0,0.0,0.0,0.0,0.0,0.0,0.0,0.0,0.0,0.0,-2.4707,0.0,0.0,0.0,0.0,0.0,0.0,0.0,0.0,0.0,0.0,0.0,0.0,0.0,0.0,0.0,0.0,0.0,0.0,0.0,0.0,0.0,0.0,0.0,0.0,0.0,0.0,0.0,0.0,0.0,0.0,0.0,0.0,0.0,0.0,0.0,0.0,0.0,0.0,0.0,0.0,0.0,0.0,0.0,0.0,0.0,0.0,0.0,0.0,0.0,0.0,0.0,0.0,0.0,0.0,0.0,0.0,0.0,0.0,0.0,0.0,0.0,0.0,0.0,0.0,0.0,0.0,0.0,0.0,0.0,0.0,0.0,0.0,0.0,0.0,0.0,0.0,0.0,0.0,0.0,0.0,0.0,0.0,0.0,0.0,0.0,0.0,0.0,0.0,0.0,0.0,0.0,0.0,0.0,0.0,0.0,0.0,0.0,0.0,0.0,0.0,0.0,0.0,0.0,0.0,0.0,0.0,0.0,0.0,-3.0176,-3.0605,-3.0469,-3.084,-3.0996,-3.0859,-2.8672,-2.7148,-2.6083,0.0,0.0,0.0,0.0,0.0,0.0,0.0,0.0,0.0,0.0,0.0,0.0,0.0,0.0,0.0,0.0,0.0,0.0,0.0,0.0,0.0,0.0,0.0,0.0,0.0,0.0,0.0,0.0,0.0,0.0,0.0,0.0,0.0,0.0,0.0,0.0,0.0,0.0,0.0,-2.4969,-2.5684,-2.6211,-2.6426,0.0,0.0,0.0,0.0,0.0,0.0,0.0,0.0,0.0,0.0,0.0,0.0,0.0,0.0,0.0,0.0,0.0,0.0,0.0,0.0,0.0,0.0,0.0,0.0,0.0,0.0,0.0,0.0,0.0,0.0,0.0,0.0,0.0,0.0,0.0,0.0,0.0,0.0,0.0,0.0,0.0,0.0,0.0,0.0,-2.2756,-2.2766,0.0,0.0,0.0,0.0,0.0,0.0,0.0,0.0,0.0,0.0,0.0,0.0,0.0,-2.8789,-2.9609,-3.1641,-3.25,-3.2226,-3.4219,-3.4766,-3.4023,-3.4082,-3.4101,-3.4062,-3.3359,0.0,-2.7832,-2.6289,0.0,0.0,0.0,0.0,0.0,0.0,0.0,0.0,0.0,0.0,0.0,0.0,0.0,0.0,0.0,0.0,0.0,0.0,0.0,0.0,0.0,0.0,0.0,0.0,0.0,0.0,0.0,0.0,0.0,0.0,0.0,0.0,0.0,0.0,0.0,0.0,-2.4473,-2.5254,-2.6172,-2.6816,-2.7461,-2.8047,-2.709,-2.6328,-2.5615,-2.4648,0.0,0.0,0.0,0.0,0.0,0.0,0.0,0.0,0.0,0.0,0.0,0.0,0.0,0.0,0.0,0.0,0.0,0.0,0.0,0.0,0.0,0.0,0.0,0.0,0.0,0.0,0.0,0.0,0.0,0.0,0.0,0.0,0.0,0.0,0.0,0.0,0.0,0.0,0.0,-2.2997,-2.3965,-2.3179,-2.3945,-2.4141,0.0,0.0,0.0,0.0,0.0,0.0,0.0,0.0,0.0,-2.9492,-3.0781,-3.1855,-3.2715,-3.4414,-3.5273,-3.5332,-3.6523,-3.7012,-3.6875,-3.6875,-3.6738,-3.6484,-3.6074,-3.4512,-3.209,-2.9648,-2.7832,-2.6504,0.0,0.0,0.0,0.0,-2.6671,-2.7214,0.0,0.0,0.0,0.0,0.0,0.0,0.0,0.0,0.0,0.0,0.0,0.0,0.0,0.0,0.0,0.0,0.0,0.0,0.0,0.0,0.0,0.0,0.0,0.0,0.0,0.0,0.0,0.0,-2.5399,-2.6406,-2.7676,-2.8242,-2.9004,-2.9922,-3.0019,-2.8945,-2.6941,-2.6113,-2.5419,0.0,0.0,0.0,0.0,0.0,0.0,0.0,0.0,0.0,0.0,0.0,0.0,0.0,0.0,0.0,0.0,0.0,0.0,0.0,0.0,0.0,0.0,0.0,0.0,0.0,0.0,0.0,0.0,0.0,0.0,0.0,0.0,0.0,0.0,0.0,0.0,0.0,0.0,-2.4355,-2.5,-2.3432,-2.4922,-2.541,0.0,0.0,0.0,0.0,0.0,0.0,-2.8785,-2.9609,-3.0879,-3.2617,-3.3906,-3.498,-3.584,-3.7051,-3.7812,-3.8125,-3.8555,-3.8926,-3.9238,-3.9121,-3.8906,-3.8574,-3.8144,-3.7285,-3.5957,-3.2715,-3.0488,-2.9078,-2.8555,-2.8053,-2.7864,-2.9721,-3.0291,-3.0567,0.0,0.0,0.0,0.0,0.0,0.0,0.0,0.0,0.0,0.0,0.0,0.0,0.0,0.0,0.0,0.0,0.0,0.0,0.0,0.0,0.0,0.0,0.0,0.0,0.0,0.0,0.0,0.0,0.0,-2.8237,-2.9509,-3.0332,-3.1406,-3.2617,-3.3027,-3.2246,-3.0488,-2.8418,-2.7552,-2.7337,0.0,0.0,0.0,0.0,0.0,0.0,0.0,0.0,0.0,0.0,0.0,0.0,0.0,0.0,0.0,0.0,0.0,0.0,0.0,0.0,0.0,0.0,0.0,0.0,0.0,0.0,0.0,0.0,0.0,0.0,0.0,0.0,0.0,0.0,0.0,0.0,0.0,0.0,0.0,-2.4004,-2.6699,0.0,0.0,0.0,0.0,-2.8633,-2.9101,-3.0154,-3.1855,-3.2734,-3.3984,-3.5742,-3.7031,-3.8105,-3.8965,-3.9883,-4.0332,-4.0371,-4.0801,-4.1016,-4.1035,-4.0605,-4.041,-4.0371,-3.9941,-3.9258,-3.8125,-3.4277,-3.2168,-3.1388,-3.1761,-3.1593,-3.1243,-3.3032,-3.3977,-3.4437,0.0,0.0,0.0,0.0,0.0,0.0,0.0,0.0,0.0,0.0,0.0,0.0,0.0,0.0,0.0,0.0,0.0,0.0,0.0,0.0,0.0,0.0,0.0,0.0,0.0,0.0,0.0,0.0,0.0,0.0,-3.1309,-3.1836,-3.2793,-3.4043,-3.4492,-3.4355,-3.3633,-3.1191,-2.9492,-2.8281,-2.6133,-2.4922,0.0,0.0,0.0,0.0,0.0,0.0,0.0,0.0,0.0,0.0,0.0,0.0,0.0,0.0,0.0,0.0,0.0,0.0,0.0,0.0,0.0,0.0,0.0,0.0,0.0,0.0,0.0,0.0,0.0,0.0,0.0,0.0,0.0,0.0,0.0,0.0,0.0,-2.7578,-3.0059,0.0,0.0,-3.0252,-3.0918,-3.1758,-3.2226,-3.3223,-3.498,-3.5859,-3.6992,-3.8457,-3.9492,-4.0156,-4.0469,-4.1055,-4.1211,-4.0937,-4.1094,-4.1172,-4.1172,-4.1016,-4.0781,-4.0508,-4.0371,-3.9961,-3.9297,-3.7617,-3.5781,-3.4098,-3.4816,-3.463,-3.4282,-3.7229,-3.8278,-3.831,0.0,0.0,0.0,0.0,0.0,0.0,0.0,0.0,0.0,0.0,0.0,0.0,0.0,0.0,0.0,0.0,0.0,0.0,0.0,0.0,0.0,0.0,0.0,0.0,0.0,0.0,0.0,0.0,0.0,0.0,0.0,-3.3027,-3.3906,-3.5176,-3.5762,-3.6035,-3.5918,-3.4043,-3.1992,-2.9863,-2.7988,-2.6894,-2.6094,0.0,0.0,0.0,0.0,0.0,0.0,0.0,0.0,0.0,0.0,0.0,0.0,0.0,0.0,0.0,0.0,0.0,0.0,0.0,0.0,0.0,0.0,0.0,0.0,0.0,0.0,0.0,0.0,0.0,0.0,0.0,0.0,0.0,0.0,0.0,-3.0273,-3.0487,-3.2988,-3.4219,-3.293,-3.3476,-3.4238,-3.5098,-3.5703,-3.6738,-3.832,-3.8926,-3.9766,-4.0937,-4.1387,-4.166,-4.1816,-4.1953,-4.1875,-4.1601,-4.1445,-4.1387,-4.1387,-4.123,-4.1016,-4.0742,-4.147,-4.1594,-4.1369,-4.1555,-4.0565,-3.8895,-3.8913,-3.8734,-3.8803,-4.1591,-4.2369,-4.2005,0.0,0.0,0.0,0.0,0.0,0.0,0.0,0.0,0.0,0.0,0.0,0.0,0.0,0.0,0.0,0.0,0.0,0.0,0.0,0.0,0.0,0.0,0.0,0.0,0.0,0.0,0.0,0.0,0.0,0.0,0.0,0.0,-3.4824,-3.6113,-3.6953,-3.7324,-3.7285,-3.6894,-3.5019,-3.2268,-3.082,-2.9746,-2.8711,0.0,0.0,0.0,0.0,0.0,0.0,0.0,0.0,0.0,0.0,0.0,0.0,0.0,0.0,0.0,0.0,0.0,0.0,0.0,0.0,0.0,0.0,0.0,0.0,0.0,0.0,0.0,0.0,0.0,0.0,0.0,0.0,0.0,-2.7865,-3.0742,-3.2773,-3.2402,-3.5351,-3.6601,-3.4531,-3.623,-3.7812,-3.8652,-3.9531,-4.0547,-4.1777,-4.1836,-4.2226,-4.3066,-4.2695,-4.2676,-4.3086,-4.2676,-4.2461,-4.2441,-4.2012,-4.1797,-4.1777,-4.1445,-4.1327,-4.1405,-4.3359,-4.4172,-4.428,-4.5808,-4.6186,-4.5628,-4.4028,-4.3854,-4.4657,-4.5894,-4.5974,-4.5246,0.0,0.0,0.0,0.0,0.0,0.0,0.0,0.0,0.0,0.0,0.0,0.0,0.0,0.0,0.0,0.0,0.0,0.0,0.0,0.0,0.0,0.0,0.0,0.0,0.0,0.0,0.0,0.0,0.0,0.0,0.0,0.0,0.0,-3.7402,-3.7656,-3.7754,-3.7773,-3.7969,-3.7207,-3.5644,-3.2773,-3.1113,-3.0098,0.0,0.0,0.0,0.0,0.0,0.0,0.0,0.0,0.0,0.0,0.0,0.0,0.0,0.0,0.0,0.0,0.0,0.0,0.0,0.0,0.0,0.0,0.0,0.0,0.0,0.0,0.0,0.0,0.0,0.0,0.0,0.0,-3.0566,-3.0879,-3.3359,-3.5547,-3.668,-3.8769,-4.0117,-4.0137,-4.0957,-4.1582,-4.1816,-4.2344,-4.2676,-4.2715,-4.2734,-4.2969,-4.3516,-4.3418,-4.3418,-4.3535,-4.3418,-4.3203,-4.2891,-4.2148,-4.1797,-4.1856,-4.2839,-4.3283,-4.3435,-4.5351,-4.6219,-4.6219,-4.6675,-4.733,-4.8006,-4.6461,-4.5573,-4.527,-4.6439,-4.6301,-4.5372,0.0,0.0,0.0,0.0,0.0,0.0,0.0,0.0,0.0,0.0,0.0,0.0,0.0,0.0,0.0,0.0,0.0,0.0,0.0,0.0,0.0,0.0,0.0,0.0,0.0,0.0,0.0,0.0,0.0,0.0,0.0,0.0,0.0,0.0,-3.8379,-3.8574,-3.875,-3.8809,-3.8555,-3.791,-3.5723,-3.4238,-3.3008,-3.0312,-2.9082,-2.8633,-2.7187,-2.6506,-2.5942,-2.398,0.0,0.0,0.0,0.0,0.0,0.0,0.0,0.0,0.0,0.0,0.0,0.0,0.0,0.0,0.0,0.0,0.0,0.0,0.0,0.0,0.0,0.0,0.0,0.0,-3.2246,-3.4336,-3.5508,-3.6641,-3.7988,-3.9726,-4.1133,-4.2226,-4.2891,-4.3359,-4.3633,-4.3633,-4.4023,-4.416,-4.3906,-4.3887,-4.4082,-4.4512,-4.4355,-4.4258,-4.4258,-4.4082,-4.3769,-4.332,-4.248,-4.2526,-4.3334,-4.3877,-4.4527,0.0,-4.7394,-4.8289,-4.8289,-4.9176,-4.9936,0.0,0.0,0.0,0.0,0.0,-4.6476,-4.507,0.0,0.0,0.0,0.0,0.0,0.0,0.0,0.0,0.0,0.0,0.0,0.0,0.0,0.0,0.0,0.0,0.0,0.0,0.0,0.0,0.0,0.0,0.0,0.0,0.0,0.0,0.0,0.0,0.0,0.0,0.0,0.0,0.0,0.0,0.0,-3.9512,-3.9863,-3.9453,-3.9277,-3.9238,-3.8809,-3.7851,-3.6328,-3.3164,-3.207,-3.1973,-2.9883,-2.873,-2.8043,-2.7102,0.0,0.0,0.0,0.0,0.0,0.0,0.0,0.0,0.0,0.0,0.0,0.0,0.0,0.0,0.0,0.0,0.0,0.0,0.0,0.0,0.0,0.0,0.0,0.0,-3.5957,-3.834,-4.0508,-4.0215,-4.0371,-4.1914,-4.2773,-4.3418,-4.3887,-4.4336,-4.4609,-4.4609,-4.5039,-4.5273,-4.5176,0.0,0.0,0.0,0.0,-4.5098,-4.5098,-4.4687,-4.4238,-4.3769,-4.2851,-4.336,-4.5013,-4.4363,-4.5201,-4.7102,-4.9153,-5.0103,-5.0481,-5.2189,-5.2854,-5.2423,-4.962,-4.9206,-5.0042,-4.841,-4.6577,-4.4895,0.0,0.0,0.0,0.0,0.0,0.0,0.0,0.0,0.0,0.0,0.0,0.0,0.0,0.0,0.0,0.0,0.0,0.0,0.0,0.0,0.0,0.0,0.0,0.0,0.0,0.0,0.0,0.0,0.0,0.0,0.0,0.0,0.0,0.0,0.0,0.0,-3.9883,-3.9805,-3.9766,-3.9726,-3.9258,-3.8125,-3.6523,-3.5156,-3.3828,-3.248,-3.1035,-3.084,-3.1014,-2.888,-2.844,-2.8253,-2.5565,0.0,0.0,0.0,0.0,0.0,0.0,0.0,0.0,0.0,0.0,0.0,0.0,0.0,0.0,0.0,0.0,0.0,0.0,0.0,0.0,-3.6055,-3.8144,-4.0137,-4.2285,-4.3047,-4.3516,-4.3848,-4.4043,-4.4453,-4.5215,-4.5683,-4.5937,-4.5937,-4.666,-4.6777,-4.6094,-4.6055,0.0,-4.6172,-4.5762,-4.5547,-4.5547,-4.5117,-4.4687,-4.4258,0.0,0.0,-4.3002,-4.3772,-4.5201,-4.7102,-4.9153,-5.0857,-5.2352,-5.2698,-5.2402,-5.1523,-5.0423,-4.9616,-4.8937,-4.7732,-4.7004,-4.6466,0.0,0.0,0.0,0.0,0.0,0.0,0.0,0.0,0.0,0.0,0.0,0.0,0.0,0.0,0.0,0.0,0.0,0.0,0.0,0.0,0.0,0.0,0.0,0.0,0.0,0.0,0.0,0.0,0.0,0.0,0.0,0.0,0.0,0.0,0.0,0.0,0.0,-4.0527,-4.0293,-3.9902,-3.9863,-3.8965,-3.7539,-3.668,-3.5547,-3.4297,-3.3437,-3.2851,-3.2377,-3.187,-3.1475,-3.102,-2.9578,-2.8056,-2.6608,0.0,0.0,0.0,0.0,0.0,0.0,0.0,0.0,0.0,0.0,0.0,0.0,0.0,0.0,-3.1504,0.0,0.0,-3.7051,-3.9199,-4.1016,-4.2598,-4.3867,-4.4805,-4.5195,-4.4766,-4.4902,-4.5371,-4.623,-4.6484,-4.6621,-4.6621,-4.7207,-4.7305,-4.666,-4.6621,-4.6621,-4.6621,-4.6211,-4.5781,-4.5351,-4.5137,-4.5173,-4.5554,-4.4724,-4.5346,-4.7387,-4.7409,-4.8511,-5.0389,-5.1119,-5.1956,-5.2904,-5.2628,-5.2026,-5.1222,-5.0645,-4.9741,-4.8661,-4.7832,-4.7179,-4.6552,0.0,0.0,0.0,0.0,0.0,0.0,0.0,0.0,0.0,0.0,0.0,0.0,0.0,0.0,0.0,0.0,0.0,0.0,0.0,0.0,0.0,0.0,0.0,0.0,0.0,0.0,0.0,0.0,0.0,0.0,0.0,0.0,0.0,0.0,0.0,0.0,0.0,0.0,-4.0781,-4.0156,-4.0332,-3.9766,-3.873,-3.7773,-3.6836,-3.5937,-3.5254,-3.3906,-3.2617,-3.3906,-3.3652,-3.2832,-3.2988,-3.2031,-3.0353,-2.8164,-2.6973,0.0,0.0,0.0,0.0,0.0,0.0,0.0,0.0,0.0,-3.0566,-3.1483,-3.3359,-3.5254,-3.6738,-3.8867,-4.0801,-4.209,-4.3555,-4.4668,-4.5098,-4.582,-4.6016,-4.5234,-4.5683,-4.6269,-4.6875,-4.7012,-4.7012,-4.6933,-4.7324,-4.7383,-4.6953,-4.6933,-4.6894,-4.6816,-4.6484,-4.6091,-4.5797,-4.5633,-4.6223,-4.7533,-4.7039,-4.8488,-5.153,-5.0663,-5.1201,-5.2994,-5.2898,-5.2929,-5.2879,-5.2226,-5.1674,-5.1222,-5.0519,-4.964,-4.8711,-4.8134,-4.7355,-4.6451,0.0,0.0,0.0,0.0,0.0,0.0,0.0,0.0,0.0,0.0,0.0,0.0,0.0,0.0,0.0,0.0,0.0,0.0,0.0,0.0,0.0,0.0,0.0,0.0,0.0,0.0,0.0,0.0,0.0,0.0,0.0,0.0,0.0,0.0,0.0,0.0,0.0,0.0,0.0,0.0,-4.0254,-3.9883,-3.9609,-3.834,-3.709,-3.582,-3.4219,-3.2539,-3.1309,-3.2578,-3.291,-3.293,-3.3691,-3.3535,-3.2559,-3.0019,0.0,-2.6328,-2.6094,-2.6484,0.0,-2.9297,-2.959,-3.0565,0.0,0.0,-3.5566,-3.6816,-3.8476,-3.9902,-4.0488,-4.1445,-4.2578,-4.3887,-4.459,-4.5098,-4.5547,-4.5996,-4.6133,-4.5664,-4.6641,-4.7246,-4.6953,-4.7285,-4.7344,-4.6953,-4.7324,-4.7383,-4.6953,-4.6933,-4.6758,-4.6387,-4.6328,-4.6988,-4.8546,-4.8046,-4.8613,-5.032,-4.9385,-4.8946,-4.8877,-4.841,-4.9037,-5.0506,-5.2213,-5.2929,-5.2854,-5.18,-5.1348,-5.1172,-5.0117,-4.9314,-4.8711,-4.8134,-4.7832,-4.7506,0.0,0.0,0.0,0.0,0.0,0.0,0.0,0.0,0.0,0.0,0.0,0.0,0.0,0.0,0.0,0.0,0.0,0.0,0.0,0.0,0.0,0.0,0.0,0.0,0.0,0.0,0.0,0.0,0.0,0.0,0.0,0.0,0.0,0.0,0.0,0.0,0.0,0.0,0.0,0.0,0.0,-3.9726,-3.9297,-3.75,-3.5859,-3.4375,-3.3418,-3.1953,0.0,0.0,-3.1855,-3.2246,-3.334,-3.2891,-3.1543,-2.9434,-2.8203,0.0,-2.8398,0.0,0.0,0.0,-3.3633,-3.5332,-3.7324,-3.8223,-3.8926,-3.9961,-4.1348,-4.2519,-4.2969,-4.3535,-4.4199,0.0,-4.5293,-4.5547,-4.5976,-4.5976,-4.5683,-4.5019,-4.5625,-4.6211,-4.6543,-4.6738,-4.6855,-4.6933,-4.7324,-4.7383,-4.6953,-4.6933,-4.6855,-4.668,-4.7675,-4.7829,-4.7082,-4.9041,-5.0235,-5.0703,-5.127,-5.1883,-5.2498,-5.1994,-5.1727,-5.1747,-5.256,-5.2929,-5.2854,-5.1724,-5.1071,-5.067,-4.954,-4.8761,-4.8234,-4.7983,-4.7707,-4.723,0.0,0.0,0.0,0.0,0.0,0.0,0.0,0.0,0.0,0.0,0.0,0.0,0.0,0.0,0.0,0.0,0.0,0.0,0.0,0.0,0.0,0.0,0.0,0.0,0.0,0.0,0.0,0.0,0.0,0.0,0.0,0.0,0.0,0.0,0.0,0.0,0.0,0.0,0.0,0.0,0.0,0.0,-3.8613,-3.6348,-3.4414,-3.2793,-3.2012,-3.0449,0.0,0.0,-2.9844,-3.0351,-3.1738,-3.1426,-3.0273,-2.9023,-2.8555,-2.8672,-2.959,0.0,0.0,-3.4687,-3.7324,-3.9551,-3.9922,-4.1094,-4.2226,-4.2617,-4.3516,-4.4277,-4.4375,-4.4551,0.0,-4.541,-4.5508,-4.5644,-4.6074,-4.5664,-4.5,-4.4141,-4.4101,-4.4414,-4.5156,-4.5664,-4.6133,-4.6562,-4.6875,-4.6973,-4.6758,-4.7335,-4.7686,-4.7686,-4.897,-4.9237,-4.8377,-5.0333,-5.1673,-5.2372,-5.3271,-5.423,-5.5139,-5.4436,-5.3683,-5.2929,-5.2929,-5.2854,-5.2628,-5.1674,-5.0946,-5.0318,-4.9213,-4.841,-4.7883,-4.7732,-4.7355,-4.6677,0.0,0.0,0.0,0.0,0.0,0.0,0.0,0.0,0.0,0.0,0.0,0.0,0.0,0.0,0.0,0.0,0.0,0.0,0.0,0.0,0.0,0.0,0.0,0.0,0.0,0.0,0.0,0.0,0.0,0.0,0.0,0.0,0.0,0.0,0.0,0.0,0.0,0.0,0.0,0.0,0.0,0.0,-3.7676,-3.5098,-3.3066,-3.1348,-2.9648,0.0,0.0,0.0,-2.6523,-2.6836,-2.8516,-2.9316,0.0,-2.9607,-2.9238,0.0,0.0,0.0,-3.4101,-3.707,-3.9766,-4.2031,-4.3262,-4.4883,-4.5898,-4.5098,-4.5293,-4.5371,-4.4551,-4.4043,-4.4023,-4.4902,-4.5039,-4.5195,-4.5625,-4.4961,-4.4121,-4.3223,-4.2402,-4.207,0.0,-4.4082,-4.5234,-4.5683,-4.5723,-4.5898,-4.6308,-4.8311,-4.9552,-4.9552,-4.9552,-5.1376,-5.5059,-5.2594,-5.3116,-5.6774,-5.5772,-5.5042,-5.4561,-5.3457,-5.2955,-5.2929,-5.2929,-5.2628,-5.2076,-5.1523,-5.0946,-5.0318,-4.9213,-4.841,-4.7857,-4.733,-4.6803,-4.61,0.0,0.0,0.0,0.0,0.0,0.0,0.0,0.0,0.0,0.0,0.0,0.0,0.0,0.0,0.0,0.0,0.0,0.0,0.0,0.0,0.0,0.0,0.0,0.0,0.0,0.0,0.0,0.0,0.0,0.0,0.0,0.0,0.0,0.0,0.0,0.0,0.0,0.0,0.0,0.0,0.0,0.0,-3.6719,-3.3281,-3.0879,-2.9043,0.0,0.0,0.0,0.0,0.0,0.0,-2.6094,0.0,0.0,-2.7617,-2.8574,-2.9844,0.0,0.0,-3.8301,-4.0742,-4.3086,-4.5058,-4.6055,-4.6504,-4.6484,-4.5625,-4.4433,-4.3164,-4.2031,-4.1465,-4.1465,-4.2324,-4.3672,-4.4766,-4.5195,-4.5234,-4.4492,-4.248,-4.2226,0.0,0.0,0.0,0.0,-4.4746,-4.5078,-4.6095,-4.8011,-4.7652,-4.8805,-5.1678,-5.1761,-5.2442,-5.3736,-5.5019,-5.5356,-5.4799,-5.4466,-5.416,-5.3959,-5.3256,-5.2929,-5.2929,-5.2929,-5.2829,-5.2578,-5.1649,-5.0946,-5.0268,-4.8786,-4.7857,-4.728,-4.6376,-4.5673,-4.5121,0.0,0.0,0.0,0.0,0.0,0.0,0.0,0.0,0.0,0.0,0.0,0.0,0.0,0.0,0.0,0.0,0.0,0.0,0.0,0.0,0.0,0.0,0.0,0.0,0.0,0.0,0.0,0.0,0.0,0.0,0.0,0.0,0.0,0.0,0.0,0.0,0.0,0.0,0.0,0.0,0.0,0.0,-3.3789,-3.0684,-2.8516,0.0,0.0,0.0,0.0,0.0,0.0,0.0,0.0,-2.5399,-2.6445,-2.7598,-2.9355,-3.1738,0.0,-3.8398,-4.1191,-4.3808,-4.5723,-4.7129,-4.7676,-4.7344,-4.6465,-4.4844,-4.2793,-4.0781,-3.9199,-3.8184,-3.8105,-3.9746,-4.1172,-4.2617,-4.4121,-4.418,-4.3883,-4.3179,-4.2309,0.0,0.0,0.0,0.0,-4.3828,-4.4473,-4.5956,-4.8588,-4.8854,-5.0613,-5.4239,-5.4344,-5.4661,-5.5228,-5.6231,-5.5797,-5.4028,-5.3796,-5.3607,-5.3406,-5.308,-5.2929,-5.2929,-5.2929,-5.2703,-5.2277,-5.1574,-5.082,-4.9967,-4.8485,-4.7707,-4.7255,-4.5974,-4.5121,-4.4593,0.0,0.0,0.0,0.0,0.0,0.0,0.0,0.0,0.0,0.0,0.0,0.0,0.0,0.0,0.0,0.0,0.0,0.0,0.0,0.0,0.0,0.0,0.0,0.0,0.0,0.0,0.0,0.0,0.0,0.0,0.0,0.0,0.0,0.0,0.0,0.0,0.0,0.0,0.0,0.0,0.0,0.0,-2.9333,-2.7539,0.0,0.0,0.0,0.0,0.0,0.0,0.0,0.0,0.0,0.0,-2.8574,-2.9551,-3.166,-3.4531,-3.8359,-4.0703,-4.2851,-4.6172,-4.7617,-4.8223,-4.8164,-4.7422,-4.5898,-4.2891,-4.0449,-3.8223,0.0,0.0,-3.4355,-3.7305,-3.8027,-3.9375,-4.2715,-4.2226,-4.2466,0.0,0.0,0.0,0.0,0.0,0.0,-4.3027,0.0,-4.5704,-4.8335,-5.18,-5.4742,-5.7138,-5.7009,-5.7781,-5.9533,-5.6285,-5.466,-5.4561,-5.3959,-5.3406,-5.2929,-5.2929,-5.2929,-5.2929,-5.2904,-5.2302,-5.1322,-5.1272,-5.0594,-4.949,-4.836,-4.7883,-4.7682,-4.61,-4.5146,-4.4543,0.0,0.0,0.0,0.0,0.0,0.0,0.0,0.0,0.0,0.0,0.0,0.0,0.0,0.0,0.0,0.0,0.0,0.0,0.0,0.0,0.0,0.0,0.0,0.0,0.0,0.0,0.0,0.0,0.0,0.0,0.0,0.0,0.0,0.0,0.0,0.0,0.0,0.0,0.0,0.0,0.0,0.0,-2.7982,0.0,0.0,0.0,0.0,0.0,0.0,0.0,0.0,0.0,0.0,0.0,-3.0195,-3.2676,0.0,-3.7969,-4.1211,-4.3828,-4.5976,-4.75,-4.8281,-4.8437,-4.748,-4.584,-4.3672,-4.0644,-3.7051,-3.3867,0.0,0.0,0.0,-3.5703,-3.9531,0.0,-4.4316,-4.5605,0.0,0.0,0.0,-4.5943,-4.354,-4.4639,0.0,0.0,-4.5718,-4.8223,-5.1167,-5.2807,-5.5484,-5.9316,-5.7445,-5.7612,-6.0111,-5.7248,-5.5382,-5.4561,-5.3582,-5.3055,-5.2929,-5.2929,-5.2929,-5.2904,-5.2503,-5.2151,-5.1825,-5.0996,-5.0218,-4.949,-4.836,-4.7682,-4.723,-4.6401,-4.5472,-4.4593,0.0,0.0,0.0,0.0,0.0,0.0,0.0,0.0,0.0,0.0,0.0,0.0,0.0,0.0,0.0,0.0,0.0,0.0,0.0,0.0,0.0,0.0,0.0,0.0,0.0,0.0,0.0,0.0,0.0,0.0,0.0,0.0,0.0,0.0,0.0,0.0,0.0,0.0,0.0,0.0,0.0,0.0,0.0,0.0,0.0,0.0,0.0,0.0,0.0,0.0,0.0,-2.7422,-2.9101,-3.1211,-3.3594,-3.6426,0.0,-4.1172,-4.4004,-4.6094,-4.7656,-4.832,-4.8242,-4.748,-4.541,-4.3144,-4.0391,-3.6601,-3.3164,0.0,0.0,0.0,0.0,0.0,0.0,0.0,-4.3828,-4.5351,-4.6304,0.0,-4.7837,0.0,-4.6486,-4.7773,-4.8328,0.0,-4.7706,-4.921,-5.1823,-5.3975,-5.6733,-6.0154,-5.8561,-5.8069,-5.888,-5.6872,-5.5415,-5.4632,-5.3457,-5.2929,-5.2929,-5.2929,-5.2929,-5.2904,0.0,-5.1975,-5.1649,-5.0519,-4.9741,-4.9113,-4.8008,-4.723,-4.6677,-4.5874,-4.502,-4.4242,0.0,0.0,0.0,0.0,0.0,0.0,0.0,0.0,0.0,0.0,0.0,0.0,0.0,0.0,0.0,0.0,0.0,0.0,0.0,0.0,0.0,0.0,0.0,0.0,0.0,0.0,0.0,0.0,0.0,0.0,0.0,0.0,0.0,0.0,0.0,0.0,0.0,0.0,0.0,0.0,0.0,0.0,0.0,0.0,0.0,0.0,0.0,0.0,0.0,0.0,-2.8281,-2.9824,-3.2129,-3.4805,-3.7637,-4.0332,-4.2207,-4.3965,-4.6426,-4.7734,-4.8457,-4.8769,-4.7851,-4.6035,-4.2969,-4.0078,-3.6758,-3.2129,0.0,0.0,-2.6894,0.0,-2.8887,-3.2402,0.0,-3.8437,-4.2812,-4.4159,-4.5864,-4.9168,-4.9532,-4.9881,-5.073,-5.1289,-5.1583,-5.1599,-5.0143,-5.0121,-5.2103,-5.5527,-5.8263,-6.0133,-5.9734,-5.8704,-5.7047,-5.6018,-5.5139,-5.4436,-5.3482,-5.3005,-5.2929,-5.2929,-5.2879,-5.2779,0.0,0.0,-5.1096,-5.0042,-4.9213,-4.856,-4.7606,-4.6853,-4.6175,-4.5121,-4.4392,-4.384,0.0,0.0,0.0,0.0,0.0,0.0,0.0,0.0,0.0,0.0,-2.6826,0.0,0.0,0.0,0.0,0.0,0.0,0.0,0.0,0.0,0.0,0.0,0.0,0.0,0.0,0.0,0.0,0.0,0.0,0.0,0.0,0.0,0.0,0.0,0.0,0.0,0.0,0.0,0.0,0.0,0.0,0.0,0.0,0.0,0.0,0.0,0.0,0.0,0.0,0.0,-3.0449,-3.2637,-3.5508,-3.7754,-3.998,-4.3281,-4.4707,-4.5625,-4.748,-4.8633,-4.9219,-4.8926,-4.7617,-4.5527,-4.2148,-3.8262,0.0,0.0,0.0,-2.6016,-2.5508,-2.6934,0.0,-3.3242,0.0,0.0,0.0,0.0,-4.9776,0.0,0.0,0.0,0.0,0.0,0.0,0.0,0.0,0.0,-5.5348,-5.8161,-5.9694,-5.9659,-5.9533,-5.8704,-5.7047,-5.6394,-5.5315,-5.3858,-5.3658,-5.3331,-5.2929,-5.2929,-5.2678,-5.2226,-5.1649,0.0,-5.0519,-4.9866,-4.8987,-4.8033,-4.7857,-4.7179,-4.6225,-4.5573,-4.497,-4.4392,0.0,0.0,0.0,0.0,0.0,0.0,0.0,0.0,0.0,-2.7645,-2.7469,-2.7253,0.0,0.0,0.0,0.0,0.0,0.0,0.0,0.0,0.0,0.0,0.0,0.0,0.0,0.0,0.0,0.0,0.0,0.0,0.0,0.0,0.0,0.0,0.0,0.0,0.0,0.0,0.0,0.0,0.0,0.0,0.0,0.0,0.0,0.0,0.0,0.0,0.0,0.0,-2.9785,-3.2851,-3.6992,-3.9629,-4.1719,-4.4277,-4.5488,-4.6328,-4.7812,-4.8672,-4.9062,-4.8633,-4.6562,-4.3555,-3.9434,0.0,0.0,0.0,0.0,-2.4727,-2.4727,0.0,0.0,0.0,0.0,0.0,0.0,0.0,0.0,0.0,0.0,0.0,0.0,0.0,0.0,0.0,0.0,0.0,-5.6215,-5.8266,-5.9232,-5.8679,-5.8102,-5.7273,-5.6194,-5.534,-5.4511,-5.3708,-5.3432,-5.3181,-5.2929,-5.2628,-5.2352,-5.2051,-5.1197,0.0,-5.0343,-4.9515,-4.8661,-4.7883,-4.7606,-4.6828,-4.5824,-4.5246,-4.4694,-4.4116,0.0,0.0,0.0,0.0,0.0,0.0,0.0,-2.6776,-2.7344,-2.8021,-2.7996,-2.777,-2.7344,-2.6927,-2.6625,0.0,0.0,0.0,0.0,0.0,0.0,0.0,0.0,0.0,0.0,0.0,0.0,0.0,0.0,0.0,0.0,0.0,0.0,0.0,0.0,0.0,0.0,0.0,0.0,0.0,0.0,0.0,0.0,0.0,0.0,0.0,0.0,0.0,0.0,0.0,-2.8184,-3.125,-3.6055,-3.9473,-4.2051,-4.3613,-4.5058,-4.6426,-4.7617,-4.8457,-4.8848,-4.8223,-4.541,-4.1582,-3.6934,-3.2715,0.0,0.0,0.0,-2.4023,-2.4355,0.0,0.0,0.0,0.0,0.0,0.0,0.0,0.0,0.0,0.0,0.0,0.0,0.0,0.0,0.0,0.0,0.0,0.0,-5.7932,-5.8353,-5.7901,-5.6696,-5.5767,-5.5214,-5.4336,-5.3758,-5.3532,-5.3231,-5.303,-5.2904,-5.2352,-5.2051,-5.1875,-5.0845,0.0,0.0,-4.9163,-4.8435,-4.7857,-4.733,-4.6527,-4.5573,-4.4869,-4.4342,-4.389,0.0,0.0,0.0,0.0,0.0,0.0,0.0,-2.6197,-2.6952,-2.7971,-2.767,-2.7344,-2.7329,-2.7278,-2.7027,0.0,0.0,0.0,0.0,0.0,0.0,0.0,0.0,0.0,0.0,0.0,0.0,0.0,0.0,0.0,0.0,0.0,0.0,0.0,0.0,0.0,0.0,0.0,0.0,0.0,0.0,0.0,0.0,0.0,0.0,0.0,0.0,0.0,0.0,0.0,0.0,-2.748,-3.1094,-3.5566,-3.9687,-4.0644,0.0,0.0,-4.6797,-4.8223,-4.918,-4.7949,-4.4746,-4.0781,-3.6445,0.0,0.0,0.0,-2.4102,-2.4375,-2.4414,-2.5187,0.0,0.0,0.0,0.0,0.0,0.0,0.0,0.0,0.0,0.0,0.0,0.0,0.0,0.0,0.0,0.0,0.0,-5.8453,-5.7951,-5.7901,-5.6319,-5.5189,-5.4637,-5.4536,-5.3984,-5.3005,-5.3432,-5.3381,-5.2904,-5.2352,-5.1825,-5.1322,-5.0695,0.0,0.0,-4.9012,-4.8435,-4.7857,-4.733,-4.6753,-4.61,-4.502,-4.4593,-4.4392,0.0,0.0,0.0,0.0,0.0,0.0,0.0,-2.6122,-2.6901,-2.7971,-2.7921,-2.777,-2.777,-2.7228,-2.6474,0.0,0.0,0.0,0.0,0.0,0.0,0.0,0.0,0.0,0.0,0.0,0.0,0.0,0.0,0.0,0.0,0.0,0.0,0.0,0.0,0.0,0.0,0.0,0.0,0.0,0.0,0.0,0.0,0.0,0.0,0.0,0.0,0.0,0.0,0.0,0.0,0.0,-2.6211,-2.9492,0.0,0.0,-4.0293,-4.2773,-4.5449,-4.7246,-4.8105,-4.707,-4.3711,-3.9512,-3.5195,0.0,0.0,-2.4023,-2.373,-2.4043,-2.4043,-2.4746,-2.5762,0.0,0.0,0.0,0.0,0.0,0.0,0.0,0.0,0.0,0.0,0.0,0.0,0.0,0.0,0.0,0.0,-5.7976,-5.7223,-5.6897,-5.5265,-5.426,-5.4059,-5.3733,-5.3356,-5.2929,-5.313,-5.2955,-5.2427,-5.185,-5.1297,-5.072,-5.0167,0.0,0.0,-4.9012,-4.8435,-4.7857,-4.733,-4.6803,-4.6225,-4.5422,-4.5146,-4.502,0.0,0.0,0.0,0.0,0.0,0.0,-2.4983,-2.5611,-2.6399,-2.7469,-2.7469,-2.7494,-2.7821,-2.6625,-2.5485,-2.485,0.0,0.0,0.0,0.0,0.0,0.0,0.0,0.0,0.0,0.0,-2.0605,-2.0605,0.0,0.0,0.0,0.0,0.0,0.0,0.0,0.0,0.0,0.0,0.0,0.0,0.0,0.0,0.0,0.0,0.0,0.0,0.0,0.0,0.0,0.0,0.0,0.0,0.0,0.0,0.0,0.0,-3.6855,-3.9805,-4.291,-4.5176,-4.6406,-4.541,-4.2109,-3.8027,0.0,0.0,0.0,-2.3666,-2.3496,-2.3924,-2.4217,-2.4605,-2.5196,0.0,0.0,0.0,0.0,0.0,0.0,0.0,0.0,0.0,0.0,0.0,0.0,0.0,0.0,0.0,0.0,-5.7072,-5.6369,-5.5993,-5.4336,-5.3457,-5.3457,-5.3105,-5.2854,-5.2678,-5.2678,-5.2402,-5.185,-5.1272,-5.0795,-5.0393,0.0,0.0,0.0,-4.8812,-4.8284,-4.7832,-4.7154,-4.6652,-4.625,-4.5698,-4.5497,-4.5372,0.0,0.0,0.0,0.0,0.0,0.0,0.0,-2.4481,-2.5234,-2.6373,-2.6021,-2.6063,-2.7168,-2.5335,-2.423,-2.475,0.0,0.0,0.0,0.0,0.0,0.0,0.0,0.0,0.0,0.0,-2.0605,-2.0605,-2.1016,-2.0996,0.0,0.0,0.0,0.0,0.0,0.0,0.0,0.0,0.0,0.0,0.0,0.0,0.0,0.0,0.0,0.0,0.0,0.0,0.0,0.0,0.0,0.0,0.0,0.0,0.0,0.0,-3.2949,-3.7617,-3.8906,-4.1797,-4.4121,-4.2793,-3.9883,-3.6309,0.0,0.0,0.0,-2.3549,-2.3496,-2.4128,-2.5215,-2.4826,-2.5128,-2.7305,0.0,0.0,0.0,0.0,0.0,0.0,0.0,0.0,0.0,0.0,0.0,0.0,0.0,0.0,0.0,0.0,-5.539,-5.539,-5.3783,-5.2929,-5.2929,-5.2929,-5.2653,-5.2126,-5.2126,-5.1825,-5.1272,-5.0695,-5.0419,0.0,0.0,0.0,0.0,-4.8385,-4.7908,-4.7807,-4.6728,-4.6326,-4.625,-4.5698,-4.5497,-4.5321,0.0,0.0,0.0,0.0,0.0,0.0,0.0,-2.4155,-2.4531,-2.5234,-2.5184,-2.5335,-2.6063,-2.4858,-2.4531,-2.5871,0.0,0.0,0.0,0.0,0.0,0.0,0.0,0.0,0.0,0.0,-2.0723,-2.1016,-2.1132,-2.1309,-2.1465,-2.1309,-2.1112,0.0,0.0,0.0,0.0,0.0,0.0,0.0,0.0,0.0,0.0,0.0,0.0,0.0,0.0,0.0,0.0,0.0,0.0,0.0,0.0,0.0,0.0,0.0,0.0,0.0,-3.457,-3.6484,-3.7598,-3.6894,-3.4805,-3.2207,-2.9512,0.0,0.0,0.0,-2.3198,-2.3428,-2.3759,-2.4516,-2.5564,-2.7072,0.0,0.0,0.0,0.0,0.0,0.0,0.0,0.0,0.0,0.0,0.0,0.0,0.0,0.0,0.0,0.0,-5.4637,-5.426,-5.3381,-5.2754,-5.2377,-5.2377,-5.2076,-5.1548,-5.1548,-5.1247,-5.067,-5.0117,0.0,0.0,0.0,0.0,0.0,-4.7682,-4.738,-4.7305,-4.6602,-4.6301,-4.6276,-4.6125,-4.605,-4.5949,0.0,0.0,0.0,0.0,0.0,0.0,0.0,-2.3527,-2.3879,-2.4431,-2.4299,-2.4525,-2.5485,-2.4456,-2.433,-2.6021,0.0,0.0,0.0,0.0,0.0,0.0,0.0,0.0,-2.0605,-2.0605,-2.0703,-2.0977,-2.1309,-2.1543,-2.1641,-2.1699,-2.1502,-2.119,-2.0937,0.0,0.0,0.0,0.0,0.0,0.0,0.0,-2.0605,0.0,0.0,0.0,0.0,0.0,0.0,0.0,0.0,0.0,0.0,0.0,0.0,0.0,-2.5059,0.0,0.0,-3.248,-3.3398,-3.2969,-3.1504,0.0,0.0,0.0,0.0,0.0,0.0,0.0,0.0,0.0,0.0,0.0,0.0,0.0,0.0,0.0,0.0,0.0,0.0,0.0,0.0,0.0,0.0,0.0,0.0,0.0,0.0,0.0,-5.3984,-5.3432,-5.3105,-5.2754,-5.2427,-5.2201,-5.1825,-5.1272,-5.1046,-5.0544,-4.9791,-4.9439,0.0,0.0,0.0,0.0,0.0,-4.7355,-4.7068,-4.7079,-4.6527,-4.6301,-4.6301,-4.6301,-4.6301,-4.62,0.0,0.0,0.0,0.0,0.0,0.0,0.0,0.0,0.0,0.0,-2.3446,-2.3697,-2.5259,-2.4023,-2.3747,0.0,0.0,0.0,0.0,0.0,0.0,0.0,0.0,0.0,-2.0605,-2.0605,-2.0683,-2.08,-2.1544,-2.1799,-2.1507,-2.2227,-2.2148,-2.1288,-2.1249,-2.1016,0.0,0.0,0.0,0.0,0.0,-2.0937,0.0,0.0,0.0,0.0,0.0,0.0,0.0,0.0,0.0,0.0,0.0,0.0,0.0,0.0,0.0,0.0,0.0,0.0,0.0,0.0,0.0,0.0,0.0,0.0,0.0,0.0,0.0,0.0,0.0,0.0,0.0,0.0,0.0,0.0,0.0,0.0,0.0,0.0,0.0,0.0,0.0,0.0,0.0,0.0,0.0,0.0,0.0,0.0,-5.3356,-5.2879,-5.2829,-5.2829,-5.2879,-5.2327,-5.1774,-5.1222,-5.0594,-4.9766,-4.8761,-4.8686,0.0,0.0,0.0,0.0,0.0,-4.728,-4.6993,-4.6979,-4.6451,-4.625,-4.625,-4.625,-4.6276,-4.615,0.0,0.0,0.0,0.0,0.0,0.0,0.0,0.0,0.0,0.0,-2.3195,-2.3246,-2.3647,-2.3346,-2.3446,0.0,0.0,0.0,0.0,0.0,0.0,0.0,0.0,0.0,-2.0605,-2.0605,-2.135,-2.283,-2.2486,-2.3063,-2.4401,-2.3775,-2.3027,-2.2207,-2.1875,-2.1289,0.0,0.0,0.0,0.0,-2.0684,-2.0703,0.0,0.0,0.0,0.0,-2.0605,-2.0859,0.0,0.0,0.0,0.0,0.0,0.0,0.0,0.0,-2.3101,-2.3276,-2.4075,0.0,-2.5031,0.0,0.0,0.0,0.0,0.0,0.0,0.0,0.0,0.0,0.0,0.0,0.0,0.0,0.0,0.0,0.0,0.0,0.0,0.0,0.0,0.0,0.0,0.0,0.0,0.0,0.0,0.0,0.0,0.0,-5.2427,-5.2302,-5.19,-5.1875,-5.2302,-5.1749,-5.1197,-5.0619,-4.964,-4.9012,-4.8736,-4.7908,0.0,0.0,0.0,0.0,-4.6677,-4.6552,-4.625,-4.5849,-4.5723,-4.5673,-4.5673,-4.5673,-4.5949,-4.615,0.0,0.0,0.0,0.0,0.0,0.0,0.0,0.0,0.0,0.0,0.0,0.0,0.0,0.0,0.0,0.0,0.0,0.0,0.0,0.0,0.0,0.0,0.0,-2.1773,-2.126,-2.1221,-2.1894,-2.3227,-2.351,-2.4158,-2.51,-2.4536,-2.3647,-2.248,-2.1641,-2.1055,-2.0625,-2.0781,-2.0762,-2.0625,-2.0781,0.0,0.0,0.0,0.0,0.0,-2.0605,-2.0723,0.0,-2.168,-2.2031,-2.2305,0.0,0.0,0.0,0.0,-2.2789,-2.3062,-2.2867,-2.3144,-2.3437,-2.3437,-2.3771,-2.4146,0.0,0.0,0.0,0.0,0.0,0.0,0.0,0.0,0.0,0.0,0.0,0.0,0.0,0.0,0.0,0.0,0.0,0.0,0.0,0.0,0.0,0.0,0.0,0.0,0.0,0.0,-5.2,-5.1724,-5.1448,-5.1423,-5.1724,-5.1172,-5.072,-5.0393,-4.9289,-4.8636,-4.8335,-4.7255,-4.6627,0.0,0.0,0.0,-4.5547,-4.5547,-4.5372,-4.5095,-4.5095,-4.5095,-4.5095,-4.5095,-4.5271,-4.5422,0.0,0.0,0.0,0.0,0.0,0.0,0.0,0.0,0.0,0.0,0.0,0.0,0.0,0.0,0.0,0.0,0.0,0.0,0.0,0.0,0.0,0.0,0.0,-2.2435,-2.2348,-2.2247,-2.2632,-2.3457,-2.4753,-2.5426,-2.5551,-2.553,-2.4531,-2.2695,-2.163,-2.1032,-2.0858,-2.1194,-2.1213,-2.1051,-2.1095,0.0,0.0,0.0,0.0,0.0,0.0,0.0,0.0,-2.1523,-2.1875,-2.2031,-2.2324,0.0,0.0,0.0,0.0,0.0,-2.2663,-2.3387,-2.4242,-2.4004,-2.4669,-2.5436,0.0,0.0,0.0,0.0,0.0,0.0,0.0,0.0,0.0,0.0,0.0,0.0,0.0,0.0,0.0,0.0,0.0,0.0,0.0,0.0,0.0,0.0,0.0,0.0,0.0,0.0,0.0,-5.1046,-5.0845,-5.077,-5.077,-5.0544,-5.0368,-5.0268,-4.9163,-4.8335,-4.7757,-4.6677,-4.5924,0.0,0.0,0.0,-4.4618,-4.4618,-4.4568,-4.4493,-4.4493,-4.4493,-4.4493,-4.4493,-4.4543,-4.4543,0.0,0.0,0.0,0.0,0.0,0.0,0.0,0.0,0.0,0.0,0.0,0.0,0.0,0.0,0.0,0.0,0.0,0.0,0.0,0.0,0.0,-2.551,-2.4895,-2.4351,-2.3942,-2.3505,-2.4175,-2.6019,-2.6661,-2.7619,-2.8869,-2.8744,-2.6976,-2.3908,-2.3811,-2.3005,-2.1773,-2.1856,-2.2327,-2.2936,-2.1341,0.0,0.0,0.0,0.0,0.0,0.0,0.0,0.0,-2.1249,-2.1816,-2.2363,-2.207,0.0,0.0,0.0,0.0,0.0,-2.2866,-2.451,-2.628,-2.4954,-2.5034,-2.5569,-2.6184,0.0,0.0,0.0,0.0,0.0,0.0,0.0,0.0,0.0,0.0,0.0,0.0,0.0,0.0,0.0,0.0,0.0,0.0,0.0,0.0,0.0,0.0,0.0,0.0,0.0,0.0,-4.9866,-4.8937,-4.8435,-4.8435,-4.9741,-5.0193,-4.9715,-4.8586,-4.7757,-4.7205,-4.6125,-4.5573,0.0,0.0,-4.4618,-4.4618,-4.4618,-4.4342,-4.3915,-4.3915,-4.3915,-4.3915,-4.3915,-4.4217,-4.4543,0.0,0.0,0.0,0.0,0.0,0.0,0.0,0.0,0.0,0.0,0.0,0.0,0.0,0.0,0.0,0.0,0.0,0.0,0.0,0.0,0.0,-2.5184,-2.558,-2.5612,-2.514,-2.4871,-2.5667,-2.755,-2.8291,-2.8974,-2.9569,-2.8052,-2.6371,-2.4621,-2.4098,-2.3468,-2.2802,-2.2802,-2.2765,-2.2616,0.0,0.0,0.0,0.0,0.0,0.0,0.0,0.0,0.0,0.0,-2.2854,-2.3756,-2.3292,0.0,0.0,0.0,0.0,0.0,-2.366,-2.4767,-2.6162,-2.6183,-2.6903,-2.7682,-2.7727,0.0,0.0,0.0,0.0,0.0,0.0,0.0,0.0,0.0,0.0,0.0,0.0,0.0,0.0,0.0,0.0,0.0,0.0,0.0,0.0,0.0,0.0,0.0,0.0,0.0,0.0,0.0,-4.8184,-4.7908,-4.7908,-4.8686,-4.8937,-4.8686,-4.7883,-4.7205,-4.6652,-4.5522,-4.4869,-4.4543,0.0,-4.3564,-4.3313,-4.3614,-4.3413,-4.2936,-4.3237,-4.3363,-4.3363,-4.3363,-4.3514,-4.3689,0.0,0.0,0.0,0.0,0.0,0.0,0.0,0.0,0.0,0.0,0.0,0.0,0.0,0.0,0.0,0.0,0.0,0.0,0.0,0.0,-2.48,-2.48,-2.5896,-2.6427,-2.6323,-2.6227,-2.6879,-2.8455,-2.9479,-2.9945,-2.9797,-2.7725,-2.6227,-2.5165,-2.4636,-2.4187,-2.3854,-2.3854,-2.354,-2.3025,0.0,0.0,0.0,0.0,0.0,0.0,0.0,0.0,0.0,0.0,0.0,0.0,0.0,0.0,0.0,-2.3921,-2.4325,-2.5036,-2.437,-2.5124,-2.6237,-2.7081,0.0,-2.9255,-2.9563,0.0,0.0,0.0,0.0,0.0,0.0,0.0,0.0,0.0,0.0,0.0,0.0,0.0,0.0,0.0,0.0,0.0,0.0,0.0,0.0,0.0,0.0,0.0,0.0,0.0,0.0,0.0,-4.7205,-4.7129,-4.7129,-4.7129,-4.733,-4.7732,-4.733,-4.6778,-4.6075,-4.507,-4.4317,-4.3765,-4.3087,-4.259,-4.2238,-4.2665,-4.259,-4.2263,-4.276,-4.2986,-4.2986,-4.2986,-4.2986,-4.2961,0.0,0.0,0.0,0.0,0.0,0.0,0.0,0.0,0.0,0.0,0.0,0.0,0.0,0.0,0.0,0.0,0.0,0.0,0.0,0.0,-2.48,-2.48,-2.5896,-2.6967,-2.7912,-2.7473,-2.7737,-2.8862,-2.9991,-3.0568,-3.0498,-3.0333,-2.8635,-2.5801,-2.6648,-2.6222,-2.4886,-2.4886,-2.5406,-2.6025,-2.4145,0.0,0.0,0.0,0.0,0.0,0.0,0.0,0.0,0.0,0.0,0.0,0.0,0.0,-2.5312,-2.3903,-2.4862,-2.6047,-2.4602,-2.6032,-2.7804,-2.7397,-2.7656,0.0,-3.1365,-3.2474,0.0,-3.4274,0.0,0.0,0.0,0.0,0.0,0.0,0.0,0.0,0.0,0.0,0.0,0.0,0.0,0.0,0.0,0.0,0.0,0.0,0.0,0.0,0.0,0.0,0.0,0.0,0.0,-4.4869,-4.4869,-4.4869,-4.5648,-4.7179,-4.7093,-4.6577,-4.5522,-4.4895,-4.4317,-4.374,-4.274,-4.2238,-4.2213,-4.2263,-4.2238,-4.2263,-4.276,-4.2986,-4.2986,-4.2986,-4.2986,-4.2911,0.0,0.0,0.0,0.0,0.0,0.0,0.0,0.0,0.0,0.0,0.0,0.0,0.0,0.0,0.0,0.0,0.0,0.0,0.0,-2.3847,-2.4456,-2.4775,-2.5536,-2.644,-2.757,-2.7394,-2.7996,-2.9478,-2.9905,-3.0281,-3.0583,-2.9202,-2.8088,-2.7212,-2.6926,-2.6467,-2.5921,-2.5921,-2.5816,-2.5511,-2.4743,-2.4312,0.0,0.0,0.0,0.0,0.0,0.0,0.0,0.0,-2.5205,-2.6046,0.0,0.0,-2.6502,-2.5621,-2.5896,-2.6352,-2.5789,-2.6856,-2.8037,-2.7841,0.0,0.0,0.0,0.0,-3.4399,-3.5504,0.0,0.0,0.0,0.0,0.0,0.0,0.0,0.0,0.0,0.0,0.0,0.0,0.0,0.0,0.0,0.0,0.0,0.0,0.0,0.0,0.0,0.0,0.0,0.0,0.0,-4.4618,-4.4618,-4.4618,-4.4945,-4.5573,-4.5573,-4.5171,-4.4418,-4.3865,-4.3288,-4.2735,-4.1982,-4.1455,-4.1178,-4.1936,-4.181,-4.1229,-4.2162,-4.274,-4.2986,-4.2986,-4.276,-4.2489,0.0,0.0,0.0,0.0,0.0,0.0,0.0,0.0,0.0,0.0,0.0,0.0,0.0,0.0,0.0,0.0,0.0,0.0,-2.3095,-2.3647,-2.4155,-2.4531,-2.5234,-2.5963,-2.6741,-2.6977,-2.7806,-2.9252,-2.9252,-2.9377,-2.9528,-2.8172,-2.7645,-2.7821,-2.7102,-2.6751,-2.6751,-2.6575,-2.6094,-2.5476,-2.5476,-2.5063,0.0,0.0,0.0,0.0,0.0,0.0,0.0,0.0,-2.6167,0.0,0.0,0.0,0.0,0.0,-2.6499,-2.6499,-2.6499,-2.7052,-2.767,0.0,0.0,0.0,0.0,0.0,0.0,0.0,0.0,0.0,0.0,0.0,0.0,0.0,0.0,0.0,0.0,0.0,0.0,0.0,0.0,0.0,0.0,0.0,0.0,0.0,0.0,0.0,0.0,0.0,0.0,0.0,0.0,0.0,-4.384,-4.4016,-4.4016,-4.384,-4.384,-4.374,-4.3514,-4.2961,-4.2409,-4.1856,-4.1329,-4.0852,-4.0576,-4.1329,-4.1304,-4.0852,-4.1605,-4.2133,-4.2459,-4.2459,-4.2233,-4.1882,0.0,0.0,0.0,0.0,0.0,0.0,0.0,0.0,0.0,0.0,0.0,0.0,0.0,0.0,0.0,0.0,0.0,0.0,-2.3095,-2.3678,-2.3979,-2.4004,-2.5008,-2.5586,-2.5586,-2.6197,-2.7027,-2.8097,-2.8097,-2.7821,-2.7329,-2.7846,-2.7821,-2.7293,-2.7293,-2.7293,-2.7278,-2.6725,-2.6499,-2.6499,-2.6499,-2.6499,-2.6499,0.0,0.0,0.0,0.0,0.0,0.0,0.0,-2.6499,-2.6499,0.0,0.0,0.0,0.0,-2.6499,-2.6499,-2.6499,-2.6499,0.0,0.0,0.0,0.0,0.0,0.0,0.0,0.0,0.0,0.0,0.0,0.0,0.0,0.0,0.0,0.0,0.0,0.0,0.0,0.0,0.0,0.0,0.0,0.0,0.0,0.0,0.0,0.0,0.0,0.0,0.0,0.0,0.0,0.0,-4.2213,-4.274,-4.274,-4.2213,-4.2187,-4.2489,-4.2936,-4.2439,-4.1856,-4.125,-4.0752,-4.0501,-4.0501,-4.0501,-4.0774,-4.1275,-4.1275,-4.1275,-4.1275,-4.1275,-4.1275,-4.12,0.0,0.0,0.0,0.0,0.0,0.0,0.0,0.0,0.0,0.0,0.0,0.0,0.0,0.0,0.0,0.0,0.0,0.0,-2.3095,-2.3271,-2.3547,-2.3979,-2.4305,-2.4833,-2.5586,-2.5762,-2.6449,-2.7519,-2.7519,-2.7645,-2.7871,-2.762,-2.7444,-2.7293,-2.7293,-2.7102,-2.6725,-2.6575,-2.6499,-2.6524,-2.6927,-2.6851,-2.6524,0.0,0.0,0.0,0.0,0.0,0.0,0.0,0.0,0.0,0.0,0.0,0.0,0.0,-2.6499,-2.6499,-2.6499,0.0,0.0,0.0,0.0,0.0,0.0,0.0,0.0,0.0,0.0,0.0,0.0,0.0,0.0,0.0,0.0,0.0,0.0,0.0,0.0,0.0,0.0,0.0,0.0,0.0,0.0,0.0,0.0,0.0,0.0,0.0,0.0,0.0,0.0,0.0,-4.158,-4.1731,-4.1731,-4.158,-4.1178,-4.1279,-4.1806,-4.1254,-4.0927,-4.0727,-4.0174,-3.9948,-3.9948,-3.9948,-4.0501,-4.125,-4.0849,-4.1003,-4.1275,-4.1275,-4.105,-4.0727,0.0,0.0,0.0,0.0,0.0,0.0,0.0,0.0,0.0,0.0,0.0,0.0,0.0,0.0,0.0,0.0,0.0,0.0,0.0,-2.3095,-2.3271,-2.3653,-2.3879,-2.4506,-2.5561,-2.5586,-2.5937,-2.6615,-2.6615,-2.6791,-2.7118,-2.7444,-2.762,-2.762,-2.7846,-2.762,-2.7128,-2.6927,-2.6826,-2.6851,-2.7178,-2.7128,-2.6851,0.0,0.0,0.0,0.0,0.0,0.0,0.0,0.0,0.0,0.0,0.0,0.0,-2.6424,-2.6323,-2.6197,-2.6424,0.0,0.0,0.0,0.0,0.0,0.0,0.0,0.0,0.0,0.0,0.0,0.0,0.0,0.0,0.0,0.0,0.0,0.0,0.0,0.0,0.0,0.0,0.0,0.0,0.0,0.0,0.0,0.0,0.0,0.0,0.0,0.0,0.0,0.0,0.0,-4.0974,-4.1175,-4.1175,-4.0949,-4.0676,-4.0576,-4.0676,-4.035,-4.0199,-4.0174,-3.9848,-3.9697,-3.9697,-3.9697,-4.0099,-4.0651,-4.0325,-4.04,-4.0676,-4.0676,-4.0475,-4.0199,0.0,0.0,0.0,0.0,0.0,0.0,0.0,0.0,0.0,0.0,-2.0339,0.0,0.0,0.0,0.0,0.0,0.0,0.0,0.0,0.0,-2.3095,-2.3095,-2.3678,-2.4481,-2.5511,-2.5485,-2.5485,-2.5536,-2.5561,-2.5586,-2.5636,-2.7318,-2.8047,-2.7971,-2.8574,-2.8524,-2.7921,-2.7419,-2.7253,-2.7253,-2.7268,-2.7278,-2.7218,-2.7268,0.0,0.0,0.0,0.0,0.0,0.0,0.0,0.0,0.0,0.0,0.0,-2.6323,-2.6097,-2.5737,0.0,0.0,0.0,0.0,0.0,0.0,0.0,0.0,0.0,0.0,0.0,0.0,0.0,0.0,0.0,0.0,0.0,0.0,0.0,0.0,0.0,0.0,0.0,0.0,0.0,0.0,0.0,0.0,0.0,0.0,0.0,0.0,0.0,0.0,0.0,0.0,-4.0375,-4.0852,-4.0852,0.0,-4.0425,-4.0174,-3.9697,-3.9697,-3.9697,-3.9697,-3.9697,-3.9697,-3.9697,-3.9697,-3.9697,-3.9697,-3.9697,-3.9697,-3.9697,-3.9697,-3.9697,-3.9697,0.0,0.0,0.0,0.0,0.0,0.0,0.0,0.0,0.0,0.0,0.0,0.0,0.0,0.0,0.0,0.0,0.0,0.0,0.0,0.0,-2.3095,-2.3095,-2.3678,-2.4305,-2.4951,-2.4556,-2.4556,-2.4983,-2.5385,-2.5586,-2.5636,-2.7318,-2.7645,-2.6901,-2.7846,-2.7745,-2.6851,-2.6725,-2.6675,-2.67,-2.7153,-2.7052,-2.6725,-2.7153,-2.6977,0.0,0.0,0.0,0.0,0.0,0.0,0.0,-2.6499,-2.6097,-2.5711,-2.6323,-2.6097,0.0,0.0,0.0,0.0,0.0,0.0,0.0,0.0,0.0,0.0,0.0,0.0,0.0,0.0,0.0,0.0,0.0,0.0,0.0,0.0,0.0,0.0,0.0,0.0,0.0,0.0,0.0,0.0,0.0,0.0,0.0,0.0,0.0,0.0,0.0,0.0,-3.8894,-3.922,-3.9346,-3.9346,0.0,-3.9672,-3.9798,-3.9697,-3.9697,-3.9697,-3.9697,-3.9697,-3.9697,-3.9697,-3.9697,-3.9697,-3.9697,-3.9697,-3.9697,-3.9697,-3.9697,-3.9697,-3.9697,0.0,0.0,0.0,0.0,0.0,0.0,0.0,0.0,0.0,0.0,0.0,0.0,0.0,0.0,0.0,0.0,0.0,0.0,0.0,0.0,-2.3095,-2.3095,-2.3678,-2.413,-2.4431,-2.4155,-2.413,-2.4431,-2.4958,-2.536,-2.5636,-2.7042,-2.7695,-2.767,-2.8247,-2.8021,-2.7243,-2.7002,-2.6876,-2.6927,-2.7203,-2.7153,-2.6927,-2.7168,-2.6977,-2.6499,-2.6499,0.0,0.0,0.0,0.0,0.0,0.0,0.0,-2.5661,-2.5996,-2.5871,-2.5711,0.0,0.0,0.0,0.0,0.0,0.0,0.0,0.0,0.0,0.0,0.0,0.0,0.0,0.0,0.0,0.0,0.0,0.0,0.0,0.0,0.0,0.0,0.0,0.0,0.0,0.0,0.0,0.0,0.0,0.0,0.0,0.0,0.0,0.0,-3.8316,-3.814,-3.8467,-3.8467,-3.8467,-3.8467,-3.8743,-3.8894,-3.8894,-3.9446,-3.9697,-3.9697,-3.9697,-3.9697,-3.9697,-3.9697,-3.9697,-3.9697,-3.9697,-3.9697,-3.9697,-3.9697,-3.9697,-3.9697,0.0,0.0,0.0,0.0,0.0,0.0,0.0,0.0,0.0,0.0,0.0,0.0,0.0,0.0,0.0,0.0,0.0,0.0,0.0,0.0,0.0,-2.3095,-2.3602,-2.3904,-2.4004,-2.3904,-2.3904,-2.4004,-2.4424,0.0,0.0,-2.6942,-2.7871,-2.8612,-2.8712,-2.8423,-2.7795,-2.7344,-2.7178,-2.7178,-2.7178,-2.7178,-2.7178,-2.7178,-2.6901,-2.6499,-2.6499,-2.6499,-2.6499,-2.6499,0.0,0.0,0.0,0.0,-2.5485,-2.5561,-2.546,-2.5385,0.0,0.0,0.0,0.0,0.0,0.0,0.0,0.0,0.0,0.0,0.0,0.0,0.0,0.0,0.0,0.0,0.0,0.0,0.0,0.0,0.0,0.0,0.0,0.0,0.0,0.0,0.0,0.0,0.0,0.0,0.0,0.0,-3.7764,-3.7864,-3.7688,-3.7638,-3.7713,-3.7814,-3.7864,-3.7864,-3.7965,-3.8015,-3.804,-3.8969,-3.9396,-3.9396,-3.9521,-3.9546,-3.9572,-3.9647,-3.9697,-3.9697,-3.9697,-3.9697,-3.9697,-3.9697,-3.9697,-3.9697,0.0,0.0,0.0,0.0,0.0,0.0,0.0,0.0,0.0,0.0,0.0,0.0,0.0,0.0,0.0,0.0,0.0,0.0,0.0,0.0,0.0,-2.3095,-2.317,-2.3446,-2.3979,-2.3471,-2.3471,-2.4004,0.0,0.0,0.0,0.0,0.0,-2.7519,-2.7996,-2.7645,-2.67,-2.6625,-2.66,-2.66,-2.66,-2.66,-2.66,-2.66,-2.6549,-2.6499,-2.6499,-2.6499,-2.6499,-2.6499,-2.6499,0.0,0.0,0.0,-2.5008,-2.546,-2.4933,0.0,0.0,0.0,0.0,0.0,0.0,0.0,0.0,0.0,0.0,0.0,0.0,0.0,0.0,0.0,0.0,0.0,0.0,0.0,0.0,0.0,0.0,0.0,0.0,0.0,0.0,0.0,0.0,0.0,0.0,0.0,0.0,-3.7111,-3.6857,-3.7287,-3.6358,-3.6107,-3.6631,-3.7061,-3.7287,-3.7287,-3.7789,-3.8015,-3.8015,-3.8165,-3.8241,-3.8266,-3.8768,-3.902,-3.9019,-3.9496,-3.9697,-3.9697,-3.9697,-3.9697,-3.9697,-3.9697,-3.9697,-3.9697,0.0,0.0,0.0,0.0,0.0,0.0,0.0,0.0,0.0,0.0,0.0,0.0,0.0,0.0,0.0,0.0,0.0,0.0,0.0,0.0,0.0,-2.3095,-2.3095,-2.3221,-2.3471,-2.3246,-2.3221,-2.3496,0.0,0.0,0.0,-2.8021,-2.8925,0.0,0.0,0.0,-2.7795,0.0,0.0,-2.6499,-2.6499,-2.6499,-2.6499,-2.6499,-2.6499,-2.6499,-2.6499,-2.6499,-2.6499,-2.6499,-2.6499,-2.6499,-2.6499,0.0,0.0,0.0,-2.5034,0.0,0.0,0.0,0.0,0.0,0.0,0.0,0.0,0.0,0.0,0.0,0.0,0.0,0.0,0.0,0.0,0.0,0.0,0.0,0.0,0.0,0.0,0.0,0.0,0.0,0.0,0.0,0.0,0.0,0.0,0.0,-3.6157,-3.5705,-3.5554,-3.5805,-3.5282,-3.5203,-3.5429,-3.568,-3.5956,-3.6257,-3.6508,-3.6784,-3.7086,-3.7086,-3.7412,-3.8015,-3.8266,-3.8567,-3.8944,-3.912,-3.9421,-3.9697,-3.9697,-3.9697,-3.9697,-3.9697,-3.9697,-3.9697,0.0,0.0,0.0,0.0,0.0,0.0,0.0,0.0,0.0,0.0,0.0,0.0,0.0,0.0,0.0,0.0,0.0,0.0,0.0,0.0,0.0,-2.3095,-2.3095,-2.3095,-2.3095,-2.3095,-2.3095,0.0,0.0,0.0,-2.6725,-2.7921,-2.9528,0.0,-2.9955,-2.9013,0.0,0.0,0.0,0.0,-2.6549,-2.6499,-2.6499,-2.6499,-2.6499,-2.6499,-2.6499,-2.6499,-2.6499,-2.6499,-2.6499,-2.6499,-2.6499,-2.6399,0.0,0.0,0.0,0.0,0.0,0.0,0.0,0.0,0.0,0.0,0.0,0.0,0.0,0.0,0.0,0.0,0.0,0.0,0.0,0.0,0.0,0.0,0.0,0.0,0.0,0.0,0.0,0.0,0.0,0.0,0.0,0.0,0.0,0.0,-3.468,-3.4449,-3.4299,-3.4299,-3.4173,-3.4028,-3.4028,-3.4374,-3.468,-3.5082,-3.5232,-3.5554,-3.5956,-3.6081,-3.6609,-3.7387,-3.7688,-3.804,-3.8492,-3.8592,-3.8894,-3.927,-3.927,-3.9346,-3.9496,-3.9496,-3.9572,-3.9697,0.0,0.0,0.0,0.0,0.0,0.0,0.0,0.0,0.0,0.0,0.0,0.0,-1.9836,-2.084,-2.1493,-2.1518,-2.2493,-2.3095,-2.3095,-2.3095,-2.3095,-2.3095,-2.3095,0.0,-2.3095,-2.3095,-2.3095,0.0,0.0,0.0,-2.7278,-2.7318,-2.88,-3.1361,-3.0783,-2.9352,-2.7394,0.0,0.0,0.0,0.0,-2.6499,-2.6499,-2.6499,-2.6499,-2.6499,-2.6499,-2.6499,-2.6499,-2.6499,-2.6499,-2.6499,-2.6499,-2.6122,-2.5536,0.0,0.0,0.0,0.0,0.0,0.0,0.0,0.0,0.0,0.0,0.0,0.0,0.0,0.0,0.0,0.0,0.0,0.0,0.0,0.0,0.0,0.0,0.0,0.0,0.0,0.0,0.0,0.0,0.0,0.0,0.0,0.0,0.0,-3.468,-3.3721,-3.3169,-3.3169,-3.2641,-3.234,-3.234,-3.342,-3.3947,-3.3997,-3.4525,-3.4776,-3.4826,-3.5307,-3.5583,-3.5683,-3.6784,-3.7236,-3.7312,-3.7839,-3.8065,-3.809,-3.809,-3.8442,-3.8969,-3.8969,-3.9245,-3.9697,0.0,0.0,0.0,0.0,0.0,0.0,0.0,0.0,0.0,0.0,0.0,0.0,0.0,-2.0515,-2.1144,-2.1468,-2.2468,-2.3095,-2.3095,-2.3095,-2.3095,-2.3095,-2.3095,-2.3095,-2.3095,-2.3095,0.0,0.0,0.0,-2.4582,-2.5737,-2.6791,-2.7656,-2.8284,-2.8775,-2.875,-2.8273,-2.7419,0.0,0.0,0.0,0.0,-2.6499,-2.6499,0.0,0.0,0.0,0.0,0.0,-2.6499,-2.6499,-2.6499,-2.6499,-2.6097,-2.5435,-2.4556,-2.3879,0.0,0.0,0.0,0.0,0.0,0.0,0.0,0.0,0.0,0.0,0.0,0.0,0.0,0.0,0.0,0.0,0.0,0.0,0.0,0.0,0.0,0.0,0.0,0.0,0.0,0.0,0.0,0.0,0.0,0.0,0.0,-3.2591,-3.2215,-3.1989,-3.1989,-3.1788,-3.1687,-3.1687,-3.2089,-3.2641,-3.337,-3.3571,-3.4048,-3.4726,-3.4881,-3.4981,-3.5006,-3.5759,-3.6533,-3.7186,-3.7387,-3.7688,-3.8015,-3.8015,-3.814,-3.8366,-3.8793,-3.9045,-3.922,0.0,0.0,0.0,0.0,0.0,0.0,0.0,0.0,0.0,-1.9811,0.0,0.0,0.0,0.0,-2.127,-2.197,-2.2694,-2.3095,-2.3095,-2.3095,-2.3095,-2.3095,-2.3095,-2.3095,-2.3095,-2.3095,0.0,0.0,0.0,0.0,0.0,-2.5762,-2.6323,-2.6524,-2.7017,-2.767,0.0,0.0,0.0,-2.6751,0.0,0.0,-2.6801,0.0,0.0,0.0,0.0,0.0,0.0,0.0,0.0,0.0,-2.6499,-2.5971,-2.5159,-2.4255,-2.3572,0.0,0.0,0.0,0.0,0.0,0.0,0.0,0.0,0.0,0.0,0.0,0.0,0.0,0.0,0.0,0.0,0.0,0.0,0.0,0.0,0.0,0.0,0.0,0.0,0.0,0.0,0.0,0.0,0.0,0.0,0.0,-3.1386,-3.1235,-3.1035,-3.0859,-3.0859,-3.0859,-3.0859,-3.1035,-3.1512,-3.2265,-3.2616,-3.3169,-3.3853,-3.4274,-3.4449,-3.4474,-3.4981,-3.5734,-3.6659,-3.6835,-3.7136,-3.7462,-3.7462,-3.7563,-3.7789,-3.8165,-3.8592,-3.8969,0.0,0.0,0.0,0.0,0.0,0.0,0.0,0.0,-1.9811,-1.9811,0.0,0.0,0.0,0.0,0.0,-2.2995,-2.3095,-2.3095,-2.3095,-2.3095,-2.3095,-2.3095,-2.3095,-2.3095,-2.3095,-2.3095,-2.3095,0.0,0.0,0.0,0.0,0.0,-2.4858,-2.6399,-2.5812,-2.6189,-2.7243,0.0,-2.777,-2.7243,0.0,-2.6826,-2.7369,0.0,0.0,0.0,-2.8097,-2.777,0.0,-2.67,0.0,0.0,0.0,0.0,-2.4675,-2.413,-2.3547,0.0,0.0,0.0,0.0,0.0,0.0,0.0,0.0,0.0,0.0,0.0,0.0,0.0,0.0,0.0,0.0,0.0,0.0,0.0,0.0,0.0,0.0,0.0,0.0,0.0,0.0,0.0,0.0,0.0,0.0,-3.1336,-3.1336,-3.0859,-3.0357,-2.9804,-2.9804,-2.9804,-2.9804,-3.0331,-3.0608,-3.0633,-3.1662,-3.219,-3.224,-3.3345,-3.3847,-3.3897,-3.4449,-3.4956,-3.5508,-3.6107,-3.638,-3.638,-3.6405,-3.6732,-3.7161,-3.7186,-3.7864,-3.8869,0.0,0.0,0.0,0.0,0.0,0.0,-1.9761,-1.9811,-1.9811,0.0,0.0,0.0,-2.0666,-2.1546,-2.2196,-2.2523,-2.2869,-2.3095,-2.3095,-2.3095,-2.3095,-2.3095,-2.3095,-2.3095,-2.3095,-2.3095,0.0,0.0,0.0,0.0,0.0,0.0,0.0,0.0,-2.4933,-2.5209,-2.5561,-2.6549,0.0,0.0,-2.6725,-2.7052,0.0,0.0,0.0,0.0,0.0,-2.7996,-2.7795,0.0,-2.7077,-2.6876,0.0,0.0,-2.46,0.0,0.0,0.0,-2.3095,0.0,0.0,0.0,0.0,0.0,0.0,0.0,0.0,0.0,0.0,0.0,0.0,0.0,0.0,0.0,0.0,0.0,0.0,0.0,0.0,0.0,0.0,0.0,0.0,0.0,0.0,0.0,-3.0231,-3.0231,-3.0231,-3.0105,-2.9955,-2.9804,-2.9804,-2.9804,-2.9804,-2.9955,-3.0231,-3.0608,-3.0909,-3.1461,-3.2215,-3.2541,-3.2918,-3.3345,-3.3897,-3.4449,-3.4956,-3.5508,-3.578,-3.5805,-3.6207,-3.6505,-3.6681,-3.7036,-3.7387,-3.7713,0.0,0.0,0.0,0.0,0.0,0.0,-1.9811,-2.0012,-2.0087,0.0,0.0,0.0,-2.132,-2.2121,-2.2619,-2.2619,-2.292,-2.3095,-2.3095,-2.3095,-2.3095,-2.3095,-2.3095,-2.3095,-2.3095,-2.3095,0.0,0.0,0.0,0.0,0.0,0.0,0.0,0.0,0.0,0.0,0.0,0.0,0.0,0.0,-2.6524,0.0,0.0,-2.7996,-2.8323,0.0,0.0,0.0,-2.8323,-2.7544,-2.7153,0.0,0.0,0.0,0.0,0.0,0.0,0.0,-2.3471,-2.3296,0.0,0.0,0.0,0.0,0.0,0.0,0.0,0.0,0.0,0.0,0.0,0.0,0.0,0.0,0.0,0.0,0.0,0.0,0.0,0.0,0.0,0.0,0.0,0.0,0.0,0.0,-2.9428,-2.9528,-2.9779,-2.9804,-2.9804,-2.9804,-2.9804,-2.9804,-2.9804,-2.9804,-2.9955,-3.0281,-3.0507,-3.0934,-3.1562,-3.2014,-3.239,-3.2742,-3.3319,-3.3872,-3.4424,-3.4931,-3.5433,-3.5906,-3.6279,-3.6405,-3.6455,-3.6782,-3.6985,-3.7236,0.0,0.0,0.0,0.0,0.0,0.0,0.0,-2.0314,-2.0465,0.0,-2.0515,-2.127,-2.2297,-2.2819,-2.3095,-2.3095,-2.3095,-2.3095,-2.3095,-2.3095,-2.3095,-2.3095,-2.3095,-2.3095,-2.3095,-2.3095,0.0,0.0,0.0,0.0,0.0,0.0,0.0,0.0,0.0,0.0,0.0,0.0,0.0,-2.5561,-2.6172,-2.7128,0.0,0.0,-2.9227,0.0,-2.9804,-2.9478,-2.8813,-2.7745,-2.7002,0.0,0.0,0.0,0.0,0.0,-2.4079,0.0,-2.4079,-2.3697,-2.3396,0.0,0.0,0.0,-2.3145,-2.3195,-2.3396,0.0,0.0,0.0,0.0,0.0,0.0,0.0,0.0,0.0,0.0,0.0,0.0,0.0,0.0,0.0,0.0,0.0,-2.8222,-2.8662,-2.8762,-2.9076,-2.9578,-2.9603,-2.9628,-2.9704,-2.9704,-2.9729,-2.9804,-2.9804,-2.9804,-2.9804,-3.0281,-3.0557,-3.0658,-3.1662,-3.2164,-3.224,-3.2817,-3.3395,-3.3947,-3.45,-3.5328,-3.6329,-3.638,-3.6405,-3.6405,-3.6405,-3.6732,-3.7086,-1.7373,0.0,0.0,0.0,0.0,0.0,0.0,-2.0188,-2.0263,-2.1066,-2.1644,-2.2246,-2.2869,-2.3045,-2.3095,-2.3095,-2.3095,-2.3095,-2.3095,-2.3095,-2.3095,-2.3095,-2.3095,-2.3095,-2.3095,-2.3095,0.0,0.0,0.0,0.0,0.0,0.0,0.0,0.0,0.0,0.0,0.0,0.0,0.0,-2.4976,-2.5561,0.0,-2.8687,-2.8398,-2.89,-2.9804,-2.9804,-2.9729,-2.9453,0.0,-2.7293,-2.6399,0.0,0.0,0.0,0.0,0.0,0.0,0.0,0.0,0.0,0.0,0.0,0.0,-2.3421,-2.3797,-2.4224,0.0,0.0,0.0,0.0,0.0,0.0,0.0,0.0,0.0,0.0,0.0,0.0,0.0,0.0,0.0,0.0,0.0,-2.7494,-2.7595,-2.8021,-2.8323,-2.8423,-2.8423,-2.8649,-2.9038,-2.9063,-2.9327,-2.9779,-2.9804,-2.9804,-2.9804,-2.9905,-3.0181,-3.0633,-3.126,-3.1788,-3.224,-3.2817,-3.3395,-3.3947,-3.45,-3.5102,-3.5708,-3.6182,-3.6405,-3.6405,-3.6405,-3.648,-3.6581,-1.8103,0.0,0.0,0.0,0.0,0.0,0.0,0.0,-2.1167,-2.1443,-2.197,-2.2493,-2.3045,-2.3095,-2.3095,-2.3095,-2.3095,-2.3095,-2.3095,-2.3095,-2.3095,-2.3095,-2.3095,-2.3095,-2.3095,-2.3095,-2.3095,0.0,0.0,0.0,0.0,0.0,0.0,0.0,0.0,0.0,0.0,0.0,-2.3904,-2.4481,-2.5285,0.0,-2.8072,-2.7795,-2.8222,-2.895,-2.895,-2.8775,-2.8448,-2.7896,-2.7178,0.0,0.0,-2.6072,-2.5946,0.0,-2.5209,-2.5209,0.0,0.0,0.0,-2.5159,0.0,0.0,0.0,-2.3948,0.0,0.0,0.0,0.0,0.0,0.0,0.0,0.0,0.0,0.0,0.0,0.0,0.0,0.0,0.0,0.0,0.0,0.0,-2.6666,-2.7278,-2.7795,-2.8097,-2.8097,-2.8097,-2.8222,-2.8499,-2.8737,-2.9038,-2.9352,-2.9654,-2.9804,-2.9804,-2.9804,-2.993,-3.0231,-3.0758,-3.1286,-3.1838,-3.239,-3.3119,-3.3922,-3.4198,-3.465,-3.5182,-3.6031,-3.6405,-3.6405,-3.6405,-3.6405,-3.6405,-1.8832,0.0,0.0,0.0,0.0,0.0,0.0,0.0,-2.192,-2.1669,-2.2121,-2.2644,-2.3221,-2.317,-2.3221,-2.3547,-2.3296,-2.3195,-2.3421,-2.3221,-2.3095,-2.3095,-2.3095,-2.3095,-2.3095,-2.3095,-2.3095,0.0,0.0,0.0,0.0,0.0,0.0,0.0,0.0,0.0,0.0,0.0,0.0,-2.423,0.0,-2.6113,-2.7178,-2.7278,-2.762,-2.8097,-2.8097,-2.7745,-2.7293,-2.7293,0.0,-2.6499,-2.6499,-2.6499,0.0,0.0,0.0,0.0,0.0,0.0,0.0,0.0,0.0,-2.4632,0.0,0.0,0.0,0.0,0.0,0.0,0.0,0.0,0.0,0.0,0.0,0.0,0.0,0.0,0.0,0.0,0.0,0.0,0.0,0.0,-2.5762,-2.6901,-2.7369,-2.767,-2.7795,-2.7795,-2.7846,-2.7946,-2.8473,-2.8787,-2.8888,-2.9503,-2.9804,-2.9804,-2.9804,-2.9804,-2.9804,-3.0357,-3.0859,-3.1286,-3.1938,-3.2717,-3.3596,-3.3796,-3.4173,-3.465,-3.5655,-3.6153,-3.6207,-3.6207,-3.6329,-3.6405,-1.8983,-1.9384,0.0,0.0,0.0,0.0,0.0,0.0,-2.1219,-2.2096,-2.2669,-2.3221,-2.3828,-2.3421,-2.3697,-2.5184,-2.3948,0.0,-2.4525,0.0,-2.3095,-2.3095,-2.3095,-2.3095,-2.3095,-2.3095,-2.3095,0.0,0.0,0.0,0.0,0.0,0.0,0.0,-2.3095,0.0,0.0,0.0,-2.3722,0.0,-2.4825,-2.5561,0.0,-2.7128,-2.762,-2.8097,-2.8097,-2.7745,-2.7293,0.0,-2.6952,-2.6499,0.0,-2.6499,0.0,0.0,0.0,0.0,0.0,0.0,0.0,0.0,-2.6314,0.0,0.0,0.0,0.0,0.0,0.0,0.0,0.0,0.0,0.0,0.0,0.0,0.0,0.0,0.0,0.0,0.0,0.0,0.0,0.0,0.0,0.0,-2.5711,-2.5837,-2.6113,-2.665,-2.6675,-2.6901,-2.7404,-2.7921,-2.8423,-2.8888,-2.9503,-2.9804,-2.9804,-2.9804,-2.9804,-2.9804,-3.0357,-3.0658,-3.0758,-3.1763,-3.229,-3.2491,-3.3495,-3.3947,-3.4048,-3.4675,-3.5157,-3.5583,-3.5583,-3.5956,-3.6405,-1.9384,-1.966,0.0,0.0,0.0,0.0,0.0,0.0,-2.2272,-2.2694,-2.3276,-2.3853,0.0,0.0,0.0,0.0,0.0,-2.4148,0.0,0.0,-2.3095,-2.3095,0.0,0.0,-2.3095,-2.3095,-2.3095,-2.3095,-2.3095,0.0,0.0,0.0,0.0,0.0,-2.3095,0.0,-2.3095,0.0,0.0,0.0,0.0,0.0,0.0,-2.6373,-2.6977,-2.7178,-2.7178,-2.7027,-2.6851,0.0,-2.6675,0.0,0.0,0.0,0.0,0.0,0.0,0.0,0.0,0.0,0.0,0.0,0.0,0.0,-2.5059,0.0,-2.3772,0.0,0.0,0.0,0.0,0.0,0.0,0.0,0.0,0.0,0.0,0.0,0.0,0.0,0.0,0.0,0.0,0.0,0.0,0.0,0.0,-2.5711,-2.5971,-2.6323,-2.66,-2.6826,-2.7379,-2.7896,-2.8448,-2.9001,-2.9453,-2.9804,-2.9804,-2.9804,-2.9804,-3.003,-3.0306,-3.0633,-3.1085,-3.1637,-3.224,-3.2717,-3.3119,-3.3445,-3.3671,-3.4299,-3.5056,-3.5382,-3.5633,-3.5931,-1.9736,0.0,0.0,0.0,0.0,0.0,0.0,0.0,0.0,0.0,0.0,0.0,-2.4933,-2.5034,0.0,0.0,-2.5887,-2.5259,0.0,0.0,-2.3421,0.0,0.0,0.0,0.0,0.0,-2.3095,0.0,0.0,0.0,0.0,0.0,0.0,0.0,0.0,-2.3095,-2.312,0.0,0.0,-2.3446,-2.4582,-2.4808,-2.4556,-2.5795,-2.6348,-2.6499,-2.6499,-2.6499,-2.6499,-2.6499,-2.6499,0.0,-2.6499,0.0,0.0,0.0,0.0,0.0,-2.5636,0.0,0.0,0.0,0.0,0.0,0.0,0.0,0.0,0.0,0.0,0.0,0.0,0.0,0.0,0.0,0.0,0.0,0.0,0.0,0.0,0.0,0.0,0.0,0.0,0.0,0.0,0.0,-2.5084,0.0,-2.5586,-2.6172,-2.6499,-2.6499,-2.7027,-2.7544,-2.8097,-2.8612,-2.9189,-2.9804,-2.9804,-2.9804,-2.9804,-2.9804,-3.0005,-3.0407,-3.0557,-3.1135,-3.1989,-3.2139,-3.2566,-3.3111,-3.3111,-3.3571,-3.4349,-3.4831,-3.5132,-3.5332,-1.9811,-1.9811,0.0,0.0,0.0,0.0,0.0,0.0,0.0,0.0,0.0,0.0,0.0,0.0,0.0,0.0,0.0,-2.7002,-2.6449,0.0,-2.4249,0.0,0.0,-2.3095,0.0,0.0,0.0,0.0,0.0,0.0,0.0,0.0,0.0,0.0,0.0,-2.3095,-2.3145,-2.3728,-2.3979,-2.4079,-2.5134,-2.5561,-2.5561,0.0,-2.5996,-2.6499,-2.6499,0.0,0.0,-2.6499,-2.6499,0.0,0.0,0.0,0.0,0.0,0.0,0.0,0.0,0.0,0.0,-2.665,0.0,0.0,0.0,0.0,-2.5084,0.0,0.0,0.0,0.0,0.0,-2.292,-2.2397,-2.2719,0.0,0.0,0.0,0.0,0.0,0.0,0.0,0.0,0.0,0.0,-2.3979,-2.4531,-2.5059,-2.5561,-2.6172,-2.6499,-2.6499,-2.7027,-2.7544,-2.8097,-2.8612,-2.9189,-2.9804,-2.9804,-2.9804,-2.9804,-2.9804,-2.9804,-2.9854,-3.0382,-3.0909,-3.1461,-3.1989,-3.2566,-3.3111,-3.3111,-3.3093,-3.3194,-3.3746,-3.4299,-3.4751,0.0,0.0,0.0,0.0,0.0,0.0,0.0,-2.1794,0.0,0.0,0.0,0.0,0.0,0.0,-2.7871,0.0,0.0,-2.7595,-2.7077,-2.6348,0.0,0.0,0.0,-2.4255,0.0,0.0,0.0,0.0,0.0,0.0,0.0,0.0,0.0,0.0,0.0,-2.3095,0.0,0.0,0.0,0.0,0.0,-2.541,-2.659,0.0,0.0,-2.541,-2.5762,-2.5887,0.0,-2.6373,-2.6499,-2.6499,-2.6499,-2.6223,-2.5837,-2.5661,-2.5485,0.0,0.0,0.0,-2.6214,-2.6449,0.0,0.0,0.0,0.0,0.0,0.0,0.0,0.0,0.0,0.0,-2.3045,-2.2869,-2.2669,-2.2619,0.0,0.0,0.0,0.0,0.0,0.0,0.0,0.0,0.0,-2.3371,-2.3954,-2.4356,0.0,-2.541,-2.5887,-2.5887,-2.6474,-2.7027,-2.7544,-2.8097,-2.8674,-2.9227,-2.9603,-2.9804,-2.9804,-2.9804,-2.9804,-2.9804,-2.998,-3.0382,-3.0884,-3.1085,-3.1687,-3.2516,-3.2516,-3.2742,-3.3144,-3.3696,-3.4022,-3.4173,-1.9811,0.0,0.0,0.0,0.0,0.0,0.0,0.0,0.0,0.0,-2.6113,0.0,-2.9553,0.0,-2.9277,0.0,-2.9578,-2.88,-2.7645,-2.7278,0.0,-2.546,-2.536,0.0,0.0,0.0,0.0,0.0,0.0,-2.3296,0.0,0.0,0.0,0.0,0.0,0.0,0.0,0.0,-2.3853,0.0,0.0,-2.5084,0.0,0.0,-2.4883,-2.541,0.0,-2.5335,-2.5385,-2.5762,-2.6047,-2.6172,-2.6172,-2.6072,-2.5862,-2.5661,-2.5511,-2.5435,-2.5561,-2.5737,0.0,-2.6399,-2.6223,0.0,-2.5636,0.0,0.0,0.0,0.0,0.0,0.0,0.0,-2.3095,-2.3095,-2.2819,-2.2694,0.0,-2.3095,0.0,0.0,0.0,0.0,0.0,0.0,-2.3095,-2.3095,-2.3678,-2.4004,0.0,0.0,-2.541,-2.5586,-2.5996,-2.6549,-2.7268,-2.7645,-2.8197,-2.8888,-2.9302,-2.9603,-2.9804,-2.9804,-2.9804,-2.9804,-2.9804,-3.0105,-3.0608,-3.0608,-3.1135,-3.1938,-3.2139,-3.2441,-3.2842,-3.3395,-3.3596,-3.3596,0.0,0.0,0.0,0.0,-2.0365,0.0,0.0,0.0,-2.5008,0.0,-2.7143,-2.8599,-2.9779,-3.0331,-3.0608,-3.0608,-3.1035,0.0,-2.8323,-2.8197,0.0,0.0,-2.5536,-2.4901,-2.48,0.0,0.0,0.0,0.0,0.0,0.0,0.0,0.0,0.0,-2.3095,0.0,-2.317,-2.4299,-2.4173,-2.3271,-2.3828,-2.4682,-2.5511,-2.4481,-2.5091,-2.6348,-2.5209,-2.48,-2.48,-2.4883,-2.5234,-2.5636,-2.5636,-2.6021,-2.6348,-2.5787,-2.6047,-2.6323,-2.5737,-2.6047,-2.6474,-2.6449,0.0,0.0,0.0,0.0,-2.6047,0.0,0.0,0.0,0.0,0.0,0.0,-2.3095,-2.3095,-2.3095,-2.3095,0.0,0.0,0.0,0.0,0.0,0.0,-2.3095,-2.3095,-2.3095,-2.3653,0.0,0.0,0.0,-2.5034,-2.5536,-2.5586,-2.6113,-2.7243,-2.7304,-2.7821,-2.8838,-2.8888,-2.9227,-2.9804,-2.9804,-2.9804,-2.9804,-2.9804,-3.008,-3.0583,-3.0583,-3.0884,-3.1411,-3.1938,-3.2164,-3.229,-3.2867,-3.3111,-3.3111,-1.9886,-2.0489,-2.1192,0.0,-2.1144,-2.1144,0.0,0.0,0.0,0.0,-2.8197,-2.9453,-3.1386,-3.1009,-3.0608,-3.0608,-3.0357,0.0,0.0,0.0,0.0,-2.7745,-2.7419,-2.649,-2.4825,-2.4682,0.0,-2.3095,0.0,0.0,-2.3095,0.0,0.0,0.0,0.0,0.0,-2.317,-2.4299,-2.485,-2.4933,-2.4707,-2.5259,0.0,0.0,-2.5711,-2.6348,-2.5209,-2.48,-2.4933,-2.5762,-2.6172,-2.6273,-2.6273,-2.6072,-2.5896,-2.6197,-2.6072,-2.5787,-2.5636,-2.6047,-2.6399,-2.5912,-2.6172,-2.6449,0.0,0.0,0.0,0.0,0.0,0.0,0.0,0.0,0.0,-2.3095,-2.3095,-2.3095,0.0,0.0,0.0,0.0,0.0,0.0,-2.3095,-2.3095,-2.3095,-2.3095,-2.3246,0.0,0.0,0.0,0.0,-2.5008,-2.5385,-2.5971,-2.67,-2.7102,-2.762,-2.8323,-2.8687,-2.9227,-2.9804,-2.9804,-2.9804,-2.9804,-2.9804,-2.988,-3.0005,-3.0005,-3.0331,-3.0834,-3.0959,-3.1512,-3.229,-3.2867,-3.3111,-3.3111,-2.0614,0.0,0.0,-2.3301,0.0,0.0,-2.3722,0.0,0.0,-2.7871,-2.9026,0.0,-3.1386,-3.1185,-3.0859,-3.0633,-3.0331,0.0,0.0,0.0,0.0,-2.8499,-2.7996,-2.6942,-2.5209,-2.4933,0.0,-2.3095,0.0,0.0,-2.3095,0.0,0.0,0.0,0.0,-2.3095,0.0,-2.3772,-2.4499,-2.5234,-2.4901,0.0,0.0,-2.5711,-2.5787,-2.6047,-2.5385,-2.5008,-2.4876,-2.5536,-2.5921,-2.6122,-2.6122,-2.6072,-2.6072,-2.6399,-2.6097,-2.5661,-2.5912,-2.6072,-2.6097,-2.6021,-2.6248,-2.6499,-2.6499,-2.6298,-2.6021,0.0,0.0,0.0,0.0,0.0,0.0,0.0,0.0,0.0,0.0,0.0,0.0,0.0,0.0,0.0,-2.3095,-2.3095,-2.3095,-2.3095,0.0,0.0,0.0,0.0,0.0,-2.475,-2.5335,-2.5896,-2.6474,-2.7027,-2.757,-2.8097,-2.8423,-2.9001,-2.9804,-2.9804,-2.9804,-2.9804,-2.9804,-2.9804,-2.9804,-2.9804,-2.998,-3.0306,-3.0783,-3.1612,-3.2616,-3.2943,-3.3111,-3.3111,0.0,0.0,0.0,0.0,0.0,0.0,0.0,-2.6515,0.0,-2.8147,0.0,-3.0608,-3.0608,-3.1009,-3.1085,-3.0557,0.0,-3.0306,-2.9829,-2.9804,-2.9528,-2.8913,-2.7946,-2.6816,-2.5611,-2.5084,0.0,0.0,0.0,0.0,0.0,0.0,0.0,0.0,0.0,0.0,0.0,-2.3221,-2.3772,0.0,-2.4825,-2.5159,-2.5511,-2.5661,-2.5711,-2.5711,-2.5711,-2.5335,-2.48,-2.4876,-2.5234,-2.5586,-2.5586,-2.6021,-2.6474,-2.6399,-2.6021,-2.5686,-2.6147,-2.5971,-2.5711,-2.6248,-2.6449,-2.6499,-2.6499,-2.6097,-2.5711,-2.5711,-2.4858,-2.4104,0.0,0.0,0.0,0.0,0.0,0.0,0.0,0.0,0.0,0.0,0.0,0.0,0.0,-2.3145,0.0,0.0,0.0,0.0,0.0,0.0,0.0,-2.465,-2.5234,0.0,-2.6474,0.0,-2.7595,-2.8222,-2.8222,-2.8775,-2.9804,-2.9804,-2.9804,-2.9804,-2.9804,-2.9804,-2.9804,-2.9804,-2.9804,-2.9905,-3.0909,-3.1938,-3.291,-3.2943,-3.3061,-3.3111,0.0,0.0,0.0,0.0,0.0,-2.7268,-2.806,-2.8072,-2.8172,-2.8687,-2.9816,-3.0608,-3.0608,-3.0683,-3.0532,-2.998,-2.993,0.0,0.0,0.0,0.0,-2.8913,-2.8323,-2.7218,-2.5636,-2.5084,-2.4224,0.0,0.0,0.0,0.0,0.0,0.0,0.0,0.0,0.0,-2.3853,-2.3853,0.0,-2.423,-2.5109,-2.5259,-2.5059,-2.5996,-2.6348,-2.6348,-2.6348,-2.5661,-2.485,-2.531,-2.5511,-2.5586,-2.5586,-2.6021,-2.6399,-2.5887,-2.5661,-2.5536,-2.5209,-2.5335,-2.5611,-2.5711,-2.6147,-2.6499,-2.6499,-2.6424,-2.6348,-2.6348,-2.5435,-2.4682,-2.4682,0.0,0.0,0.0,0.0,0.0,0.0,0.0,0.0,0.0,0.0,0.0,0.0,0.0,0.0,0.0,0.0,0.0,0.0,0.0,0.0,0.0,0.0,0.0,0.0,0.0,-2.7795,-2.8737,-2.8737,-2.9151,-2.9804,-2.9804,-2.9804,-2.9804,-2.9804,-2.9804,-2.9804,-2.9804,-2.9804,-2.9854,-3.0507,-3.1135,-3.1738,-3.219,-3.2667,-3.3111,0.0,0.0,0.0,0.0,0.0,0.0,0.0,-2.8104,0.0,-2.8812,-2.9364,-2.969,-2.969,-3.0005,-3.008,-2.9804,-2.9804,-2.9804,-2.9804,-2.9503,-2.9101,-2.8524,-2.7695,0.0,-2.5234,-2.4682,-2.3948,-2.3095,0.0,0.0,0.0,0.0,0.0,0.0,0.0,-2.3271,0.0,0.0,0.0,-2.4079,-2.5159,-2.546,-2.531,-2.6172,-2.6499,-2.6499,-2.6499,-2.5971,-2.5259,-2.5511,-2.5787,-2.5971,-2.5385,-2.5561,-2.5912,-2.536,-2.4983,-2.4782,-2.4775,-2.4808,-2.4908,-2.546,-2.5812,-2.6122,-2.6424,-2.6499,-2.6399,-2.6097,-2.5385,-2.46,-2.4023,-2.3471,0.0,0.0,0.0,0.0,0.0,0.0,0.0,0.0,0.0,0.0,0.0,0.0,0.0,0.0,0.0,0.0,0.0,0.0,0.0,0.0,0.0,0.0,0.0,0.0,0.0,-2.8499,-2.8762,-2.9227,-2.9804,-2.9804,-2.9804,-2.9804,-2.9804,-2.9804,-2.9804,-2.9804,-2.9955,-3.0256,-3.0507,-3.0934,-3.1411,-3.1687,-3.1964,-3.229,0.0,-2.6112,0.0,0.0,-2.6325,0.0,-2.7553,-2.7789,-2.8164,-2.8986,-2.9063,-2.9063,-2.9063,-2.9528,-2.9804,-2.9804,-2.9804,-2.9804,-2.9804,-2.9377,-2.8762,-2.8147,-2.7203,-2.6063,-2.4825,-2.4406,-2.3828,0.0,0.0,0.0,0.0,0.0,0.0,0.0,0.0,0.0,0.0,0.0,-2.4004,-2.4079,-2.5159,-2.5586,-2.5661,-2.6273,-2.6499,-2.6499,-2.6499,-2.6197,-2.5737,-2.5511,-2.5737,-2.5996,-2.5084,-2.5109,-2.5335,-2.4808,-2.433,-2.4104,-2.4531,-2.433,-2.423,-2.5184,-2.5435,-2.5586,-2.6172,-2.6223,-2.6047,-2.5661,-2.4995,-2.4137,-2.3052,-2.2922,0.0,0.0,0.0,0.0,0.0,0.0,0.0,0.0,0.0,0.0,0.0,0.0,0.0,0.0,0.0,0.0,0.0,0.0,0.0,0.0,0.0,-2.5711,-2.6298,0.0,-2.8172,0.0,-2.885,-2.9352,-2.9804,-2.9804,-2.9804,-2.9804,-2.9804,-2.9804,-2.9804,-2.9804,-3.0055,-3.0432,-3.0432,-3.0758,-3.1235,-3.1235,-3.1361,-3.1687,0.0,0.0,0.0,0.0,0.0,0.0,0.0,-2.7824,-2.7787,-2.9482,-2.9704,-2.9704,-2.9704,-2.9754,-2.9804,-2.9804,-2.9804,-2.9804,-2.9804,-2.9754,-2.9227,-2.8147,-2.7519,-2.6465,-2.4825,-2.475,-2.4173,0.0,0.0,0.0,0.0,0.0,0.0,0.0,0.0,0.0,0.0,-2.3753,-2.4004,-2.4079,-2.5159,-2.5586,-2.5661,-2.6273,-2.6499,-2.6499,-2.6499,-2.6449,-2.6273,-2.5234,-2.4901,-2.4926,-2.4825,-2.4825,-2.4782,-2.423,-2.4029,-2.4004,-2.4054,-2.4029,-2.413,-2.4732,-2.485,-2.5034,-2.5561,-2.531,-2.5084,-2.5511,-2.4441,-2.3147,-2.2193,-2.2321,-2.2456,0.0,0.0,0.0,0.0,0.0,0.0,0.0,0.0,0.0,0.0,0.0,0.0,0.0,0.0,0.0,0.0,0.0,0.0,-2.3271,0.0,-2.5159,-2.5661,-2.7293,0.0,-2.8813,-2.9428,-2.9754,-2.9804,-2.9804,-2.9804,-2.9804,-2.9804,-2.9804,-2.9804,-2.9804,-2.9829,-2.9854,-2.9854,-3.0206,-3.0683,-3.0683,-3.1311,-3.2139,0.0,0.0,0.0,0.0,0.0,0.0,0.0,-2.6389,-2.6581,-2.7993,-2.8522,-2.9028,-2.9702,-2.9184,-2.9067,-2.974,-2.9184,-2.9067,-2.974,-2.9151,-2.8574,-2.8122,-2.6615,-2.5511,-2.48,-2.4474,-2.3898,0.0,0.0,0.0,0.0,0.0,0.0,0.0,0.0,-2.3653,-2.3678,-2.4255,-2.4481,-2.4582,-2.5686,-2.6147,-2.6172,-2.6399,-2.6499,-2.6499,-2.6499,-2.6273,-2.5896,-2.5435,-2.5285,-2.5109,-2.4098,-2.4023,-2.423,-2.3622,-2.3446,-2.3446,-2.3446,-2.3446,-2.3597,-2.418,-2.433,-2.4481,-2.5008,-2.4926,-2.4782,-2.4657,-2.3489,-2.2345,-2.1949,-2.2044,-2.2084,0.0,0.0,0.0,0.0,0.0,0.0,0.0,0.0,0.0,0.0,0.0,0.0,0.0,0.0,0.0,0.0,0.0,0.0,-2.3653,0.0,-2.5234,-2.6147,-2.7444,-2.8373,-2.8888,-2.9528,-2.9804,-2.9804,-2.9804,-2.9804,-2.9804,-2.9804,-2.9804,-2.9804,-2.9804,-2.9804,-2.9804,-2.9804,-2.993,-3.0131,-3.0131,-3.0382,-3.0758,-2.4709,0.0,-2.5923,0.0,-2.4776,-2.5259,-2.5367,-2.5106,-2.5415,-2.6745,-2.7035,-2.7562,-2.8712,-2.8108,-2.7947,-2.8752,-2.7965,-2.7751,-2.8548,-2.7773,-2.7115,-2.6834,-2.5394,0.0,-2.4171,-2.4054,-2.3803,-2.3346,-2.3954,0.0,0.0,0.0,0.0,0.0,-2.4079,-2.4004,-2.4029,-2.4406,-2.4682,-2.4876,-2.5871,-2.6248,-2.6248,-2.6248,-2.6147,-2.6021,-2.6021,-2.5711,-2.5335,-2.5184,-2.4945,-2.4583,-2.366,-2.3552,-2.3653,-2.3221,-2.3095,-2.3095,-2.3095,-2.3095,-2.3195,-2.3653,-2.3753,-2.3879,-2.4456,-2.424,-2.3793,-2.3147,-2.2099,-2.1284,-2.1155,-2.1215,-2.1261,-2.1155,0.0,0.0,0.0,0.0,0.0,0.0,0.0,-2.1981,-2.1565,0.0,0.0,0.0,0.0,0.0,0.0,0.0,0.0,0.0,0.0,0.0,0.0,-2.7544,-2.8373,-2.8888,-2.9528,-2.9804,-2.9804,-2.9804,-2.9804,-2.9804,-2.9804,-2.9804,-2.9804,-2.9804,-2.9804,-2.9804,-2.9804,-2.9804,-2.9804,-2.9804,-2.9905,-3.003,-2.5028,-2.5106,-2.5086,-2.5106,-2.5106,-2.5166,-2.5384,-2.4529,-2.45,-2.626,-2.5546,-2.5252,-2.6442,-2.6524,-2.6524,-2.6565,-2.6094,-2.5824,-2.5864,-2.5453,-2.4808,0.0,0.0,-2.3732,-2.275,-2.3571,-2.4004,-2.3979,0.0,0.0,-2.4775,0.0,-2.4775,-2.475,-2.4255,-2.4004,-2.4004,-2.4004,-2.433,-2.4825,-2.5385,-2.5611,-2.5611,-2.5611,-2.5285,-2.48,-2.48,-2.48,-2.4725,-2.4205,-2.3445,-2.2879,-2.3729,-2.3572,-2.312,-2.3095,-2.3095,-2.3095,-2.3095,-2.3095,-2.3095,-2.312,-2.312,-2.3271,-2.3879,-2.2934,-2.1714,-2.0837,-2.0247,-1.98,-1.9405,-1.9666,-1.9779,-1.9405,0.0,0.0,0.0,0.0,0.0,0.0,-2.2858,-2.2136,-2.0732,0.0,0.0,0.0,0.0,0.0,0.0,0.0,0.0,-2.3979,-2.4531,0.0,-2.6474,-2.7544,-2.8373,-2.8888,-2.9528,-2.9804,-2.9804,-2.9804,-2.9804,-2.9804,-2.9804,-2.9804,-2.9804,-2.9804,-2.9804,-2.9804,-2.9804,-2.9804,-2.9804,-2.9804,-3.0131,-3.0608,-2.5488,-2.5527,-2.5332,-2.4727,-2.4863,-2.4906,-2.4401,-2.4013,-2.3999,-2.4571,-2.4068,-2.3757,-2.4145,-2.4893,-2.5541,0.0,-2.5226,-2.4905,0.0,-2.4896,-2.4311,-2.3717,-2.3059,-2.2422,-2.1848,-2.2087,-2.2054,-2.1672,0.0,0.0,0.0,-2.3738,-2.4174,-2.3788,-2.4318,-2.4356,-2.4004,-2.4004,-2.4104,-2.4305,-2.4858,-2.5026,-2.5026,-2.5026,-2.4926,-2.48,-2.48,-2.455,-2.423,-2.4054,-2.3542,-2.301,-2.331,-2.288,-2.2372,-2.2944,-2.3095,-2.3095,-2.3095,-2.3095,-2.2975,-2.2402,-2.2279,-2.2173,-2.1753,-2.1343,-2.0782,-1.9879,-1.958,-1.9444,-1.933,-1.9381,-1.9444,-1.933,-2.0751,0.0,0.0,0.0,0.0,0.0,0.0,-2.0216,0.0,-2.0494,0.0,0.0,0.0,0.0,0.0,0.0,0.0,0.0,-2.4531,0.0,-2.7027,-2.7745,-2.8574,-2.9528,-2.9704,-2.9804,-2.9804,-2.9804,-2.9804,-2.9804,-2.9804,-2.9804,-2.9804,-2.9804,-2.9804,-2.9804,-2.9804,-2.9804,-2.9804,-2.9804,-2.9905,-3.0055,-2.5527,-2.5488,-2.5215,-2.4336,-2.4414,-2.4355,-2.3652,-2.3555,-2.3555,-2.3555,-2.3257,-2.3101,-2.3101,-2.3757,0.0,-2.4763,-2.3908,-2.3514,-2.3945,-2.3302,-2.2638,-2.2069,-2.168,-2.1188,-2.0632,0.0,0.0,-2.0892,-2.1419,-2.1666,-2.1599,-2.2845,-2.3257,-2.2897,-2.3332,-2.3329,-2.3015,-2.3015,-2.3015,-2.3063,-2.3619,-2.3912,-2.4,-2.4,-2.4069,-2.4148,-2.4148,-2.3735,-2.3219,-2.3219,-2.2539,-2.1729,-2.2063,-2.1573,-2.1164,-2.231,-2.2641,-2.258,-2.2249,-2.2156,-2.2032,-2.1542,-2.1408,-2.1164,-2.0301,-2.0107,-1.9846,-1.8977,-1.8811,-1.8811,-1.8811,-1.8811,-1.8811,-1.8811,-2.0009,-2.0526,-1.9453,0.0,0.0,0.0,0.0,0.0,0.0,-1.9781,0.0,0.0,0.0,0.0,0.0,0.0,0.0,-2.428,-2.5034,0.0,-2.757,-2.8147,-2.8875,-2.9804,-2.9804,-2.9804,-2.9804,-2.9804,-2.9804,-2.9804,-2.9804,-2.9804,-2.9804,-2.9804,-2.9804,-2.9804,-2.9804,-2.9804,-2.9804,-2.9804,-2.9804,-2.9804,-2.5117,-2.5067,0.0,0.0,-2.3789,0.0,-2.3159,-2.3101,-2.3101,-2.3101,-2.3101,-2.3101,-2.3101,-2.3101,-2.3101,-2.3101,0.0,0.0,0.0,-2.1075,-2.0233,-1.9375,-2.0109,-2.0115,-1.9273,-2.0031,-2.0652,-2.1163,-2.1688,-2.1933,-2.1933,-2.2047,-2.2081,-2.2014,-2.1599,-2.1374,-2.1329,-2.1329,-2.1329,-2.1374,-2.188,-2.2292,-2.2526,-2.2526,-2.2715,-2.2944,-2.2944,-2.2457,-2.1815,-2.1815,-2.0719,-1.9519,-2.0333,-2.0042,-1.9716,-2.1322,-2.1815,-2.1628,-2.0814,-2.059,-2.059,-2.0526,-2.0462,-2.0204,-1.9387,-1.921,-1.8977,-1.8178,-1.8008,-1.8008,-1.8008,-1.8008,-1.8008,-1.8008,-1.871,-1.9276,-1.921,0.0,0.0,0.0,0.0,0.0,0.0,-1.921,-1.9243,0.0,0.0,0.0,0.0,0.0,-2.4317,-2.4825,-2.5946,-2.7052,-2.8147,-2.8637,-2.9189,-2.9804,-2.9804,-2.9804,-2.9804,-2.9804,-2.9804,-2.9804,-2.9804,-2.9804,-2.9804,-2.9804,-2.9804,-2.9804,-2.9804,-2.9804,-2.9804,-2.9804,-2.9804,-2.9804,0.0,0.0,-2.4394,-2.3887,-2.3789,-2.3633,-2.3159,-2.3101,-2.3101,-2.3101,-2.3101,-2.3101,-2.3101,-2.3101,-2.3101,-2.3101,-2.2363,-2.1738,-2.1366,-2.0879,-2.037,-1.9785,-1.9673,-1.9346,-1.8775,-1.8656,-1.8671,-1.8805,-1.9251,-1.9474,-1.9474,-2.0611,-2.0904,-2.0471,-2.1107,-2.1171,-2.0802,-2.0802,-2.0802,-2.0802,-2.0914,-2.1021,-2.1092,-2.1092,-2.1152,-2.1195,-2.1195,-2.1069,-2.091,-2.091,-2.0623,-2.0333,-2.0526,-2.0462,-2.0365,-2.0782,-2.091,-2.0846,-2.0655,-2.059,-2.043,-1.9781,-1.911,-1.8563,-1.8361,-1.8293,-1.8245,-1.8042,-1.8008,-1.8008,-1.8008,-1.8008,-1.8008,-1.8008,-1.871,-1.9077,-1.8395,-1.8877,0.0,0.0,-1.8428,-1.8293,-1.8293,-1.8293,-1.8704,0.0,0.0,0.0,0.0,-2.3741,-2.4944,-2.5402,-2.6122,-2.7228,-2.8687,-2.8838,-2.9189,-2.9804,-2.9804,-2.9804,-2.9804,-2.9804,-2.9804,-2.9804,-2.9804,-2.9804,-2.9804,-2.9804,-2.9804,-2.9804,-2.9804,-2.9804,-2.9804,-2.9804,-2.9804,-2.9804,-2.4219,-2.4141,-2.3984,-2.3574,-2.3496,-2.3418,-2.314,-2.3101,-2.3101,-2.3101,-2.3101,-2.3101,-2.3101,-2.3101,-2.3023,-2.2828,-2.2266,-2.1777,-2.1543,-2.0918,-2.0331,-1.9648,-1.959,-1.918,-1.8325,-1.8286,-1.8169,-1.8008,-1.8208,-1.8325,-1.8359,-1.9168,-1.9355,-1.9076,-1.9599,-1.9674,-1.9387,-1.9387,-1.9387,-1.9387,-1.9387,-1.965,-2.0009,-2.0009,-2.0236,-2.059,-2.059,-2.0333,-2.0009,-2.0009,-1.9748,-1.9387,-1.9387,-1.9387,-1.9387,-1.9387,-1.9683,-1.9911,-1.9519,-1.9387,-1.9309,-1.8811,-1.8327,-1.8008,-1.8008,-1.8008,-1.8008,-1.8008,-1.8008,-1.8008,-1.8008,-1.8008,-1.8008,-1.8008,-1.8395,-1.8529,-1.8076,-1.8395,0.0,-1.8076,-1.8008,-1.8086,-1.8247,-1.8266,-1.8631,-1.954,0.0,0.0,-2.1517,-2.3505,-2.4861,-2.5316,-2.6806,-2.8021,-2.8888,-2.9176,-2.9478,-2.9804,-2.9804,-2.9804,-2.9804,-2.9804,-2.9804,-2.9804,-2.9804,-2.9804,-2.9804,-2.9804,-2.9804,-2.9804,-2.9804,-2.9804,-2.9804,-2.9804,-2.9804,-2.9804,-2.3769,-2.3691,-2.3574,-2.3159,-2.3101,-2.3101,-2.3101,-2.3101,-2.3101,-2.3101,-2.3101,-2.3101,-2.3101,-2.3101,-2.2945,-2.2637,-2.2168,-2.1836,-2.1699,-2.1016,-2.0253,-1.9414,-1.9727,-1.9414,-1.832,-1.8481,-1.8422,-1.8105,-1.8047,-1.8008,-1.8008,-1.8008,-1.8008,-1.8008,-1.8008,-1.8008,-1.8008,-1.8008,-1.8008,-1.8008,-1.8008,-1.8428,-1.911,-1.911,-1.9552,-2.0204,-2.0204,-1.9716,-1.911,-1.911,-1.863,-1.8008,-1.8008,-1.8008,-1.8008,-1.8008,-1.8529,-1.8944,-1.8212,-1.8008,-1.8008,-1.8008,-1.8008,-1.8008,-1.8008,-1.8008,-1.8008,-1.8008,-1.8008,-1.8008,-1.8008,-1.8008,-1.8008,-1.8008,-1.8008,-1.8008,-1.8008,0.0,-1.8027,-1.8086,-1.8105,-1.8247,-1.8656,-1.8695,-1.8945,-1.9453,-2.0602,-2.1312,0.0,-2.3167,-2.4401,-2.4842,-2.7184,-2.8458,-2.8532,-2.922,-2.9546,-2.9546,-2.9702,-2.9804,-2.9804,-2.9804,-2.9804,-2.9804,-2.9804,-2.9804,-2.9804,-2.9804,-2.9804,-2.9804,-2.9804,-2.9804,-2.9804,-2.9804,-2.9804,-2.9804,-2.3276,-2.3198,-2.3179,-2.3101,-2.3101,-2.3101,-2.3101,-2.3101,-2.3101,-2.3101,-2.3101,-2.3101,-2.3101,-2.3101,-2.3062,-2.3003,-2.2344,-2.1562,-2.086,-2.0683,-2.037,-1.9844,-1.9883,-1.9824,-1.9629,-1.8929,-1.8559,-1.85,-1.8184,-1.8008,-1.8008,-1.8008,-1.8008,-1.8008,-1.8008,-1.8008,-1.8008,-1.8008,-1.8008,-1.8008,-1.8008,-1.8076,-1.8212,-1.8212,-1.8293,-1.8395,-1.8395,-1.8327,-1.8212,-1.8212,-1.811,-1.8008,-1.8008,-1.8008,-1.8008,-1.8008,-1.811,-1.8178,-1.8042,-1.8008,-1.8008,-1.8008,-1.8008,-1.8008,-1.8008,-1.8008,-1.8008,-1.8008,-1.8008,-1.8008,-1.8008,-1.8008,-1.8008,-1.8008,-1.8008,-1.8008,-1.8008,0.0,-1.8144,-1.8461,-1.85,-1.8676,-1.9141,-1.918,-1.9512,-2.0351,-2.0622,-2.1055,-2.1726,-2.3308,-2.423,-2.4307,-2.5489,-2.6365,-2.688,-2.786,-2.8347,-2.8386,-2.9326,-2.9804,-2.9804,-2.9804,-2.9804,-2.9804,-2.9804,-2.9804,-2.9804,-2.9804,-2.9804,-2.9804,-2.9804,-2.9804,-2.9804,-2.9804,-2.9804,-2.9804,-2.314,-2.3101,-2.3101,-2.3101,-2.3101,-2.3101,-2.3101,-2.3101,-2.3101,-2.3101,-2.3101,-2.3101,-2.3101,-2.3101,-2.2906,-2.25,-2.2109,-2.1406,-2.0293,-2.0215,-2.0019,-1.959,-1.957,-1.9473,-1.9202,-1.8578,-1.8266,-1.8266,-1.8105,-1.8008,-1.8008,-1.8008,-1.8008,-1.8008,-1.8008,-1.8008,-1.8008,-1.8008,-1.8008,-1.8008,-1.8008,-1.8008,-1.8008,-1.8008,-1.8008,-1.8008,-1.8008,-1.8008,-1.8008,-1.8008,-1.8008,-1.8008,-1.8008,-1.8008,-1.8008,-1.8008,-1.8008,-1.8008,-1.8008,-1.8008,-1.8008,-1.8008,-1.8008,-1.8008,-1.8008,-1.8008,-1.8008,-1.8008,-1.8008,-1.8008,-1.8008,-1.8008,-1.8008,-1.8008,-1.8008,0.0,0.0,-1.8203,-1.8383,-1.8578,-1.9007,-1.9492,-1.9959,-2.0195,-2.0605,-2.123,-2.131,-2.1543,-2.2187,-2.2888,-2.3384,-2.3626,-2.5222,-2.6196,-2.6524,-2.6994,-2.7238,-2.7238,-2.7747,-2.8011,-2.8011,-2.8011,-2.8011,-2.8011,-2.8011,-2.8011,-2.8011,-2.8011,-2.8371,-2.8885,-2.8885,-2.9287,-2.9804,-2.9804,-2.9804,-2.9804,-2.3101,-2.3101,-2.3101,-2.3101,-2.3101,-2.3101,-2.3101,-2.3101,-2.3101,-2.3101,-2.3101,-2.3101,-2.3101,-2.3101,-2.2789,-2.209,-2.1934,-2.1406,-2.0293,-2.0019,-1.9727,-1.9297,-1.9297,-1.9141,-1.8754,-1.8344,-1.813,-1.813,-1.8066,-1.8008,-1.8008,-1.8008,-1.8008,-1.8008,-1.8008,-1.8008,-1.8008,-1.8008,-1.8008,-1.8008,-1.8008,-1.8008,-1.8008,-1.8008,-1.8008,-1.8008,-1.8008,-1.8008,-1.8008,-1.8008,-1.8008,-1.8008,-1.8008,-1.8008,-1.8008,-1.8008,-1.8008,-1.8008,-1.8008,-1.8008,-1.8008,-1.8008,-1.8008,-1.8008,-1.8008,-1.8008,-1.8008,-1.8008,-1.8008,-1.8008,-1.8008,-1.8008,-1.8008,-1.8008,0.0,0.0,0.0,-1.8481,-1.8831,-1.9026,-1.9668,-2.0273,-2.086,-2.1191,-2.1562,-2.1992,-2.2031,-2.2227,-2.2637,-2.2656,-2.2769,-2.3081,-2.4808,-2.5735,-2.5735,-2.5964,-2.6088,-2.6088,-2.6359,-2.6524,-2.6524,-2.6524,-2.6648,-2.6871,-2.6871,-2.7017,-2.7261,-2.7261,-2.7747,-2.8505,-2.8505,-2.9028,-2.9804,-2.9804,-2.9804,-2.9804,-2.3101,-2.3101,-2.3101,-2.3101,-2.3101,-2.3101,-2.3101,-2.3101,-2.3101,-2.3101,-2.3101,-2.3101,-2.3101,-2.3101,-2.2906,-2.25,-2.2109,-2.168,-2.1132,-2.0371,-1.9727,-1.9297,-1.9297,-1.9277,-1.9238,-1.8773,-1.8559,-1.8559,-1.8169,-1.8008,-1.8008,-1.8008,-1.8008,-1.8008,-1.8008,-1.8008,-1.8008,-1.8008,-1.8008,-1.8008,-1.8008,-1.8008,-1.8008,-1.8008,-1.8008,-1.8008,-1.8008,-1.8008,-1.8008,-1.8008,-1.8008,-1.8008,-1.8008,-1.8008,-1.8008,-1.8008,-1.8008,-1.8008,-1.8008,-1.8008,-1.8008,-1.8008,-1.8008,-1.8008,-1.8008,-1.8008,-1.8008,-1.8008,-1.8008,-1.8008,-1.8008,-1.8008,-1.8008,-1.8008,0.0,0.0,-1.8559,-1.8965,-1.9531,-2.037,-2.0507,-2.0899,-2.1699,-2.1816,-2.2012,-2.2441,-2.2461,-2.2656,-2.3023,-2.3042,-2.3062,-2.3101,-2.3256,-2.3343,-2.3343,-2.4425,-2.4914,-2.4957,-2.6005,-2.6524,-2.6524,-2.6524,-2.7035,-2.7964,-2.7964,-2.8569,-2.9546,-2.9546,-2.9585,-2.9663,-2.9663,-2.9702,-2.9804,-2.9804,-2.9804,-2.9804,-2.295,-2.3101,-2.3101,-2.3101,-2.3101,-2.3101,-2.3101,-2.3101,-2.3101,-2.3101,-2.3101,-2.3101,-2.3101,-2.2867,-2.2578,-2.2168,-2.1738,-2.1172,-2.043,-2.0352,-1.9883,-1.8926,-1.8633,-1.8496,-1.8496,-1.834,-1.8208,-1.8208,-1.8052,-1.8008,-1.8008,-1.8008,-1.8008,-1.8008,-1.8008,-1.8008,-1.8008,-1.8008,-1.8008,-1.8008,-1.8008,-1.8008,-1.8008,-1.8008,-1.8008,-1.8008,-1.8008,-1.8008,-1.8008,-1.8008,-1.8008,-1.8008,-1.8008,-1.8008,-1.8008,-1.8008,-1.8008,-1.8008,-1.8008,-1.8008,-1.8008,-1.8008,-1.8008,-1.8086,-1.8305,-1.8364,-1.8442,-1.875,-1.8809,-1.8809,-1.8809,-1.8809,-1.8809,-1.8809,0.0,-1.9043,-1.9043,-1.9414,-1.9902,-2.0527,-2.1094,-2.1621,-2.2227,-2.2519,-2.2734,-2.2847,-2.2847,-2.2925,-2.3081,-2.3101,-2.3101,-2.3101,-2.3101,-2.3101,-2.3101,-2.3517,-2.3757,-2.3757,-2.4188,-2.4402,-2.4402,-2.4402,-2.4595,-2.4999,-2.4999,-2.5252,-2.5714,-2.6419,-2.7116,-2.781,-2.849,-2.9184,-2.9804,-2.9804,-2.9804,-2.9804,-2.181,-2.1943,-2.2094,-2.2492,-2.2536,-2.2668,-2.3057,-2.3101,-2.3101,-2.3101,-2.3101,-2.3042,-2.2906,-2.2676,-2.2285,-2.1738,-2.1406,-2.0878,-2.0176,-2.0273,-1.9902,-1.8887,-1.8403,-1.8144,-1.8008,-1.8008,-1.8008,-1.8008,-1.8008,-1.8008,-1.8008,-1.8008,-1.8008,-1.8008,-1.8008,-1.8008,-1.8008,-1.8008,-1.8008,-1.8008,-1.8008,-1.8008,-1.8008,-1.8008,-1.8008,-1.8008,-1.8008,-1.8008,-1.8008,-1.8008,-1.8008,-1.8008,-1.8008,-1.8008,-1.8008,-1.8008,-1.8008,-1.8008,-1.8008,-1.8008,-1.8008,-1.8008,-1.8105,-1.8247,-1.8539,-1.8715,-1.8926,-1.9219,-1.9297,-1.9297,-1.9297,-1.9297,-1.9297,-1.9297,-1.9512,-1.9725,-1.9725,-2.0176,-2.0684,-2.1133,-2.1719,-2.2246,-2.2676,-2.2925,-2.3101,-2.3101,-2.3101,-2.3101,-2.3101,-2.3101,-2.3101,-2.3101,-2.3101,-2.3101,-2.3101,-2.3101,-2.3101,-2.3101,-2.3101,-2.3101,-2.3101,-2.3101,-2.3299,-2.3627,-2.3627,-2.3844,-2.4231,-2.4999,-2.5797,-2.6565,-2.7319,-2.8267,-2.9287,-2.9287,-2.9482,-2.9804,-1.9497,-1.9497,-1.9906,-2.106,-2.1302,-2.1702,-2.2906,-2.3101,-2.3101,-2.3101,-2.3101,-2.2945,-2.2559,-2.25,-2.2168,-2.1268,-2.119,-2.1035,-2.0625,-2.0156,-1.9727,-1.9297,-1.8867,-1.8403,-1.8027,-1.8008,-1.8008,-1.8008,-1.8008,-1.8008,-1.8008,-1.8008,-1.8008,-1.8008,-1.8008,-1.8008,-1.8008,-1.8008,-1.8008,-1.8008,-1.8008,-1.8008,-1.8008,-1.8008,-1.8008,-1.8008,-1.8008,-1.8008,-1.8008,-1.8008,-1.8008,-1.8008,-1.8008,-1.8008,-1.8008,-1.8008,-1.8008,-1.8008,-1.8008,-1.8008,-1.8008,-1.8008,-1.8286,-1.8598,-1.8617,-1.8984,-1.9297,-1.9297,-1.9297,-1.9297,-1.9297,-1.9297,-1.9297,-1.9297,-2.0057,-2.0625,-2.0625,-2.1328,-2.2031,-2.2461,-2.2519,-2.2676,-2.3062,-2.3101,-2.3101,-2.3101,-2.3101,-2.3101,-2.3101,-2.3101,-2.3101,-2.3101,-2.3101,-2.3101,-2.3101,-2.3101,-2.3101,-2.3101,-2.3101,-2.3101,-2.3101,-2.3101,-2.3714,-2.4787,-2.4787,-2.542,-2.6483,-2.6483,-2.6524,-2.6524,-2.6524,-2.7157,-2.8124,-2.8124,-2.8806,-2.9804,-1.9314,-1.9497,-1.9633,-1.998,-2.0025,-2.0178,-2.0539,-2.1302,-2.1854,-2.1854,-2.258,-2.2945,-2.2559,-2.2246,-2.1836,-2.1249,-2.0937,-2.0742,-2.0625,-1.9883,-1.9414,-1.9297,-1.8867,-1.8403,-1.8027,-1.8008,-1.8008,-1.8008,-1.8008,-1.8008,-1.8008,-1.8008,-1.8008,-1.8008,-1.8008,-1.8008,-1.8008,-1.8008,-1.8008,-1.8008,-1.8008,-1.8008,-1.8008,-1.8008,-1.8008,-1.8008,-1.8008,-1.8008,-1.8008,-1.8008,-1.8008,-1.8008,-1.8008,-1.8008,-1.8008,-1.8008,-1.8008,-1.8008,-1.8008,-1.8008,-1.8086,-1.8344,-1.85,-1.8754,-1.9358,-1.9629,-1.9805,-2.0117,-2.0214,-2.0214,-2.0214,-2.0449,-2.0625,-2.0625,-2.1133,-2.1484,-2.1484,-2.1719,-2.2031,-2.2461,-2.2519,-2.2676,-2.3062,-2.3101,-2.3101,-2.3101,-2.3101,-2.3101,-2.3101,-2.3101,-2.3101,-2.3101,-2.3101,-2.3101,-2.3101,-2.3101,-2.3101,-2.3101,-2.3101,-2.3101,-2.3101,-2.3101,-2.3299,-2.3584,-2.3584,-2.38,-2.4231,-2.5861,-2.6524,-2.6648,-2.8211,-2.8988,-2.9287,-2.9287,-2.9507,-2.9804,-1.7886,-1.8025,-1.8211,-1.8672,-1.878,-1.8948,-1.9451,-2.0116,-2.0567,-2.0567,-2.1212,-2.1475,-2.0949,-2.1221,-2.1135,-2.0377,-2.0527,-2.0605,-2.0605,-2.0116,-1.9707,-1.9551,-1.9277,-1.8754,-1.8027,-1.8008,-1.8008,-1.8008,-1.8008,-1.8008,-1.8008,-1.8008,-1.8008,-1.8008,-1.8008,-1.8008,-1.8008,-1.8008,-1.8008,-1.8008,-1.8008,-1.8008,-1.8008,-1.8008,-1.8008,-1.8008,-1.8008,-1.8008,-1.8008,-1.8008,-1.8008,-1.8008,-1.8008,-1.8008,-1.8008,-1.8008,-1.8008,-1.8008,-1.8008,-1.8125,-1.8325,-1.8789,-1.8906,-1.9082,-1.9766,-2.0039,-2.0254,-2.0546,-2.0605,-2.0664,-2.0801,-2.1055,-2.1249,-2.1465,-2.1855,-2.2129,-2.2129,-2.2285,-2.248,-2.2734,-2.2711,-2.2808,-2.3081,-2.3101,-2.3101,-2.3101,-2.3101,-2.3101,-2.3101,-2.3101,-2.3101,-2.3101,-2.3101,-2.3101,-2.3101,-2.3101,-2.3101,-2.3101,-2.3101,-2.3101,-2.3101,-2.3101,-2.3101,-2.3101,-2.3101,-2.3101,-2.3232,-2.4595,-2.5147,-2.5274,-2.6625,-2.7424,-2.7827,-2.7827,-2.8131,-2.8514,-1.5784,-1.5784,-1.615,-1.7326,-1.7544,-1.7917,-1.8993,-1.9268,-1.936,-1.936,-1.9451,-1.9261,-1.8619,-1.9791,-2.0244,-1.9225,-2.004,-2.0605,-2.0605,-2.0566,-2.037,-1.9941,-1.9883,-1.9297,-1.8086,-1.8066,-1.8047,-1.8008,-1.8008,-1.8008,-1.8008,-1.8008,-1.8008,-1.8008,-1.8008,-1.8008,-1.8008,-1.8008,-1.8008,-1.8008,-1.8008,-1.8008,-1.8008,-1.8008,-1.8008,-1.8008,-1.8008,-1.8008,-1.8008,-1.8008,-1.8008,-1.8008,-1.8008,-1.8008,-1.8008,-1.8008,-1.8008,-1.8008,-1.8008,-1.8286,-1.8715,-1.918,-1.9316,-1.9453,-1.9883,-2.0273,-2.0605,-2.0605,-2.0644,-2.0742,-2.1112,-2.1249,-2.1444,-2.1875,-2.2305,-2.2559,-2.2559,-2.2847,-2.3101,-2.3101,-2.3101,-2.3101,-2.3101,-2.3101,-2.3101,-2.3101,-2.3101,-2.3101,-2.3101,-2.3101,-2.3101,-2.3101,-2.3101,-2.3101,-2.3101,-2.3101,-2.3101,-2.3101,-2.3101,-2.3101,-2.3101,-2.3101,-2.3101,-2.3101,-2.3101,-2.3101,-2.3101,-2.3212,-2.3256,-2.3256,-2.3343,-2.4059,-2.4957,-2.4957,-2.5588,-2.6524,-1.5784,-1.5784,-1.5879,-1.615,-1.6197,-1.6292,-1.656,-1.7451,-1.8087,-1.8087,-1.8902,-1.953,-1.9649,-1.9929,-2.0186,-2.0253,-2.0489,-2.0605,-2.0605,-2.0254,-2.0019,-1.9922,-1.9609,-1.9141,-1.8481,-1.8461,-1.8305,-1.8008,-1.8008,-1.8008,-1.8008,-1.8008,-1.8008,-1.8008,-1.8008,-1.8008,-1.8008,-1.8008,-1.8008,-1.8008,-1.8008,-1.8008,-1.8008,-1.8008,-1.8008,-1.8008,-1.8008,-1.8008,-1.8008,-1.8008,-1.8008,-1.8008,-1.8008,-1.8008,-1.8008,-1.8008,-1.8008,-1.8008,-1.8008,-1.8286,-1.8715,-1.918,-1.9531,-1.9883,-2.0332,-2.0546,-2.0605,-2.0605,-2.084,-2.1113,-2.1171,-2.1736,-2.2266,-2.2363,-2.2734,-2.2964,-2.2964,-2.3042,-2.3101,-2.3101,-2.3101,-2.3101,-2.3101,-2.3101,-2.3101,-2.3101,-2.3101,-2.3101,-2.3101,-2.3101,-2.3101,-2.3101,-2.3101,-2.3101,-2.3101,-2.3101,-2.3101,-2.3101,-2.3101,-2.3101,-2.3101,-2.3101,-2.3101,-2.3101,-2.3101,-2.3101,-2.3169,-2.4039,-2.4425,-2.451,-2.542,-2.588,-2.613,-2.613,-2.6318,-2.6648,-1.5784,-1.5784,-1.5784,-1.5784,-1.5784,-1.5784,-1.5784,-1.6386,-1.681,-1.681,-1.7343,-1.7675,-1.762,-1.8251,-1.9042,-2.0042,-2.0429,-2.0605,-2.0605,-2.0352,-2.0137,-1.9922,-1.9707,-1.9277,-1.8617,-1.8598,-1.8403,-1.8008,-1.8008,-1.8008,-1.8008,-1.8008,-1.8008,-1.8008,-1.8008,-1.8008,-1.8008,-1.8008,-1.8008,-1.8008,-1.8008,-1.8008,-1.8008,-1.8008,-1.8008,-1.8008,-1.8008,-1.8008,-1.8008,-1.8008,-1.8008,-1.8008,-1.8008,-1.8008,-1.8008,-1.8008,-1.8008,-1.8047,-1.8227,-1.8578,-1.9043,-1.9473,-1.9902,-2.0293,-2.0546,-2.0605,-2.0664,-2.084,-2.1034,-2.1327,-2.1736,-2.2207,-2.2578,-2.2773,-2.2945,-2.3101,-2.3101,-2.3101,-2.3101,-2.3101,-2.3101,-2.3101,-2.3101,-2.3101,-2.3101,-2.3101,-2.3101,-2.3101,-2.3101,-2.3101,-2.3101,-2.3101,-2.3101,-2.3101,-2.3101,-2.3101,-2.3101,-2.3101,-2.3101,-2.3101,-2.3101,-2.3101,-2.3101,-2.3101,-2.3101,-2.3101,-2.3144,-2.3757,-2.3996,-2.4018,-2.4451,-2.4703,-2.483,-2.445,-2.4302,-2.4364,-1.5784,-1.5784,-1.5784,-1.5784,-1.5784,-1.5784,-1.5784,-1.5784,-1.5784,-1.5784,-1.5744,-1.5598,-1.5331,-1.6432,-1.7731,-1.9071,-1.9715,-2.004,-2.004,-2.004,-1.9849,-1.9449,-1.9469,-1.9164,-1.8581,-1.8562,-1.8363,-1.8008,-1.8008,-1.8008,-1.8008,-1.8008,-1.8008,-1.8008,-1.8008,-1.8008,-1.8008,-1.8008,-1.8008,-1.8008,-1.8008,-1.8008,-1.8008,-1.8008,-1.8008,-1.8008,-1.8008,-1.8008,-1.8008,-1.8008,-1.8008,-1.8008,-1.8008,-1.8008,-1.8008,-1.8008,-1.8066,-1.8203,-1.85,-1.9004,-1.9492,-1.9922,-2.0352,-2.0742,-2.0801,-2.0723,-2.0684,-2.1093,-2.1249,-2.1541,-2.2363,-2.2578,-2.2691,-2.3042,-2.3101,-2.3101,-2.3101,-2.3101,-2.3101,-2.3101,-2.3101,-2.3101,-2.3101,-2.3101,-2.3101,-2.3101,-2.3101,-2.3101,-2.3101,-2.3101,-2.3101,-2.3101,-2.3101,-2.3101,-2.3101,-2.3101,-2.3101,-2.3101,-2.3101,-2.3101,-2.3101,-2.3101,-2.3101,-2.3101,-2.3101,-2.3101,-2.3081,-2.3023,-2.2984,-2.2945,-2.2559,-2.2617,-2.2789,-2.2148,-2.1999,-2.2144,-1.5784,-1.5784,-1.5784,-1.5784,-1.5784,-1.5784,-1.5784,-1.5784,-1.5784,-1.5784,-1.5605,-1.5677,-1.633,-1.6927,-1.7351,-1.7579,-1.7691,-1.7738,-1.7738,-1.7738,-1.7721,-1.7671,-1.7671,-1.7864,-1.8332,-1.8352,-1.8229,-1.8008,-1.8008,-1.8008,-1.8008,-1.8008,-1.8008,-1.8008,-1.8008,-1.8008,-1.8008,-1.8008,-1.8008,-1.8008,-1.8008,-1.8008,-1.8008,-1.8008,-1.8008,-1.8008,-1.8008,-1.8008,-1.8008,-1.8008,-1.8008,-1.8008,-1.8008,-1.8008,-1.8008,-1.8008,-1.8227,-1.852,-1.8578,-1.9182,-1.9941,-2.041,-2.082,-2.125,-2.1621,-2.1153,-2.0684,-2.1093,-2.1543,-2.1953,-2.2422,-2.2769,-2.3023,-2.3081,-2.3101,-2.3101,-2.3101,-2.3101,-2.3101,-2.3101,-2.3101,-2.3101,-2.3101,-2.3101,-2.3101,-2.3101,-2.3101,-2.3101,-2.3101,-2.3101,-2.3101,-2.3101,-2.3101,-2.3101,-2.3101,-2.3101,-2.3101,-2.3101,-2.3101,-2.3101,-2.3101,-2.3101,-2.3101,-2.3101,-2.3101,-2.3101,-2.3062,-2.2711,-2.2598,-2.2559,-2.2129,-2.2012,-2.2031,-2.1934,-2.2513,-2.3262,-1.5784,-1.5784,-1.5784,-1.5784,-1.5784,-1.5784,-1.5784,-1.5784,-1.5784,-1.5784,-1.5578,-1.5467,-1.5679,-1.6142,-1.6396,-1.6396,-1.6968,-1.7293,-1.7293,-1.7293,-1.7211,-1.6957,-1.6941,-1.6973,-1.703,-1.7013,-1.6963,-1.6863,-1.7861,-1.8208,-1.8008,-1.8008,-1.8008,-1.8008,-1.8008,-1.8008,-1.8008,-1.8008,-1.8008,-1.8008,-1.8008,-1.8008,-1.8008,-1.8008,-1.8008,-1.8008,-1.8008,-1.8008,-1.8008,-1.8008,-1.8008,-1.8047,-1.8247,-1.8325,-1.8383,-1.8652,-1.8848,-1.9043,-1.926,-1.9629,-2.0078,-2.0762,-2.1094,-2.1307,-2.1777,-2.1582,-2.1426,-2.1855,-2.2109,-2.2363,-2.275,-2.2964,-2.3101,-2.3101,-2.3101,-2.3101,-2.3101,-2.3101,-2.3101,-2.3101,-2.3101,-2.3101,-2.3101,-2.3101,-2.3101,-2.3101,-2.3101,-2.3101,-2.3101,-2.3101,-2.3101,-2.3101,-2.3101,-2.3101,-2.3101,-2.3101,-2.3101,-2.3101,-2.3101,-2.3101,-2.3101,-2.3101,-2.3101,-2.3081,-2.2847,-2.275,-2.2711,-2.2344,-2.2168,-2.2109,-2.168,-2.1367,-2.1212,-2.1426,-2.1669,-2.1886]}]]